Wetterdaten: Samstag, 10.03.2018
Datum Zeit Temp. A. Feuchte A. Luftdruck Regen Wind Richtung Richtung Sonnenschein ET UV Solar Taupunkt Windchill Windböen
10.03.2018 00:00 4,3 °C 78 % 1007,4 hPa 0,0 mm 3,0 km/h (1 Bft) S-SW 198 ° 0 min 0,000 mm 0,0 UV-I 0 W/m² 0,8 °C 4,3 °C 4,8 km/h (1 Bft)
10.03.2018 00:01 4,4 °C 78 % 1007,5 hPa 0,0 mm 0,0 km/h (0 Bft) S-SW 198 ° 0 min 0,000 mm 0,0 UV-I 0 W/m² 0,9 °C 4,4 °C 0,0 km/h (0 Bft)
10.03.2018 00:02 4,4 °C 78 % 1007,6 hPa 0,0 mm 2,5 km/h (1 Bft) W 273 ° 0 min 0,000 mm 0,0 UV-I 0 W/m² 0,9 °C 4,4 °C 4,8 km/h (1 Bft)
10.03.2018 00:03 4,5 °C 78 % 1007,6 hPa 0,0 mm 2,5 km/h (1 Bft) W 276 ° 0 min 0,000 mm 0,0 UV-I 0 W/m² 1,0 °C 4,5 °C 4,8 km/h (1 Bft)
10.03.2018 00:04 4,6 °C 78 % 1007,6 hPa 0,0 mm 0,0 km/h (0 Bft) W 276 ° 0 min 0,000 mm 0,0 UV-I 0 W/m² 1,1 °C 4,6 °C 0,0 km/h (0 Bft)
10.03.2018 00:05 4,6 °C 77 % 1007,5 hPa 0,0 mm 0,0 km/h (0 Bft) W 276 ° 0 min 0,000 mm 0,0 UV-I 0 W/m² 0,9 °C 4,6 °C 0,0 km/h (0 Bft)
10.03.2018 00:06 4,7 °C 77 % 1007,5 hPa 0,0 mm 0,0 km/h (0 Bft) SW 231 ° 0 min 0,000 mm 0,0 UV-I 0 W/m² 1,0 °C 4,7 °C 0,0 km/h (0 Bft)
10.03.2018 00:07 4,7 °C 77 % 1007,5 hPa 0,0 mm 0,0 km/h (0 Bft) SW 231 ° 0 min 0,000 mm 0,0 UV-I 0 W/m² 1,0 °C 4,7 °C 0,0 km/h (0 Bft)
10.03.2018 00:08 4,7 °C 77 % 1007,5 hPa 0,0 mm 0,0 km/h (0 Bft) SW 231 ° 0 min 0,000 mm 0,0 UV-I 0 W/m² 1,0 °C 4,7 °C 0,0 km/h (0 Bft)
10.03.2018 00:09 4,8 °C 77 % 1007,5 hPa 0,0 mm 0,0 km/h (0 Bft) SW 231 ° 0 min 0,000 mm 0,0 UV-I 0 W/m² 1,1 °C 4,8 °C 0,0 km/h (0 Bft)
10.03.2018 00:10 4,8 °C 77 % 1007,5 hPa 0,0 mm 0,4 km/h (0 Bft) SW 231 ° 0 min 0,000 mm 0,0 UV-I 0 W/m² 1,1 °C 4,8 °C 4,8 km/h (1 Bft)
10.03.2018 00:11 4,8 °C 77 % 1007,5 hPa 0,0 mm 3,9 km/h (1 Bft) SW 231 ° 0 min 0,000 mm 0,0 UV-I 0 W/m² 1,1 °C 4,8 °C 4,8 km/h (1 Bft)
10.03.2018 00:12 4,7 °C 77 % 1007,5 hPa 0,0 mm 4,3 km/h (1 Bft) SW 225 ° 0 min 0,000 mm 0,0 UV-I 0 W/m² 1,0 °C 4,7 °C 6,4 km/h (2 Bft)
10.03.2018 00:13 4,7 °C 77 % 1007,5 hPa 0,0 mm 2,7 km/h (1 Bft) SW 225 ° 0 min 0,000 mm 0,0 UV-I 0 W/m² 1,0 °C 4,7 °C 3,2 km/h (1 Bft)
10.03.2018 00:14 4,7 °C 77 % 1007,5 hPa 0,0 mm 2,4 km/h (1 Bft) SW 225 ° 0 min 0,000 mm 0,0 UV-I 0 W/m² 1,0 °C 4,7 °C 4,8 km/h (1 Bft)
10.03.2018 00:15 4,7 °C 77 % 1007,5 hPa 0,0 mm 1,3 km/h (1 Bft) SW 225 ° 0 min 0,000 mm 0,0 UV-I 0 W/m² 1,0 °C 4,7 °C 3,2 km/h (1 Bft)
10.03.2018 00:16 4,6 °C 77 % 1007,5 hPa 0,0 mm 0,9 km/h (0 Bft) SW 225 ° 0 min 0,000 mm 0,0 UV-I 0 W/m² 0,9 °C 4,6 °C 1,6 km/h (1 Bft)
10.03.2018 00:17 4,6 °C 78 % 1007,5 hPa 0,0 mm 3,3 km/h (1 Bft) SW 225 ° 0 min 0,000 mm 0,0 UV-I 0 W/m² 1,1 °C 4,6 °C 4,8 km/h (1 Bft)
10.03.2018 00:18 4,6 °C 78 % 1007,6 hPa 0,0 mm 4,1 km/h (1 Bft) SW 225 ° 0 min 0,000 mm 0,0 UV-I 0 W/m² 1,1 °C 4,6 °C 6,4 km/h (2 Bft)
10.03.2018 00:19 4,5 °C 78 % 1007,6 hPa 0,0 mm 1,2 km/h (1 Bft) SW 225 ° 0 min 0,000 mm 0,0 UV-I 0 W/m² 1,0 °C 4,5 °C 3,2 km/h (1 Bft)
10.03.2018 00:20 4,6 °C 78 % 1007,6 hPa 0,0 mm 0,8 km/h (0 Bft) SW 225 ° 0 min 0,000 mm 0,0 UV-I 0 W/m² 1,1 °C 4,6 °C 1,6 km/h (1 Bft)
10.03.2018 00:21 4,5 °C 78 % 1007,6 hPa 0,0 mm 2,2 km/h (1 Bft) SW 225 ° 0 min 0,000 mm 0,0 UV-I 0 W/m² 1,0 °C 4,5 °C 3,2 km/h (1 Bft)
10.03.2018 00:22 4,5 °C 78 % 1007,7 hPa 0,0 mm 3,9 km/h (1 Bft) SW 225 ° 0 min 0,000 mm 0,0 UV-I 0 W/m² 1,0 °C 4,5 °C 4,8 km/h (1 Bft)
10.03.2018 00:23 4,5 °C 79 % 1007,7 hPa 0,0 mm 3,9 km/h (1 Bft) SW 225 ° 0 min 0,000 mm 0,0 UV-I 0 W/m² 1,2 °C 4,5 °C 4,8 km/h (1 Bft)
10.03.2018 00:24 4,4 °C 79 % 1007,6 hPa 0,0 mm 2,3 km/h (1 Bft) W-SW 249 ° 0 min 0,000 mm 0,0 UV-I 0 W/m² 1,1 °C 4,4 °C 3,2 km/h (1 Bft)
10.03.2018 00:25 4,4 °C 79 % 1007,7 hPa 0,0 mm 1,1 km/h (1 Bft) W-SW 249 ° 0 min 0,000 mm 0,0 UV-I 0 W/m² 1,1 °C 4,4 °C 3,2 km/h (1 Bft)
10.03.2018 00:26 4,5 °C 79 % 1007,6 hPa 0,0 mm 0,0 km/h (0 Bft) W-SW 249 ° 0 min 0,000 mm 0,0 UV-I 0 W/m² 1,2 °C 4,5 °C 0,0 km/h (0 Bft)
10.03.2018 00:27 4,5 °C 78 % 1007,6 hPa 0,0 mm 0,0 km/h (0 Bft) W-SW 249 ° 0 min 0,000 mm 0,0 UV-I 0 W/m² 1,0 °C 4,5 °C 0,0 km/h (0 Bft)
10.03.2018 00:28 4,5 °C 78 % 1007,6 hPa 0,0 mm 0,8 km/h (0 Bft) W-SW 249 ° 0 min 0,000 mm 0,0 UV-I 0 W/m² 1,0 °C 4,5 °C 3,2 km/h (1 Bft)
10.03.2018 00:29 4,5 °C 79 % 1007,6 hPa 0,0 mm 0,4 km/h (0 Bft) W-SW 249 ° 0 min 0,000 mm 0,0 UV-I 0 W/m² 1,2 °C 4,5 °C 1,6 km/h (1 Bft)
10.03.2018 00:30 4,5 °C 79 % 1007,6 hPa 0,0 mm 1,5 km/h (1 Bft) W-SW 249 ° 0 min 0,000 mm 0,0 UV-I 0 W/m² 1,2 °C 4,5 °C 3,2 km/h (1 Bft)
10.03.2018 00:31 4,5 °C 79 % 1007,6 hPa 0,0 mm 3,4 km/h (1 Bft) SW 233 ° 0 min 0,000 mm 0,0 UV-I 0 W/m² 1,2 °C 4,5 °C 4,8 km/h (1 Bft)
10.03.2018 00:32 4,6 °C 79 % 1007,6 hPa 0,0 mm 0,8 km/h (0 Bft) SW 233 ° 0 min 0,000 mm 0,0 UV-I 0 W/m² 1,3 °C 4,6 °C 1,6 km/h (1 Bft)
10.03.2018 00:33 4,6 °C 79 % 1007,7 hPa 0,0 mm 1,6 km/h (1 Bft) SW 233 ° 0 min 0,000 mm 0,0 UV-I 0 W/m² 1,3 °C 4,6 °C 3,2 km/h (1 Bft)
10.03.2018 00:34 4,6 °C 79 % 1007,6 hPa 0,0 mm 3,4 km/h (1 Bft) SW 229 ° 0 min 0,000 mm 0,0 UV-I 0 W/m² 1,3 °C 4,6 °C 4,8 km/h (1 Bft)
10.03.2018 00:35 4,6 °C 79 % 1007,6 hPa 0,0 mm 0,9 km/h (0 Bft) SW 229 ° 0 min 0,000 mm 0,0 UV-I 0 W/m² 1,3 °C 4,6 °C 3,2 km/h (1 Bft)
10.03.2018 00:36 4,6 °C 79 % 1007,7 hPa 0,0 mm 0,0 km/h (0 Bft) SW 229 ° 0 min 0,000 mm 0,0 UV-I 0 W/m² 1,3 °C 4,6 °C 0,0 km/h (0 Bft)
10.03.2018 00:37 4,7 °C 79 % 1007,7 hPa 0,0 mm 0,0 km/h (0 Bft) SW 229 ° 0 min 0,000 mm 0,0 UV-I 0 W/m² 1,4 °C 4,7 °C 0,0 km/h (0 Bft)
10.03.2018 00:38 4,7 °C 78 % 1007,6 hPa 0,0 mm 0,6 km/h (0 Bft) SW 229 ° 0 min 0,000 mm 0,0 UV-I 0 W/m² 1,2 °C 4,7 °C 3,2 km/h (1 Bft)
10.03.2018 00:39 4,8 °C 78 % 1007,6 hPa 0,0 mm 0,0 km/h (0 Bft) SW 229 ° 0 min 0,000 mm 0,0 UV-I 0 W/m² 1,3 °C 4,8 °C 0,0 km/h (0 Bft)
10.03.2018 00:40 4,8 °C 77 % 1007,7 hPa 0,0 mm 0,0 km/h (0 Bft) SW 229 ° 0 min 0,000 mm 0,0 UV-I 0 W/m² 1,1 °C 4,8 °C 0,0 km/h (0 Bft)
10.03.2018 00:41 4,9 °C 77 % 1007,6 hPa 0,0 mm 0,5 km/h (0 Bft) SW 229 ° 0 min 0,000 mm 0,0 UV-I 0 W/m² 1,2 °C 4,9 °C 1,6 km/h (1 Bft)
10.03.2018 00:42 4,9 °C 77 % 1007,7 hPa 0,0 mm 0,0 km/h (0 Bft) SW 229 ° 0 min 0,000 mm 0,0 UV-I 0 W/m² 1,2 °C 4,9 °C 0,0 km/h (0 Bft)
10.03.2018 00:43 5,1 °C 77 % 1007,7 hPa 0,0 mm 0,0 km/h (0 Bft) SW 229 ° 0 min 0,000 mm 0,0 UV-I 0 W/m² 1,4 °C 5,1 °C 0,0 km/h (0 Bft)
10.03.2018 00:44 5,1 °C 76 % 1007,6 hPa 0,0 mm 0,0 km/h (0 Bft) SW 229 ° 0 min 0,000 mm 0,0 UV-I 0 W/m² 1,2 °C 5,1 °C 0,0 km/h (0 Bft)
10.03.2018 00:45 5,1 °C 76 % 1007,7 hPa 0,0 mm 0,0 km/h (0 Bft) SW 229 ° 0 min 0,000 mm 0,0 UV-I 0 W/m² 1,2 °C 5,1 °C 0,0 km/h (0 Bft)
10.03.2018 00:46 5,1 °C 76 % 1007,7 hPa 0,0 mm 0,0 km/h (0 Bft) SW 229 ° 0 min 0,000 mm 0,0 UV-I 0 W/m² 1,2 °C 5,1 °C 0,0 km/h (0 Bft)
10.03.2018 00:47 5,1 °C 76 % 1007,6 hPa 0,0 mm 2,9 km/h (1 Bft) SW 229 ° 0 min 0,000 mm 0,0 UV-I 0 W/m² 1,2 °C 5,1 °C 6,4 km/h (2 Bft)
10.03.2018 00:48 5,1 °C 76 % 1007,7 hPa 0,0 mm 3,5 km/h (1 Bft) SW 229 ° 0 min 0,000 mm 0,0 UV-I 0 W/m² 1,2 °C 5,1 °C 4,8 km/h (1 Bft)
10.03.2018 00:49 5,0 °C 76 % 1007,7 hPa 0,0 mm 2,5 km/h (1 Bft) SW 229 ° 0 min 0,000 mm 0,0 UV-I 0 W/m² 1,1 °C 5,0 °C 4,8 km/h (1 Bft)
10.03.2018 00:50 4,9 °C 77 % 1007,7 hPa 0,0 mm 3,0 km/h (1 Bft) SW 229 ° 0 min 0,000 mm 0,0 UV-I 0 W/m² 1,2 °C 4,9 °C 3,2 km/h (1 Bft)
10.03.2018 00:51 4,9 °C 77 % 1007,7 hPa 0,0 mm 3,4 km/h (1 Bft) SW 229 ° 0 min 0,000 mm 0,0 UV-I 0 W/m² 1,2 °C 4,9 °C 4,8 km/h (1 Bft)
10.03.2018 00:52 4,9 °C 77 % 1007,7 hPa 0,0 mm 3,8 km/h (1 Bft) SW 229 ° 0 min 0,000 mm 0,0 UV-I 0 W/m² 1,2 °C 4,9 °C 4,8 km/h (1 Bft)
10.03.2018 00:53 4,9 °C 77 % 1007,7 hPa 0,0 mm 1,6 km/h (1 Bft) SW 229 ° 0 min 0,000 mm 0,0 UV-I 0 W/m² 1,2 °C 4,9 °C 3,2 km/h (1 Bft)
10.03.2018 00:54 4,8 °C 76 % 1007,7 hPa 0,0 mm 3,1 km/h (1 Bft) SW 229 ° 0 min 0,000 mm 0,0 UV-I 0 W/m² 0,9 °C 4,8 °C 4,8 km/h (1 Bft)
10.03.2018 00:55 4,8 °C 77 % 1007,7 hPa 0,0 mm 1,4 km/h (1 Bft) SW 229 ° 0 min 0,000 mm 0,0 UV-I 0 W/m² 1,1 °C 4,8 °C 3,2 km/h (1 Bft)
10.03.2018 00:56 4,8 °C 77 % 1007,7 hPa 0,0 mm 3,6 km/h (1 Bft) SW 229 ° 0 min 0,000 mm 0,0 UV-I 0 W/m² 1,1 °C 4,8 °C 6,4 km/h (2 Bft)
10.03.2018 00:57 4,8 °C 77 % 1007,7 hPa 0,0 mm 4,3 km/h (1 Bft) SW 218 ° 0 min 0,000 mm 0,0 UV-I 0 W/m² 1,1 °C 4,8 °C 6,4 km/h (2 Bft)
10.03.2018 00:58 4,8 °C 77 % 1007,8 hPa 0,0 mm 3,0 km/h (1 Bft) SW 218 ° 0 min 0,000 mm 0,0 UV-I 0 W/m² 1,1 °C 4,8 °C 4,8 km/h (1 Bft)
10.03.2018 00:59 4,9 °C 77 % 1007,8 hPa 0,0 mm 5,2 km/h (1 Bft) S 188 ° 0 min 0,000 mm 0,0 UV-I 0 W/m² 1,2 °C 3,9 °C 8,0 km/h (2 Bft)
10.03.2018 01:00 4,9 °C 77 % 1007,8 hPa 0,0 mm 1,5 km/h (1 Bft) S 188 ° 0 min 0,025 mm 0,0 UV-I 0 W/m² 1,2 °C 4,9 °C 4,8 km/h (1 Bft)
10.03.2018 01:01 4,9 °C 76 % 1007,7 hPa 0,0 mm 0,0 km/h (0 Bft) S 188 ° 0 min 0,000 mm 0,0 UV-I 0 W/m² 1,0 °C 4,9 °C 0,0 km/h (0 Bft)
10.03.2018 01:02 4,9 °C 76 % 1007,7 hPa 0,0 mm 0,0 km/h (0 Bft) S 188 ° 0 min 0,000 mm 0,0 UV-I 0 W/m² 1,0 °C 4,9 °C 0,0 km/h (0 Bft)
10.03.2018 01:03 4,9 °C 76 % 1007,8 hPa 0,0 mm 0,0 km/h (0 Bft) S 188 ° 0 min 0,000 mm 0,0 UV-I 0 W/m² 1,0 °C 4,9 °C 0,0 km/h (0 Bft)
10.03.2018 01:04 4,8 °C 76 % 1007,7 hPa 0,0 mm 0,0 km/h (0 Bft) S 188 ° 0 min 0,000 mm 0,0 UV-I 0 W/m² 0,9 °C 4,8 °C 0,0 km/h (0 Bft)
10.03.2018 01:05 4,8 °C 77 % 1007,7 hPa 0,0 mm 0,0 km/h (0 Bft) S 188 ° 0 min 0,000 mm 0,0 UV-I 0 W/m² 1,1 °C 4,8 °C 0,0 km/h (0 Bft)
10.03.2018 01:06 4,7 °C 77 % 1007,7 hPa 0,0 mm 0,0 km/h (0 Bft) S 188 ° 0 min 0,000 mm 0,0 UV-I 0 W/m² 1,0 °C 4,7 °C 0,0 km/h (0 Bft)
10.03.2018 01:07 4,7 °C 77 % 1007,7 hPa 0,0 mm 0,0 km/h (0 Bft) S 188 ° 0 min 0,000 mm 0,0 UV-I 0 W/m² 1,0 °C 4,7 °C 0,0 km/h (0 Bft)
10.03.2018 01:08 4,6 °C 77 % 1007,7 hPa 0,0 mm 0,0 km/h (0 Bft) S 188 ° 0 min 0,000 mm 0,0 UV-I 0 W/m² 0,9 °C 4,6 °C 0,0 km/h (0 Bft)
10.03.2018 01:09 4,6 °C 77 % 1007,7 hPa 0,0 mm 0,0 km/h (0 Bft) S 188 ° 0 min 0,000 mm 0,0 UV-I 0 W/m² 0,9 °C 4,6 °C 0,0 km/h (0 Bft)
10.03.2018 01:10 4,6 °C 77 % 1007,7 hPa 0,0 mm 0,0 km/h (0 Bft) S 188 ° 0 min 0,000 mm 0,0 UV-I 0 W/m² 0,9 °C 4,6 °C 0,0 km/h (0 Bft)
10.03.2018 01:11 4,7 °C 77 % 1007,7 hPa 0,0 mm 0,0 km/h (0 Bft) S 188 ° 0 min 0,000 mm 0,0 UV-I 0 W/m² 1,0 °C 4,7 °C 0,0 km/h (0 Bft)
10.03.2018 01:12 4,7 °C 77 % 1007,7 hPa 0,0 mm 0,0 km/h (0 Bft) S 188 ° 0 min 0,000 mm 0,0 UV-I 0 W/m² 1,0 °C 4,7 °C 0,0 km/h (0 Bft)
10.03.2018 01:13 4,7 °C 77 % 1007,7 hPa 0,0 mm 0,0 km/h (0 Bft) S 188 ° 0 min 0,000 mm 0,0 UV-I 0 W/m² 1,0 °C 4,7 °C 0,0 km/h (0 Bft)
10.03.2018 01:14 4,6 °C 77 % 1007,7 hPa 0,0 mm 0,0 km/h (0 Bft) S 188 ° 0 min 0,000 mm 0,0 UV-I 0 W/m² 0,9 °C 4,6 °C 0,0 km/h (0 Bft)
10.03.2018 01:15 4,4 °C 78 % 1007,7 hPa 0,0 mm 0,0 km/h (0 Bft) S 188 ° 0 min 0,000 mm 0,0 UV-I 0 W/m² 0,9 °C 4,4 °C 0,0 km/h (0 Bft)
10.03.2018 01:16 4,3 °C 78 % 1007,8 hPa 0,0 mm 0,0 km/h (0 Bft) S 188 ° 0 min 0,000 mm 0,0 UV-I 0 W/m² 0,8 °C 4,3 °C 0,0 km/h (0 Bft)
10.03.2018 01:17 4,3 °C 78 % 1007,8 hPa 0,0 mm 0,0 km/h (0 Bft) S 188 ° 0 min 0,000 mm 0,0 UV-I 0 W/m² 0,8 °C 4,3 °C 0,0 km/h (0 Bft)
10.03.2018 01:18 4,4 °C 78 % 1007,7 hPa 0,0 mm 1,4 km/h (1 Bft) S-SW 211 ° 0 min 0,000 mm 0,0 UV-I 0 W/m² 0,9 °C 4,4 °C 4,8 km/h (1 Bft)
10.03.2018 01:19 4,5 °C 78 % 1007,7 hPa 0,0 mm 0,4 km/h (0 Bft) S-SW 211 ° 0 min 0,000 mm 0,0 UV-I 0 W/m² 1,0 °C 4,5 °C 3,2 km/h (1 Bft)
10.03.2018 01:20 4,5 °C 77 % 1007,7 hPa 0,0 mm 0,0 km/h (0 Bft) S-SW 211 ° 0 min 0,000 mm 0,0 UV-I 0 W/m² 0,8 °C 4,5 °C 0,0 km/h (0 Bft)
10.03.2018 01:21 4,6 °C 77 % 1007,8 hPa 0,0 mm 0,0 km/h (0 Bft) S-SW 211 ° 0 min 0,000 mm 0,0 UV-I 0 W/m² 0,9 °C 4,6 °C 0,0 km/h (0 Bft)
10.03.2018 01:22 4,4 °C 77 % 1007,8 hPa 0,0 mm 0,0 km/h (0 Bft) S-SW 211 ° 0 min 0,000 mm 0,0 UV-I 0 W/m² 0,7 °C 4,4 °C 0,0 km/h (0 Bft)
10.03.2018 01:23 4,3 °C 78 % 1007,8 hPa 0,0 mm 0,0 km/h (0 Bft) S-SW 211 ° 0 min 0,000 mm 0,0 UV-I 0 W/m² 0,8 °C 4,3 °C 0,0 km/h (0 Bft)
10.03.2018 01:24 4,2 °C 78 % 1007,6 hPa 0,0 mm 0,0 km/h (0 Bft) S-SW 211 ° 0 min 0,000 mm 0,0 UV-I 0 W/m² 0,7 °C 4,2 °C 0,0 km/h (0 Bft)
10.03.2018 01:25 4,1 °C 79 % 1007,6 hPa 0,0 mm 0,0 km/h (0 Bft) S-SW 211 ° 0 min 0,000 mm 0,0 UV-I 0 W/m² 0,8 °C 4,1 °C 0,0 km/h (0 Bft)
10.03.2018 01:26 4,0 °C 80 % 1007,7 hPa 0,0 mm 0,0 km/h (0 Bft) S-SW 211 ° 0 min 0,000 mm 0,0 UV-I 0 W/m² 0,9 °C 4,0 °C 0,0 km/h (0 Bft)
10.03.2018 01:27 4,0 °C 80 % 1007,7 hPa 0,0 mm 0,0 km/h (0 Bft) S-SW 211 ° 0 min 0,000 mm 0,0 UV-I 0 W/m² 0,9 °C 4,0 °C 0,0 km/h (0 Bft)
10.03.2018 01:28 3,9 °C 79 % 1007,7 hPa 0,0 mm 0,0 km/h (0 Bft) S-SW 211 ° 0 min 0,000 mm 0,0 UV-I 0 W/m² 0,6 °C 3,9 °C 0,0 km/h (0 Bft)
10.03.2018 01:29 3,9 °C 79 % 1007,7 hPa 0,0 mm 0,0 km/h (0 Bft) S-SW 211 ° 0 min 0,000 mm 0,0 UV-I 0 W/m² 0,6 °C 3,9 °C 0,0 km/h (0 Bft)
10.03.2018 01:30 3,9 °C 80 % 1007,6 hPa 0,0 mm 0,0 km/h (0 Bft) S-SW 211 ° 0 min 0,000 mm 0,0 UV-I 0 W/m² 0,8 °C 3,9 °C 0,0 km/h (0 Bft)
10.03.2018 01:31 3,9 °C 80 % 1007,6 hPa 0,0 mm 0,0 km/h (0 Bft) S-SW 211 ° 0 min 0,000 mm 0,0 UV-I 0 W/m² 0,8 °C 3,9 °C 0,0 km/h (0 Bft)
10.03.2018 01:32 3,8 °C 79 % 1007,6 hPa 0,0 mm 0,3 km/h (0 Bft) S-SW 211 ° 0 min 0,000 mm 0,0 UV-I 0 W/m² 0,5 °C 3,8 °C 1,6 km/h (1 Bft)
10.03.2018 01:33 3,8 °C 80 % 1007,6 hPa 0,0 mm 1,8 km/h (1 Bft) S-SW 211 ° 0 min 0,000 mm 0,0 UV-I 0 W/m² 0,7 °C 3,8 °C 3,2 km/h (1 Bft)
10.03.2018 01:34 3,8 °C 80 % 1007,6 hPa 0,0 mm 0,3 km/h (0 Bft) S-SW 211 ° 0 min 0,000 mm 0,0 UV-I 0 W/m² 0,7 °C 3,8 °C 1,6 km/h (1 Bft)
10.03.2018 01:35 3,9 °C 80 % 1007,7 hPa 0,0 mm 0,0 km/h (0 Bft) S-SW 211 ° 0 min 0,000 mm 0,0 UV-I 0 W/m² 0,8 °C 3,9 °C 0,0 km/h (0 Bft)
10.03.2018 01:36 3,8 °C 80 % 1007,6 hPa 0,0 mm 0,0 km/h (0 Bft) S-SW 211 ° 0 min 0,000 mm 0,0 UV-I 0 W/m² 0,7 °C 3,8 °C 0,0 km/h (0 Bft)
10.03.2018 01:37 3,8 °C 80 % 1007,6 hPa 0,0 mm 0,0 km/h (0 Bft) S-SW 211 ° 0 min 0,000 mm 0,0 UV-I 0 W/m² 0,7 °C 3,8 °C 0,0 km/h (0 Bft)
10.03.2018 01:38 3,8 °C 80 % 1007,7 hPa 0,0 mm 0,0 km/h (0 Bft) S-SW 211 ° 0 min 0,000 mm 0,0 UV-I 0 W/m² 0,7 °C 3,8 °C 0,0 km/h (0 Bft)
10.03.2018 01:39 3,8 °C 80 % 1007,7 hPa 0,0 mm 0,0 km/h (0 Bft) S-SW 211 ° 0 min 0,000 mm 0,0 UV-I 0 W/m² 0,7 °C 3,8 °C 0,0 km/h (0 Bft)
10.03.2018 01:40 3,9 °C 80 % 1007,6 hPa 0,0 mm 0,0 km/h (0 Bft) S-SW 211 ° 0 min 0,000 mm 0,0 UV-I 0 W/m² 0,8 °C 3,9 °C 0,0 km/h (0 Bft)
10.03.2018 01:41 3,8 °C 80 % 1007,6 hPa 0,0 mm 0,0 km/h (0 Bft) S-SW 211 ° 0 min 0,000 mm 0,0 UV-I 0 W/m² 0,7 °C 3,8 °C 0,0 km/h (0 Bft)
10.03.2018 01:42 3,8 °C 80 % 1007,7 hPa 0,0 mm 0,0 km/h (0 Bft) S-SW 211 ° 0 min 0,000 mm 0,0 UV-I 0 W/m² 0,7 °C 3,8 °C 0,0 km/h (0 Bft)
10.03.2018 01:43 3,8 °C 80 % 1007,7 hPa 0,0 mm 0,0 km/h (0 Bft) S-SW 211 ° 0 min 0,000 mm 0,0 UV-I 0 W/m² 0,7 °C 3,8 °C 0,0 km/h (0 Bft)
10.03.2018 01:44 3,7 °C 80 % 1007,6 hPa 0,0 mm 0,0 km/h (0 Bft) S-SW 211 ° 0 min 0,000 mm 0,0 UV-I 0 W/m² 0,6 °C 3,7 °C 0,0 km/h (0 Bft)
10.03.2018 01:45 3,8 °C 80 % 1007,6 hPa 0,0 mm 0,0 km/h (0 Bft) S-SW 211 ° 0 min 0,000 mm 0,0 UV-I 0 W/m² 0,7 °C 3,8 °C 0,0 km/h (0 Bft)
10.03.2018 01:46 3,8 °C 80 % 1007,6 hPa 0,0 mm 0,0 km/h (0 Bft) S-SW 211 ° 0 min 0,000 mm 0,0 UV-I 0 W/m² 0,7 °C 3,8 °C 0,0 km/h (0 Bft)
10.03.2018 01:47 3,9 °C 80 % 1007,6 hPa 0,0 mm 0,0 km/h (0 Bft) S-SW 211 ° 0 min 0,000 mm 0,0 UV-I 0 W/m² 0,8 °C 3,9 °C 0,0 km/h (0 Bft)
10.03.2018 01:48 3,9 °C 80 % 1007,6 hPa 0,0 mm 0,0 km/h (0 Bft) S-SW 211 ° 0 min 0,000 mm 0,0 UV-I 0 W/m² 0,8 °C 3,9 °C 0,0 km/h (0 Bft)
10.03.2018 01:49 3,8 °C 79 % 1007,6 hPa 0,0 mm 0,0 km/h (0 Bft) S-SW 211 ° 0 min 0,000 mm 0,0 UV-I 0 W/m² 0,5 °C 3,8 °C 0,0 km/h (0 Bft)
10.03.2018 01:50 3,7 °C 80 % 1007,6 hPa 0,0 mm 0,0 km/h (0 Bft) S-SW 211 ° 0 min 0,000 mm 0,0 UV-I 0 W/m² 0,6 °C 3,7 °C 0,0 km/h (0 Bft)
10.03.2018 01:51 3,6 °C 80 % 1007,6 hPa 0,0 mm 0,0 km/h (0 Bft) S-SW 211 ° 0 min 0,000 mm 0,0 UV-I 0 W/m² 0,5 °C 3,6 °C 0,0 km/h (0 Bft)
10.03.2018 01:52 3,5 °C 81 % 1007,6 hPa 0,0 mm 0,0 km/h (0 Bft) S-SW 211 ° 0 min 0,000 mm 0,0 UV-I 0 W/m² 0,6 °C 3,5 °C 0,0 km/h (0 Bft)
10.03.2018 01:53 3,4 °C 81 % 1007,6 hPa 0,0 mm 0,0 km/h (0 Bft) S-SW 211 ° 0 min 0,000 mm 0,0 UV-I 0 W/m² 0,5 °C 3,4 °C 0,0 km/h (0 Bft)
10.03.2018 01:54 3,3 °C 82 % 1007,6 hPa 0,0 mm 0,0 km/h (0 Bft) S-SW 211 ° 0 min 0,000 mm 0,0 UV-I 0 W/m² 0,5 °C 3,3 °C 0,0 km/h (0 Bft)
10.03.2018 01:55 3,3 °C 82 % 1007,6 hPa 0,0 mm 0,0 km/h (0 Bft) S-SW 211 ° 0 min 0,000 mm 0,0 UV-I 0 W/m² 0,5 °C 3,3 °C 0,0 km/h (0 Bft)
10.03.2018 01:56 3,2 °C 82 % 1007,6 hPa 0,0 mm 0,0 km/h (0 Bft) S-SW 211 ° 0 min 0,000 mm 0,0 UV-I 0 W/m² 0,4 °C 3,2 °C 0,0 km/h (0 Bft)
10.03.2018 01:57 3,2 °C 82 % 1007,6 hPa 0,0 mm 0,0 km/h (0 Bft) S-SW 211 ° 0 min 0,000 mm 0,0 UV-I 0 W/m² 0,4 °C 3,2 °C 0,0 km/h (0 Bft)
10.03.2018 01:58 3,2 °C 82 % 1007,6 hPa 0,0 mm 0,0 km/h (0 Bft) S-SW 211 ° 0 min 0,000 mm 0,0 UV-I 0 W/m² 0,4 °C 3,2 °C 0,0 km/h (0 Bft)
10.03.2018 01:59 3,3 °C 82 % 1007,6 hPa 0,0 mm 0,0 km/h (0 Bft) S-SW 211 ° 0 min 0,000 mm 0,0 UV-I 0 W/m² 0,5 °C 3,3 °C 0,0 km/h (0 Bft)
10.03.2018 02:00 3,3 °C 82 % 1007,7 hPa 0,0 mm 0,0 km/h (0 Bft) S-SW 211 ° 0 min 0,000 mm 0,0 UV-I 0 W/m² 0,5 °C 3,3 °C 0,0 km/h (0 Bft)
10.03.2018 02:01 3,4 °C 82 % 1007,7 hPa 0,0 mm 0,0 km/h (0 Bft) S-SW 211 ° 0 min 0,000 mm 0,0 UV-I 0 W/m² 0,6 °C 3,4 °C 0,0 km/h (0 Bft)
10.03.2018 02:02 3,4 °C 82 % 1007,6 hPa 0,0 mm 0,0 km/h (0 Bft) S-SW 211 ° 0 min 0,000 mm 0,0 UV-I 0 W/m² 0,6 °C 3,4 °C 0,0 km/h (0 Bft)
10.03.2018 02:03 3,5 °C 82 % 1007,6 hPa 0,0 mm 0,0 km/h (0 Bft) S-SW 211 ° 0 min 0,000 mm 0,0 UV-I 0 W/m² 0,7 °C 3,5 °C 0,0 km/h (0 Bft)
10.03.2018 02:04 3,5 °C 81 % 1007,6 hPa 0,0 mm 0,0 km/h (0 Bft) S-SW 211 ° 0 min 0,000 mm 0,0 UV-I 0 W/m² 0,6 °C 3,5 °C 0,0 km/h (0 Bft)
10.03.2018 02:05 3,4 °C 81 % 1007,6 hPa 0,0 mm 0,0 km/h (0 Bft) S-SW 211 ° 0 min 0,000 mm 0,0 UV-I 0 W/m² 0,5 °C 3,4 °C 0,0 km/h (0 Bft)
10.03.2018 02:06 3,3 °C 81 % 1007,5 hPa 0,0 mm 0,0 km/h (0 Bft) S-SW 211 ° 0 min 0,000 mm 0,0 UV-I 0 W/m² 0,4 °C 3,3 °C 0,0 km/h (0 Bft)
10.03.2018 02:07 3,3 °C 82 % 1007,5 hPa 0,0 mm 0,0 km/h (0 Bft) S-SW 211 ° 0 min 0,000 mm 0,0 UV-I 0 W/m² 0,5 °C 3,3 °C 0,0 km/h (0 Bft)
10.03.2018 02:08 3,2 °C 82 % 1007,4 hPa 0,0 mm 0,0 km/h (0 Bft) S-SW 211 ° 0 min 0,000 mm 0,0 UV-I 0 W/m² 0,4 °C 3,2 °C 0,0 km/h (0 Bft)
10.03.2018 02:09 3,2 °C 82 % 1007,3 hPa 0,0 mm 0,0 km/h (0 Bft) S-SW 211 ° 0 min 0,000 mm 0,0 UV-I 0 W/m² 0,4 °C 3,2 °C 0,0 km/h (0 Bft)
10.03.2018 02:10 3,2 °C 82 % 1007,3 hPa 0,0 mm 0,0 km/h (0 Bft) S-SW 211 ° 0 min 0,000 mm 0,0 UV-I 0 W/m² 0,4 °C 3,2 °C 0,0 km/h (0 Bft)
10.03.2018 02:11 3,2 °C 83 % 1007,3 hPa 0,0 mm 0,0 km/h (0 Bft) S-SW 211 ° 0 min 0,000 mm 0,0 UV-I 0 W/m² 0,6 °C 3,2 °C 0,0 km/h (0 Bft)
10.03.2018 02:12 3,2 °C 83 % 1007,3 hPa 0,0 mm 0,0 km/h (0 Bft) S-SW 211 ° 0 min 0,000 mm 0,0 UV-I 0 W/m² 0,6 °C 3,2 °C 0,0 km/h (0 Bft)
10.03.2018 02:13 3,2 °C 83 % 1007,2 hPa 0,0 mm 0,0 km/h (0 Bft) S-SW 211 ° 0 min 0,000 mm 0,0 UV-I 0 W/m² 0,6 °C 3,2 °C 0,0 km/h (0 Bft)
10.03.2018 02:14 3,2 °C 83 % 1007,2 hPa 0,0 mm 0,6 km/h (0 Bft) NW 306 ° 0 min 0,000 mm 0,0 UV-I 0 W/m² 0,6 °C 3,2 °C 3,2 km/h (1 Bft)
10.03.2018 02:15 3,2 °C 82 % 1007,2 hPa 0,0 mm 0,0 km/h (0 Bft) NW 306 ° 0 min 0,000 mm 0,0 UV-I 0 W/m² 0,4 °C 3,2 °C 0,0 km/h (0 Bft)
10.03.2018 02:16 3,2 °C 82 % 1007,1 hPa 0,0 mm 0,0 km/h (0 Bft) NW 306 ° 0 min 0,000 mm 0,0 UV-I 0 W/m² 0,4 °C 3,2 °C 0,0 km/h (0 Bft)
10.03.2018 02:17 3,2 °C 83 % 1007,1 hPa 0,0 mm 0,2 km/h (0 Bft) NW 306 ° 0 min 0,000 mm 0,0 UV-I 0 W/m² 0,6 °C 3,2 °C 1,6 km/h (1 Bft)
10.03.2018 02:18 3,1 °C 83 % 1007,2 hPa 0,0 mm 0,0 km/h (0 Bft) NW 306 ° 0 min 0,000 mm 0,0 UV-I 0 W/m² 0,5 °C 3,1 °C 0,0 km/h (0 Bft)
10.03.2018 02:19 3,1 °C 83 % 1007,1 hPa 0,0 mm 0,0 km/h (0 Bft) NW 306 ° 0 min 0,000 mm 0,0 UV-I 0 W/m² 0,5 °C 3,1 °C 0,0 km/h (0 Bft)
10.03.2018 02:20 3,1 °C 83 % 1007,1 hPa 0,0 mm 0,0 km/h (0 Bft) NW 306 ° 0 min 0,000 mm 0,0 UV-I 0 W/m² 0,5 °C 3,1 °C 0,0 km/h (0 Bft)
10.03.2018 02:21 3,1 °C 83 % 1007,1 hPa 0,0 mm 0,0 km/h (0 Bft) NW 306 ° 0 min 0,000 mm 0,0 UV-I 0 W/m² 0,5 °C 3,1 °C 0,0 km/h (0 Bft)
10.03.2018 02:22 3,0 °C 83 % 1007,0 hPa 0,0 mm 0,0 km/h (0 Bft) NW 306 ° 0 min 0,000 mm 0,0 UV-I 0 W/m² 0,4 °C 3,0 °C 0,0 km/h (0 Bft)
10.03.2018 02:23 3,0 °C 83 % 1007,0 hPa 0,0 mm 0,0 km/h (0 Bft) NW 306 ° 0 min 0,000 mm 0,0 UV-I 0 W/m² 0,4 °C 3,0 °C 0,0 km/h (0 Bft)
10.03.2018 02:24 3,0 °C 83 % 1006,9 hPa 0,0 mm 0,0 km/h (0 Bft) NW 306 ° 0 min 0,000 mm 0,0 UV-I 0 W/m² 0,4 °C 3,0 °C 0,0 km/h (0 Bft)
10.03.2018 02:25 3,1 °C 83 % 1006,9 hPa 0,0 mm 0,0 km/h (0 Bft) NW 306 ° 0 min 0,000 mm 0,0 UV-I 0 W/m² 0,5 °C 3,1 °C 0,0 km/h (0 Bft)
10.03.2018 02:26 3,1 °C 83 % 1006,9 hPa 0,0 mm 0,0 km/h (0 Bft) NW 306 ° 0 min 0,000 mm 0,0 UV-I 0 W/m² 0,5 °C 3,1 °C 0,0 km/h (0 Bft)
10.03.2018 02:27 3,2 °C 83 % 1007,0 hPa 0,0 mm 1,0 km/h (0 Bft) NW 306 ° 0 min 0,000 mm 0,0 UV-I 0 W/m² 0,6 °C 3,2 °C 3,2 km/h (1 Bft)
10.03.2018 02:28 3,3 °C 83 % 1007,0 hPa 0,0 mm 0,2 km/h (0 Bft) NW 306 ° 0 min 0,000 mm 0,0 UV-I 0 W/m² 0,7 °C 3,3 °C 1,6 km/h (1 Bft)
10.03.2018 02:29 3,3 °C 82 % 1007,0 hPa 0,0 mm 0,0 km/h (0 Bft) NW 306 ° 0 min 0,000 mm 0,0 UV-I 0 W/m² 0,5 °C 3,3 °C 0,0 km/h (0 Bft)
10.03.2018 02:30 3,4 °C 82 % 1007,0 hPa 0,0 mm 0,0 km/h (0 Bft) NW 306 ° 0 min 0,000 mm 0,0 UV-I 0 W/m² 0,6 °C 3,4 °C 0,0 km/h (0 Bft)
10.03.2018 02:31 3,6 °C 81 % 1007,1 hPa 0,0 mm 0,0 km/h (0 Bft) NW 306 ° 0 min 0,000 mm 0,0 UV-I 0 W/m² 0,7 °C 3,6 °C 0,0 km/h (0 Bft)
10.03.2018 02:32 3,7 °C 81 % 1007,1 hPa 0,0 mm 0,0 km/h (0 Bft) NW 306 ° 0 min 0,000 mm 0,0 UV-I 0 W/m² 0,7 °C 3,7 °C 0,0 km/h (0 Bft)
10.03.2018 02:33 3,9 °C 80 % 1007,2 hPa 0,0 mm 0,0 km/h (0 Bft) NW 306 ° 0 min 0,000 mm 0,0 UV-I 0 W/m² 0,8 °C 3,9 °C 0,0 km/h (0 Bft)
10.03.2018 02:34 4,0 °C 80 % 1007,2 hPa 0,0 mm 0,0 km/h (0 Bft) NW 306 ° 0 min 0,000 mm 0,0 UV-I 0 W/m² 0,9 °C 4,0 °C 0,0 km/h (0 Bft)
10.03.2018 02:35 4,0 °C 79 % 1007,2 hPa 0,0 mm 0,0 km/h (0 Bft) NW 306 ° 0 min 0,000 mm 0,0 UV-I 0 W/m² 0,7 °C 4,0 °C 0,0 km/h (0 Bft)
10.03.2018 02:36 4,0 °C 79 % 1007,3 hPa 0,0 mm 0,0 km/h (0 Bft) NW 306 ° 0 min 0,000 mm 0,0 UV-I 0 W/m² 0,7 °C 4,0 °C 0,0 km/h (0 Bft)
10.03.2018 02:37 3,9 °C 79 % 1007,3 hPa 0,0 mm 0,0 km/h (0 Bft) NW 306 ° 0 min 0,000 mm 0,0 UV-I 0 W/m² 0,6 °C 3,9 °C 0,0 km/h (0 Bft)
10.03.2018 02:38 3,7 °C 79 % 1007,3 hPa 0,0 mm 0,0 km/h (0 Bft) NW 306 ° 0 min 0,000 mm 0,0 UV-I 0 W/m² 0,4 °C 3,7 °C 0,0 km/h (0 Bft)
10.03.2018 02:39 3,6 °C 80 % 1007,3 hPa 0,0 mm 0,9 km/h (0 Bft) SW 236 ° 0 min 0,000 mm 0,0 UV-I 0 W/m² 0,5 °C 3,6 °C 3,2 km/h (1 Bft)
10.03.2018 02:40 3,6 °C 80 % 1007,3 hPa 0,0 mm 1,9 km/h (1 Bft) SW 236 ° 0 min 0,000 mm 0,0 UV-I 0 W/m² 0,5 °C 3,6 °C 3,2 km/h (1 Bft)
10.03.2018 02:41 3,6 °C 81 % 1007,3 hPa 0,0 mm 1,4 km/h (1 Bft) SW 236 ° 0 min 0,000 mm 0,0 UV-I 0 W/m² 0,7 °C 3,6 °C 3,2 km/h (1 Bft)
10.03.2018 02:42 3,6 °C 80 % 1007,4 hPa 0,0 mm 0,0 km/h (0 Bft) SW 236 ° 0 min 0,000 mm 0,0 UV-I 0 W/m² 0,5 °C 3,6 °C 0,0 km/h (0 Bft)
10.03.2018 02:43 3,7 °C 80 % 1007,3 hPa 0,0 mm 0,0 km/h (0 Bft) SW 236 ° 0 min 0,000 mm 0,0 UV-I 0 W/m² 0,6 °C 3,7 °C 0,0 km/h (0 Bft)
10.03.2018 02:44 3,7 °C 80 % 1007,3 hPa 0,0 mm 0,0 km/h (0 Bft) SW 236 ° 0 min 0,000 mm 0,0 UV-I 0 W/m² 0,6 °C 3,7 °C 0,0 km/h (0 Bft)
10.03.2018 02:45 3,6 °C 80 % 1007,3 hPa 0,0 mm 0,0 km/h (0 Bft) SW 236 ° 0 min 0,000 mm 0,0 UV-I 0 W/m² 0,5 °C 3,6 °C 0,0 km/h (0 Bft)
10.03.2018 02:46 3,7 °C 81 % 1007,3 hPa 0,0 mm 0,0 km/h (0 Bft) SW 236 ° 0 min 0,000 mm 0,0 UV-I 0 W/m² 0,7 °C 3,7 °C 0,0 km/h (0 Bft)
10.03.2018 02:47 3,7 °C 80 % 1007,3 hPa 0,0 mm 0,0 km/h (0 Bft) SW 236 ° 0 min 0,000 mm 0,0 UV-I 0 W/m² 0,6 °C 3,7 °C 0,0 km/h (0 Bft)
10.03.2018 02:48 3,7 °C 80 % 1007,4 hPa 0,0 mm 0,0 km/h (0 Bft) SW 236 ° 0 min 0,000 mm 0,0 UV-I 0 W/m² 0,6 °C 3,7 °C 0,0 km/h (0 Bft)
10.03.2018 02:49 3,7 °C 80 % 1007,4 hPa 0,0 mm 0,0 km/h (0 Bft) SW 236 ° 0 min 0,000 mm 0,0 UV-I 0 W/m² 0,6 °C 3,7 °C 0,0 km/h (0 Bft)
10.03.2018 02:50 3,7 °C 80 % 1007,3 hPa 0,0 mm 0,0 km/h (0 Bft) SW 236 ° 0 min 0,000 mm 0,0 UV-I 0 W/m² 0,6 °C 3,7 °C 0,0 km/h (0 Bft)
10.03.2018 02:51 3,6 °C 80 % 1007,3 hPa 0,0 mm 0,0 km/h (0 Bft) SW 236 ° 0 min 0,000 mm 0,0 UV-I 0 W/m² 0,5 °C 3,6 °C 0,0 km/h (0 Bft)
10.03.2018 02:52 3,6 °C 80 % 1007,2 hPa 0,0 mm 0,0 km/h (0 Bft) SW 236 ° 0 min 0,000 mm 0,0 UV-I 0 W/m² 0,5 °C 3,6 °C 0,0 km/h (0 Bft)
10.03.2018 02:53 3,6 °C 81 % 1007,2 hPa 0,0 mm 0,0 km/h (0 Bft) SW 236 ° 0 min 0,000 mm 0,0 UV-I 0 W/m² 0,7 °C 3,6 °C 0,0 km/h (0 Bft)
10.03.2018 02:54 3,6 °C 81 % 1007,2 hPa 0,0 mm 0,0 km/h (0 Bft) SW 236 ° 0 min 0,000 mm 0,0 UV-I 0 W/m² 0,7 °C 3,6 °C 0,0 km/h (0 Bft)
10.03.2018 02:55 3,5 °C 81 % 1007,1 hPa 0,0 mm 0,0 km/h (0 Bft) SW 236 ° 0 min 0,000 mm 0,0 UV-I 0 W/m² 0,6 °C 3,5 °C 0,0 km/h (0 Bft)
10.03.2018 02:56 3,5 °C 81 % 1007,1 hPa 0,0 mm 0,0 km/h (0 Bft) SW 236 ° 0 min 0,000 mm 0,0 UV-I 0 W/m² 0,6 °C 3,5 °C 0,0 km/h (0 Bft)
10.03.2018 02:57 3,4 °C 81 % 1007,1 hPa 0,0 mm 0,0 km/h (0 Bft) SW 236 ° 0 min 0,000 mm 0,0 UV-I 0 W/m² 0,5 °C 3,4 °C 0,0 km/h (0 Bft)
10.03.2018 02:58 3,4 °C 81 % 1007,2 hPa 0,0 mm 0,0 km/h (0 Bft) SW 236 ° 0 min 0,000 mm 0,0 UV-I 0 W/m² 0,5 °C 3,4 °C 0,0 km/h (0 Bft)
10.03.2018 02:59 3,4 °C 81 % 1007,2 hPa 0,0 mm 0,0 km/h (0 Bft) SW 236 ° 0 min 0,000 mm 0,0 UV-I 0 W/m² 0,5 °C 3,4 °C 0,0 km/h (0 Bft)
10.03.2018 03:00 3,5 °C 81 % 1007,2 hPa 0,0 mm 0,0 km/h (0 Bft) SW 236 ° 0 min 0,000 mm 0,0 UV-I 0 W/m² 0,6 °C 3,5 °C 0,0 km/h (0 Bft)
10.03.2018 03:01 3,5 °C 81 % 1007,2 hPa 0,0 mm 0,0 km/h (0 Bft) SW 236 ° 0 min 0,000 mm 0,0 UV-I 0 W/m² 0,6 °C 3,5 °C 0,0 km/h (0 Bft)
10.03.2018 03:02 3,6 °C 80 % 1007,2 hPa 0,0 mm 0,8 km/h (0 Bft) SW 236 ° 0 min 0,000 mm 0,0 UV-I 0 W/m² 0,5 °C 3,6 °C 3,2 km/h (1 Bft)
10.03.2018 03:03 3,6 °C 81 % 1007,2 hPa 0,0 mm 1,6 km/h (1 Bft) SW 236 ° 0 min 0,000 mm 0,0 UV-I 0 W/m² 0,7 °C 3,6 °C 3,2 km/h (1 Bft)
10.03.2018 03:04 3,5 °C 81 % 1007,2 hPa 0,0 mm 0,1 km/h (0 Bft) SW 236 ° 0 min 0,000 mm 0,0 UV-I 0 W/m² 0,6 °C 3,5 °C 1,6 km/h (1 Bft)
10.03.2018 03:05 3,4 °C 81 % 1007,2 hPa 0,0 mm 0,0 km/h (0 Bft) SW 236 ° 0 min 0,000 mm 0,0 UV-I 0 W/m² 0,5 °C 3,4 °C 0,0 km/h (0 Bft)
10.03.2018 03:06 3,4 °C 81 % 1007,1 hPa 0,0 mm 0,0 km/h (0 Bft) SW 236 ° 0 min 0,000 mm 0,0 UV-I 0 W/m² 0,5 °C 3,4 °C 0,0 km/h (0 Bft)
10.03.2018 03:07 3,4 °C 81 % 1007,1 hPa 0,0 mm 0,0 km/h (0 Bft) SW 236 ° 0 min 0,000 mm 0,0 UV-I 0 W/m² 0,5 °C 3,4 °C 0,0 km/h (0 Bft)
10.03.2018 03:08 3,5 °C 81 % 1007,0 hPa 0,0 mm 0,0 km/h (0 Bft) SW 236 ° 0 min 0,000 mm 0,0 UV-I 0 W/m² 0,6 °C 3,5 °C 0,0 km/h (0 Bft)
10.03.2018 03:09 3,5 °C 81 % 1006,9 hPa 0,0 mm 0,0 km/h (0 Bft) SW 236 ° 0 min 0,000 mm 0,0 UV-I 0 W/m² 0,6 °C 3,5 °C 0,0 km/h (0 Bft)
10.03.2018 03:10 3,4 °C 82 % 1007,0 hPa 0,0 mm 0,0 km/h (0 Bft) SW 236 ° 0 min 0,000 mm 0,0 UV-I 0 W/m² 0,6 °C 3,4 °C 0,0 km/h (0 Bft)
10.03.2018 03:11 3,3 °C 82 % 1007,0 hPa 0,0 mm 0,0 km/h (0 Bft) SW 236 ° 0 min 0,000 mm 0,0 UV-I 0 W/m² 0,5 °C 3,3 °C 0,0 km/h (0 Bft)
10.03.2018 03:12 3,3 °C 82 % 1007,0 hPa 0,0 mm 0,0 km/h (0 Bft) SW 236 ° 0 min 0,000 mm 0,0 UV-I 0 W/m² 0,5 °C 3,3 °C 0,0 km/h (0 Bft)
10.03.2018 03:13 3,2 °C 82 % 1007,0 hPa 0,0 mm 0,0 km/h (0 Bft) SW 236 ° 0 min 0,000 mm 0,0 UV-I 0 W/m² 0,4 °C 3,2 °C 0,0 km/h (0 Bft)
10.03.2018 03:14 3,2 °C 82 % 1007,0 hPa 0,0 mm 0,0 km/h (0 Bft) SW 236 ° 0 min 0,000 mm 0,0 UV-I 0 W/m² 0,4 °C 3,2 °C 0,0 km/h (0 Bft)
10.03.2018 03:15 3,2 °C 82 % 1007,1 hPa 0,0 mm 0,0 km/h (0 Bft) SW 236 ° 0 min 0,000 mm 0,0 UV-I 0 W/m² 0,4 °C 3,2 °C 0,0 km/h (0 Bft)
10.03.2018 03:16 3,2 °C 82 % 1007,1 hPa 0,0 mm 0,3 km/h (0 Bft) SW 236 ° 0 min 0,000 mm 0,0 UV-I 0 W/m² 0,4 °C 3,2 °C 1,6 km/h (1 Bft)
10.03.2018 03:17 3,2 °C 82 % 1007,1 hPa 0,0 mm 0,0 km/h (0 Bft) SW 236 ° 0 min 0,000 mm 0,0 UV-I 0 W/m² 0,4 °C 3,2 °C 0,0 km/h (0 Bft)
10.03.2018 03:18 3,3 °C 82 % 1007,1 hPa 0,0 mm 0,0 km/h (0 Bft) SW 236 ° 0 min 0,000 mm 0,0 UV-I 0 W/m² 0,5 °C 3,3 °C 0,0 km/h (0 Bft)
10.03.2018 03:19 3,3 °C 82 % 1007,1 hPa 0,0 mm 0,0 km/h (0 Bft) SW 236 ° 0 min 0,000 mm 0,0 UV-I 0 W/m² 0,5 °C 3,3 °C 0,0 km/h (0 Bft)
10.03.2018 03:20 3,4 °C 82 % 1007,0 hPa 0,0 mm 0,0 km/h (0 Bft) SW 236 ° 0 min 0,000 mm 0,0 UV-I 0 W/m² 0,6 °C 3,4 °C 0,0 km/h (0 Bft)
10.03.2018 03:21 3,4 °C 81 % 1007,0 hPa 0,0 mm 0,0 km/h (0 Bft) SW 236 ° 0 min 0,000 mm 0,0 UV-I 0 W/m² 0,5 °C 3,4 °C 0,0 km/h (0 Bft)
10.03.2018 03:22 3,4 °C 81 % 1007,0 hPa 0,0 mm 0,0 km/h (0 Bft) SW 236 ° 0 min 0,000 mm 0,0 UV-I 0 W/m² 0,5 °C 3,4 °C 0,0 km/h (0 Bft)
10.03.2018 03:23 3,5 °C 81 % 1007,0 hPa 0,0 mm 0,0 km/h (0 Bft) SW 236 ° 0 min 0,000 mm 0,0 UV-I 0 W/m² 0,6 °C 3,5 °C 0,0 km/h (0 Bft)
10.03.2018 03:24 3,5 °C 81 % 1007,0 hPa 0,0 mm 0,0 km/h (0 Bft) SW 236 ° 0 min 0,000 mm 0,0 UV-I 0 W/m² 0,6 °C 3,5 °C 0,0 km/h (0 Bft)
10.03.2018 03:25 3,5 °C 81 % 1007,0 hPa 0,0 mm 0,0 km/h (0 Bft) SW 236 ° 0 min 0,000 mm 0,0 UV-I 0 W/m² 0,6 °C 3,5 °C 0,0 km/h (0 Bft)
10.03.2018 03:26 3,4 °C 81 % 1007,0 hPa 0,0 mm 0,0 km/h (0 Bft) SW 236 ° 0 min 0,000 mm 0,0 UV-I 0 W/m² 0,5 °C 3,4 °C 0,0 km/h (0 Bft)
10.03.2018 03:27 3,4 °C 81 % 1007,0 hPa 0,0 mm 0,0 km/h (0 Bft) SW 236 ° 0 min 0,000 mm 0,0 UV-I 0 W/m² 0,5 °C 3,4 °C 0,0 km/h (0 Bft)
10.03.2018 03:28 3,4 °C 81 % 1007,0 hPa 0,0 mm 0,0 km/h (0 Bft) SW 236 ° 0 min 0,000 mm 0,0 UV-I 0 W/m² 0,5 °C 3,4 °C 0,0 km/h (0 Bft)
10.03.2018 03:29 3,6 °C 81 % 1007,0 hPa 0,0 mm 0,0 km/h (0 Bft) SW 236 ° 0 min 0,000 mm 0,0 UV-I 0 W/m² 0,7 °C 3,6 °C 0,0 km/h (0 Bft)
10.03.2018 03:30 3,7 °C 81 % 1006,9 hPa 0,0 mm 0,0 km/h (0 Bft) SW 236 ° 0 min 0,000 mm 0,0 UV-I 0 W/m² 0,7 °C 3,7 °C 0,0 km/h (0 Bft)
10.03.2018 03:31 3,8 °C 80 % 1006,9 hPa 0,0 mm 0,4 km/h (0 Bft) SW 236 ° 0 min 0,000 mm 0,0 UV-I 0 W/m² 0,7 °C 3,8 °C 1,6 km/h (1 Bft)
10.03.2018 03:32 3,9 °C 80 % 1006,9 hPa 0,0 mm 0,0 km/h (0 Bft) SW 236 ° 0 min 0,000 mm 0,0 UV-I 0 W/m² 0,8 °C 3,9 °C 0,0 km/h (0 Bft)
10.03.2018 03:33 3,9 °C 79 % 1006,9 hPa 0,0 mm 0,1 km/h (0 Bft) SW 236 ° 0 min 0,000 mm 0,0 UV-I 0 W/m² 0,6 °C 3,9 °C 1,6 km/h (1 Bft)
10.03.2018 03:34 3,8 °C 80 % 1007,0 hPa 0,0 mm 3,3 km/h (1 Bft) W 281 ° 0 min 0,000 mm 0,0 UV-I 0 W/m² 0,7 °C 3,8 °C 4,8 km/h (1 Bft)
10.03.2018 03:35 3,8 °C 80 % 1007,2 hPa 0,0 mm 2,7 km/h (1 Bft) W 281 ° 0 min 0,000 mm 0,0 UV-I 0 W/m² 0,7 °C 3,8 °C 3,2 km/h (1 Bft)
10.03.2018 03:36 3,7 °C 80 % 1007,2 hPa 0,0 mm 1,6 km/h (1 Bft) W 281 ° 0 min 0,000 mm 0,0 UV-I 0 W/m² 0,6 °C 3,7 °C 3,2 km/h (1 Bft)
10.03.2018 03:37 3,6 °C 81 % 1007,2 hPa 0,0 mm 0,0 km/h (0 Bft) W 281 ° 0 min 0,000 mm 0,0 UV-I 0 W/m² 0,7 °C 3,6 °C 0,0 km/h (0 Bft)
10.03.2018 03:38 3,5 °C 81 % 1007,3 hPa 0,0 mm 0,0 km/h (0 Bft) W 281 ° 0 min 0,000 mm 0,0 UV-I 0 W/m² 0,6 °C 3,5 °C 0,0 km/h (0 Bft)
10.03.2018 03:39 3,5 °C 81 % 1007,3 hPa 0,0 mm 0,0 km/h (0 Bft) W 281 ° 0 min 0,000 mm 0,0 UV-I 0 W/m² 0,6 °C 3,5 °C 0,0 km/h (0 Bft)
10.03.2018 03:40 3,6 °C 81 % 1007,3 hPa 0,0 mm 0,0 km/h (0 Bft) W 281 ° 0 min 0,000 mm 0,0 UV-I 0 W/m² 0,7 °C 3,6 °C 0,0 km/h (0 Bft)
10.03.2018 03:41 3,6 °C 81 % 1007,3 hPa 0,0 mm 0,0 km/h (0 Bft) W 281 ° 0 min 0,000 mm 0,0 UV-I 0 W/m² 0,7 °C 3,6 °C 0,0 km/h (0 Bft)
10.03.2018 03:42 3,6 °C 81 % 1007,3 hPa 0,0 mm 0,0 km/h (0 Bft) W 281 ° 0 min 0,000 mm 0,0 UV-I 0 W/m² 0,7 °C 3,6 °C 0,0 km/h (0 Bft)
10.03.2018 03:43 3,6 °C 81 % 1007,3 hPa 0,0 mm 0,0 km/h (0 Bft) W 281 ° 0 min 0,000 mm 0,0 UV-I 0 W/m² 0,7 °C 3,6 °C 0,0 km/h (0 Bft)
10.03.2018 03:44 3,5 °C 81 % 1007,3 hPa 0,0 mm 0,0 km/h (0 Bft) W 281 ° 0 min 0,000 mm 0,0 UV-I 0 W/m² 0,6 °C 3,5 °C 0,0 km/h (0 Bft)
10.03.2018 03:45 3,5 °C 81 % 1007,3 hPa 0,0 mm 0,0 km/h (0 Bft) W 281 ° 0 min 0,000 mm 0,0 UV-I 0 W/m² 0,6 °C 3,5 °C 0,0 km/h (0 Bft)
10.03.2018 03:46 3,4 °C 82 % 1007,2 hPa 0,0 mm 0,0 km/h (0 Bft) W 281 ° 0 min 0,000 mm 0,0 UV-I 0 W/m² 0,6 °C 3,4 °C 0,0 km/h (0 Bft)
10.03.2018 03:47 3,3 °C 82 % 1007,2 hPa 0,0 mm 0,0 km/h (0 Bft) W 281 ° 0 min 0,000 mm 0,0 UV-I 0 W/m² 0,5 °C 3,3 °C 0,0 km/h (0 Bft)
10.03.2018 03:48 3,3 °C 82 % 1007,2 hPa 0,0 mm 0,0 km/h (0 Bft) W 281 ° 0 min 0,000 mm 0,0 UV-I 0 W/m² 0,5 °C 3,3 °C 0,0 km/h (0 Bft)
10.03.2018 03:49 3,2 °C 82 % 1007,3 hPa 0,0 mm 0,0 km/h (0 Bft) W 281 ° 0 min 0,000 mm 0,0 UV-I 0 W/m² 0,4 °C 3,2 °C 0,0 km/h (0 Bft)
10.03.2018 03:50 3,2 °C 82 % 1007,3 hPa 0,0 mm 0,0 km/h (0 Bft) W 281 ° 0 min 0,000 mm 0,0 UV-I 0 W/m² 0,4 °C 3,2 °C 0,0 km/h (0 Bft)
10.03.2018 03:51 3,1 °C 83 % 1007,3 hPa 0,0 mm 0,0 km/h (0 Bft) W 281 ° 0 min 0,000 mm 0,0 UV-I 0 W/m² 0,5 °C 3,1 °C 0,0 km/h (0 Bft)
10.03.2018 03:52 3,1 °C 83 % 1007,3 hPa 0,0 mm 0,0 km/h (0 Bft) W 281 ° 0 min 0,000 mm 0,0 UV-I 0 W/m² 0,5 °C 3,1 °C 0,0 km/h (0 Bft)
10.03.2018 03:53 3,1 °C 83 % 1007,3 hPa 0,0 mm 0,0 km/h (0 Bft) W 281 ° 0 min 0,000 mm 0,0 UV-I 0 W/m² 0,5 °C 3,1 °C 0,0 km/h (0 Bft)
10.03.2018 03:54 3,1 °C 83 % 1007,2 hPa 0,0 mm 0,0 km/h (0 Bft) W 281 ° 0 min 0,000 mm 0,0 UV-I 0 W/m² 0,5 °C 3,1 °C 0,0 km/h (0 Bft)
10.03.2018 03:55 3,1 °C 83 % 1007,2 hPa 0,0 mm 0,0 km/h (0 Bft) W 281 ° 0 min 0,000 mm 0,0 UV-I 0 W/m² 0,5 °C 3,1 °C 0,0 km/h (0 Bft)
10.03.2018 03:56 3,1 °C 83 % 1007,2 hPa 0,0 mm 0,0 km/h (0 Bft) W 281 ° 0 min 0,000 mm 0,0 UV-I 0 W/m² 0,5 °C 3,1 °C 0,0 km/h (0 Bft)
10.03.2018 03:57 3,1 °C 83 % 1007,2 hPa 0,0 mm 0,0 km/h (0 Bft) W 281 ° 0 min 0,000 mm 0,0 UV-I 0 W/m² 0,5 °C 3,1 °C 0,0 km/h (0 Bft)
10.03.2018 03:58 3,1 °C 83 % 1007,2 hPa 0,0 mm 0,0 km/h (0 Bft) W 281 ° 0 min 0,000 mm 0,0 UV-I 0 W/m² 0,5 °C 3,1 °C 0,0 km/h (0 Bft)
10.03.2018 03:59 3,1 °C 83 % 1007,2 hPa 0,0 mm 0,0 km/h (0 Bft) W 281 ° 0 min 0,000 mm 0,0 UV-I 0 W/m² 0,5 °C 3,1 °C 0,0 km/h (0 Bft)
10.03.2018 04:00 3,1 °C 83 % 1007,1 hPa 0,0 mm 0,0 km/h (0 Bft) W 281 ° 0 min 0,000 mm 0,0 UV-I 0 W/m² 0,5 °C 3,1 °C 0,0 km/h (0 Bft)
10.03.2018 04:01 3,1 °C 83 % 1007,2 hPa 0,0 mm 0,0 km/h (0 Bft) W 281 ° 0 min 0,000 mm 0,0 UV-I 0 W/m² 0,5 °C 3,1 °C 0,0 km/h (0 Bft)
10.03.2018 04:02 3,1 °C 83 % 1007,3 hPa 0,0 mm 0,0 km/h (0 Bft) W 281 ° 0 min 0,000 mm 0,0 UV-I 0 W/m² 0,5 °C 3,1 °C 0,0 km/h (0 Bft)
10.03.2018 04:03 3,1 °C 83 % 1007,3 hPa 0,0 mm 0,0 km/h (0 Bft) W 281 ° 0 min 0,000 mm 0,0 UV-I 0 W/m² 0,5 °C 3,1 °C 0,0 km/h (0 Bft)
10.03.2018 04:04 3,1 °C 83 % 1007,2 hPa 0,0 mm 0,0 km/h (0 Bft) W 281 ° 0 min 0,000 mm 0,0 UV-I 0 W/m² 0,5 °C 3,1 °C 0,0 km/h (0 Bft)
10.03.2018 04:05 3,1 °C 83 % 1007,2 hPa 0,0 mm 0,0 km/h (0 Bft) W 281 ° 0 min 0,000 mm 0,0 UV-I 0 W/m² 0,5 °C 3,1 °C 0,0 km/h (0 Bft)
10.03.2018 04:06 3,2 °C 82 % 1007,2 hPa 0,0 mm 0,0 km/h (0 Bft) W 281 ° 0 min 0,000 mm 0,0 UV-I 0 W/m² 0,4 °C 3,2 °C 0,0 km/h (0 Bft)
10.03.2018 04:07 3,3 °C 82 % 1007,2 hPa 0,0 mm 0,0 km/h (0 Bft) W 281 ° 0 min 0,000 mm 0,0 UV-I 0 W/m² 0,5 °C 3,3 °C 0,0 km/h (0 Bft)
10.03.2018 04:08 3,4 °C 82 % 1007,2 hPa 0,0 mm 0,0 km/h (0 Bft) W 281 ° 0 min 0,000 mm 0,0 UV-I 0 W/m² 0,6 °C 3,4 °C 0,0 km/h (0 Bft)
10.03.2018 04:09 3,4 °C 82 % 1007,2 hPa 0,0 mm 0,0 km/h (0 Bft) W 281 ° 0 min 0,000 mm 0,0 UV-I 0 W/m² 0,6 °C 3,4 °C 0,0 km/h (0 Bft)
10.03.2018 04:10 3,3 °C 82 % 1007,2 hPa 0,0 mm 0,0 km/h (0 Bft) W 281 ° 0 min 0,000 mm 0,0 UV-I 0 W/m² 0,5 °C 3,3 °C 0,0 km/h (0 Bft)
10.03.2018 04:11 3,3 °C 82 % 1007,2 hPa 0,0 mm 0,0 km/h (0 Bft) W 281 ° 0 min 0,000 mm 0,0 UV-I 0 W/m² 0,5 °C 3,3 °C 0,0 km/h (0 Bft)
10.03.2018 04:12 3,3 °C 82 % 1007,2 hPa 0,0 mm 0,0 km/h (0 Bft) W 281 ° 0 min 0,000 mm 0,0 UV-I 0 W/m² 0,5 °C 3,3 °C 0,0 km/h (0 Bft)
10.03.2018 04:13 3,3 °C 82 % 1007,2 hPa 0,0 mm 0,0 km/h (0 Bft) W 281 ° 0 min 0,000 mm 0,0 UV-I 0 W/m² 0,5 °C 3,3 °C 0,0 km/h (0 Bft)
10.03.2018 04:14 3,3 °C 82 % 1007,2 hPa 0,0 mm 0,0 km/h (0 Bft) W 281 ° 0 min 0,000 mm 0,0 UV-I 0 W/m² 0,5 °C 3,3 °C 0,0 km/h (0 Bft)
10.03.2018 04:15 3,3 °C 82 % 1007,1 hPa 0,0 mm 0,0 km/h (0 Bft) W 281 ° 0 min 0,000 mm 0,0 UV-I 0 W/m² 0,5 °C 3,3 °C 0,0 km/h (0 Bft)
10.03.2018 04:16 3,3 °C 82 % 1007,2 hPa 0,0 mm 0,0 km/h (0 Bft) W 281 ° 0 min 0,000 mm 0,0 UV-I 0 W/m² 0,5 °C 3,3 °C 0,0 km/h (0 Bft)
10.03.2018 04:17 3,3 °C 82 % 1007,1 hPa 0,0 mm 1,7 km/h (1 Bft) S 177 ° 0 min 0,000 mm 0,0 UV-I 0 W/m² 0,5 °C 3,3 °C 6,4 km/h (2 Bft)
10.03.2018 04:18 3,3 °C 82 % 1007,1 hPa 0,0 mm 4,0 km/h (1 Bft) O-SO 113 ° 0 min 0,000 mm 0,0 UV-I 0 W/m² 0,5 °C 3,3 °C 6,4 km/h (2 Bft)
10.03.2018 04:19 3,4 °C 82 % 1007,1 hPa 0,0 mm 0,9 km/h (0 Bft) W-NW 294 ° 0 min 0,000 mm 0,0 UV-I 0 W/m² 0,6 °C 3,4 °C 4,8 km/h (1 Bft)
10.03.2018 04:20 3,4 °C 82 % 1007,2 hPa 0,0 mm 4,6 km/h (1 Bft) NW 305 ° 0 min 0,000 mm 0,0 UV-I 0 W/m² 0,6 °C 2,4 °C 6,4 km/h (2 Bft)
10.03.2018 04:21 3,5 °C 82 % 1007,2 hPa 0,0 mm 0,3 km/h (0 Bft) NW 305 ° 0 min 0,000 mm 0,0 UV-I 0 W/m² 0,7 °C 3,5 °C 1,6 km/h (1 Bft)
10.03.2018 04:22 3,6 °C 81 % 1007,2 hPa 0,0 mm 0,8 km/h (0 Bft) NW 305 ° 0 min 0,000 mm 0,0 UV-I 0 W/m² 0,7 °C 3,6 °C 3,2 km/h (1 Bft)
10.03.2018 04:23 3,7 °C 81 % 1007,1 hPa 0,0 mm 3,8 km/h (1 Bft) S-SW 206 ° 0 min 0,000 mm 0,0 UV-I 0 W/m² 0,7 °C 3,7 °C 6,4 km/h (2 Bft)
10.03.2018 04:24 3,9 °C 80 % 1007,1 hPa 0,0 mm 5,6 km/h (1 Bft) SO 146 ° 0 min 0,000 mm 0,0 UV-I 0 W/m² 0,8 °C 2,6 °C 8,0 km/h (2 Bft)
10.03.2018 04:25 4,1 °C 80 % 1007,1 hPa 0,0 mm 3,1 km/h (1 Bft) SO 146 ° 0 min 0,000 mm 0,0 UV-I 0 W/m² 1,0 °C 4,1 °C 6,4 km/h (2 Bft)
10.03.2018 04:26 4,3 °C 79 % 1007,1 hPa 0,0 mm 0,0 km/h (0 Bft) SO 146 ° 0 min 0,000 mm 0,0 UV-I 0 W/m² 1,0 °C 4,3 °C 0,0 km/h (0 Bft)
10.03.2018 04:27 4,4 °C 78 % 1007,1 hPa 0,0 mm 0,0 km/h (0 Bft) SO 146 ° 0 min 0,000 mm 0,0 UV-I 0 W/m² 0,9 °C 4,4 °C 0,0 km/h (0 Bft)
10.03.2018 04:28 4,3 °C 78 % 1007,2 hPa 0,0 mm 1,3 km/h (1 Bft) SO 146 ° 0 min 0,000 mm 0,0 UV-I 0 W/m² 0,8 °C 4,3 °C 3,2 km/h (1 Bft)
10.03.2018 04:29 4,3 °C 78 % 1007,2 hPa 0,0 mm 0,1 km/h (0 Bft) SO 146 ° 0 min 0,000 mm 0,0 UV-I 0 W/m² 0,8 °C 4,3 °C 1,6 km/h (1 Bft)
10.03.2018 04:30 4,2 °C 78 % 1007,2 hPa 0,0 mm 0,0 km/h (0 Bft) SO 146 ° 0 min 0,000 mm 0,0 UV-I 0 W/m² 0,7 °C 4,2 °C 0,0 km/h (0 Bft)
10.03.2018 04:31 4,1 °C 79 % 1007,2 hPa 0,0 mm 0,1 km/h (0 Bft) SO 146 ° 0 min 0,000 mm 0,0 UV-I 0 W/m² 0,8 °C 4,1 °C 1,6 km/h (1 Bft)
10.03.2018 04:32 4,1 °C 79 % 1007,2 hPa 0,0 mm 0,7 km/h (0 Bft) SO 146 ° 0 min 0,000 mm 0,0 UV-I 0 W/m² 0,8 °C 4,1 °C 3,2 km/h (1 Bft)
10.03.2018 04:33 4,1 °C 79 % 1007,2 hPa 0,0 mm 2,7 km/h (1 Bft) SO 146 ° 0 min 0,000 mm 0,0 UV-I 0 W/m² 0,8 °C 4,1 °C 3,2 km/h (1 Bft)
10.03.2018 04:34 4,2 °C 79 % 1007,2 hPa 0,0 mm 0,7 km/h (0 Bft) SO 146 ° 0 min 0,000 mm 0,0 UV-I 0 W/m² 0,9 °C 4,2 °C 1,6 km/h (1 Bft)
10.03.2018 04:35 4,5 °C 78 % 1007,1 hPa 0,0 mm 0,6 km/h (0 Bft) SO 146 ° 0 min 0,000 mm 0,0 UV-I 0 W/m² 1,0 °C 4,5 °C 3,2 km/h (1 Bft)
10.03.2018 04:36 4,6 °C 77 % 1007,2 hPa 0,0 mm 2,9 km/h (1 Bft) NW 305 ° 0 min 0,000 mm 0,0 UV-I 0 W/m² 0,9 °C 4,6 °C 4,8 km/h (1 Bft)
10.03.2018 04:37 4,7 °C 77 % 1007,2 hPa 0,0 mm 2,6 km/h (1 Bft) W 268 ° 0 min 0,000 mm 0,0 UV-I 0 W/m² 1,0 °C 4,7 °C 3,2 km/h (1 Bft)
10.03.2018 04:38 4,8 °C 76 % 1007,2 hPa 0,0 mm 0,8 km/h (0 Bft) W 268 ° 0 min 0,000 mm 0,0 UV-I 0 W/m² 0,9 °C 4,8 °C 3,2 km/h (1 Bft)
10.03.2018 04:39 4,8 °C 76 % 1007,2 hPa 0,0 mm 0,0 km/h (0 Bft) W 268 ° 0 min 0,000 mm 0,0 UV-I 0 W/m² 0,9 °C 4,8 °C 0,0 km/h (0 Bft)
10.03.2018 04:40 4,7 °C 77 % 1007,2 hPa 0,0 mm 1,7 km/h (1 Bft) S-SO 150 ° 0 min 0,000 mm 0,0 UV-I 0 W/m² 1,0 °C 4,7 °C 8,0 km/h (2 Bft)
10.03.2018 04:41 4,7 °C 77 % 1007,1 hPa 0,0 mm 5,8 km/h (2 Bft) O-SO 119 ° 0 min 0,000 mm 0,0 UV-I 0 W/m² 1,0 °C 3,4 °C 9,7 km/h (2 Bft)
10.03.2018 04:42 4,7 °C 77 % 1007,1 hPa 0,0 mm 1,9 km/h (1 Bft) W-NW 286 ° 0 min 0,000 mm 0,0 UV-I 0 W/m² 1,0 °C 4,7 °C 3,2 km/h (1 Bft)
10.03.2018 04:43 4,7 °C 77 % 1007,1 hPa 0,0 mm 3,3 km/h (1 Bft) W-NW 302 ° 0 min 0,000 mm 0,0 UV-I 0 W/m² 1,0 °C 4,7 °C 4,8 km/h (1 Bft)
10.03.2018 04:44 4,6 °C 77 % 1007,1 hPa 0,0 mm 0,7 km/h (0 Bft) W-NW 302 ° 0 min 0,000 mm 0,0 UV-I 0 W/m² 0,9 °C 4,6 °C 1,6 km/h (1 Bft)
10.03.2018 04:45 4,5 °C 77 % 1007,1 hPa 0,0 mm 0,0 km/h (0 Bft) W-NW 302 ° 0 min 0,000 mm 0,0 UV-I 0 W/m² 0,8 °C 4,5 °C 0,0 km/h (0 Bft)
10.03.2018 04:46 4,4 °C 77 % 1007,1 hPa 0,0 mm 0,0 km/h (0 Bft) W-NW 302 ° 0 min 0,000 mm 0,0 UV-I 0 W/m² 0,7 °C 4,4 °C 0,0 km/h (0 Bft)
10.03.2018 04:47 4,3 °C 78 % 1007,1 hPa 0,0 mm 0,0 km/h (0 Bft) W-NW 302 ° 0 min 0,000 mm 0,0 UV-I 0 W/m² 0,8 °C 4,3 °C 0,0 km/h (0 Bft)
10.03.2018 04:48 4,3 °C 77 % 1007,0 hPa 0,0 mm 0,0 km/h (0 Bft) W-NW 302 ° 0 min 0,000 mm 0,0 UV-I 0 W/m² 0,6 °C 4,3 °C 0,0 km/h (0 Bft)
10.03.2018 04:49 4,3 °C 78 % 1007,0 hPa 0,0 mm 0,0 km/h (0 Bft) W-NW 302 ° 0 min 0,000 mm 0,0 UV-I 0 W/m² 0,8 °C 4,3 °C 0,0 km/h (0 Bft)
10.03.2018 04:50 4,3 °C 78 % 1007,0 hPa 0,0 mm 0,0 km/h (0 Bft) W-NW 302 ° 0 min 0,000 mm 0,0 UV-I 0 W/m² 0,8 °C 4,3 °C 0,0 km/h (0 Bft)
10.03.2018 04:51 4,3 °C 78 % 1007,0 hPa 0,0 mm 0,0 km/h (0 Bft) W-NW 302 ° 0 min 0,000 mm 0,0 UV-I 0 W/m² 0,8 °C 4,3 °C 0,0 km/h (0 Bft)
10.03.2018 04:52 4,3 °C 78 % 1007,0 hPa 0,0 mm 0,0 km/h (0 Bft) W-NW 302 ° 0 min 0,000 mm 0,0 UV-I 0 W/m² 0,8 °C 4,3 °C 0,0 km/h (0 Bft)
10.03.2018 04:53 4,4 °C 78 % 1007,0 hPa 0,0 mm 0,7 km/h (0 Bft) W-NW 302 ° 0 min 0,000 mm 0,0 UV-I 0 W/m² 0,9 °C 4,4 °C 3,2 km/h (1 Bft)
10.03.2018 04:54 4,4 °C 78 % 1007,0 hPa 0,0 mm 1,4 km/h (1 Bft) W-NW 294 ° 0 min 0,000 mm 0,0 UV-I 0 W/m² 0,9 °C 4,4 °C 4,8 km/h (1 Bft)
10.03.2018 04:55 4,3 °C 78 % 1007,0 hPa 0,0 mm 0,0 km/h (0 Bft) W-NW 294 ° 0 min 0,000 mm 0,0 UV-I 0 W/m² 0,8 °C 4,3 °C 0,0 km/h (0 Bft)
10.03.2018 04:56 4,3 °C 79 % 1007,0 hPa 0,0 mm 0,0 km/h (0 Bft) W-NW 294 ° 0 min 0,000 mm 0,0 UV-I 0 W/m² 1,0 °C 4,3 °C 0,0 km/h (0 Bft)
10.03.2018 04:57 4,3 °C 79 % 1006,9 hPa 0,0 mm 0,0 km/h (0 Bft) W-NW 294 ° 0 min 0,000 mm 0,0 UV-I 0 W/m² 1,0 °C 4,3 °C 0,0 km/h (0 Bft)
10.03.2018 04:58 4,2 °C 79 % 1006,9 hPa 0,0 mm 0,0 km/h (0 Bft) W-NW 294 ° 0 min 0,000 mm 0,0 UV-I 0 W/m² 0,9 °C 4,2 °C 0,0 km/h (0 Bft)
10.03.2018 04:59 4,2 °C 79 % 1007,0 hPa 0,0 mm 0,0 km/h (0 Bft) W-NW 294 ° 0 min 0,000 mm 0,0 UV-I 0 W/m² 0,9 °C 4,2 °C 0,0 km/h (0 Bft)
10.03.2018 05:00 4,2 °C 79 % 1007,0 hPa 0,0 mm 0,0 km/h (0 Bft) W-NW 294 ° 0 min 0,000 mm 0,0 UV-I 0 W/m² 0,9 °C 4,2 °C 0,0 km/h (0 Bft)
10.03.2018 05:01 4,1 °C 79 % 1007,0 hPa 0,0 mm 0,0 km/h (0 Bft) W-NW 294 ° 0 min 0,000 mm 0,0 UV-I 0 W/m² 0,8 °C 4,1 °C 0,0 km/h (0 Bft)
10.03.2018 05:02 4,0 °C 79 % 1006,9 hPa 0,0 mm 0,0 km/h (0 Bft) W-NW 294 ° 0 min 0,000 mm 0,0 UV-I 0 W/m² 0,7 °C 4,0 °C 0,0 km/h (0 Bft)
10.03.2018 05:03 4,0 °C 79 % 1006,9 hPa 0,0 mm 0,0 km/h (0 Bft) W-NW 294 ° 0 min 0,000 mm 0,0 UV-I 0 W/m² 0,7 °C 4,0 °C 0,0 km/h (0 Bft)
10.03.2018 05:04 4,0 °C 79 % 1007,0 hPa 0,0 mm 0,0 km/h (0 Bft) W-NW 294 ° 0 min 0,000 mm 0,0 UV-I 0 W/m² 0,7 °C 4,0 °C 0,0 km/h (0 Bft)
10.03.2018 05:05 3,9 °C 79 % 1007,0 hPa 0,0 mm 0,0 km/h (0 Bft) W-NW 294 ° 0 min 0,000 mm 0,0 UV-I 0 W/m² 0,6 °C 3,9 °C 0,0 km/h (0 Bft)
10.03.2018 05:06 3,9 °C 80 % 1006,9 hPa 0,0 mm 0,0 km/h (0 Bft) W-NW 294 ° 0 min 0,000 mm 0,0 UV-I 0 W/m² 0,8 °C 3,9 °C 0,0 km/h (0 Bft)
10.03.2018 05:07 3,9 °C 80 % 1006,9 hPa 0,0 mm 0,0 km/h (0 Bft) W-NW 294 ° 0 min 0,000 mm 0,0 UV-I 0 W/m² 0,8 °C 3,9 °C 0,0 km/h (0 Bft)
10.03.2018 05:08 3,9 °C 80 % 1006,9 hPa 0,0 mm 0,0 km/h (0 Bft) W-NW 294 ° 0 min 0,000 mm 0,0 UV-I 0 W/m² 0,8 °C 3,9 °C 0,0 km/h (0 Bft)
10.03.2018 05:09 3,9 °C 80 % 1006,9 hPa 0,0 mm 0,0 km/h (0 Bft) W-NW 294 ° 0 min 0,000 mm 0,0 UV-I 0 W/m² 0,8 °C 3,9 °C 0,0 km/h (0 Bft)
10.03.2018 05:10 3,8 °C 80 % 1006,9 hPa 0,0 mm 0,0 km/h (0 Bft) W-NW 294 ° 0 min 0,000 mm 0,0 UV-I 0 W/m² 0,7 °C 3,8 °C 0,0 km/h (0 Bft)
10.03.2018 05:11 3,8 °C 80 % 1006,9 hPa 0,0 mm 0,0 km/h (0 Bft) W-NW 294 ° 0 min 0,000 mm 0,0 UV-I 0 W/m² 0,7 °C 3,8 °C 0,0 km/h (0 Bft)
10.03.2018 05:12 3,8 °C 80 % 1006,9 hPa 0,0 mm 0,0 km/h (0 Bft) W-NW 294 ° 0 min 0,000 mm 0,0 UV-I 0 W/m² 0,7 °C 3,8 °C 0,0 km/h (0 Bft)
10.03.2018 05:13 3,8 °C 81 % 1006,9 hPa 0,0 mm 0,0 km/h (0 Bft) W-NW 294 ° 0 min 0,000 mm 0,0 UV-I 0 W/m² 0,8 °C 3,8 °C 0,0 km/h (0 Bft)
10.03.2018 05:14 3,7 °C 81 % 1006,9 hPa 0,0 mm 0,0 km/h (0 Bft) W-NW 294 ° 0 min 0,000 mm 0,0 UV-I 0 W/m² 0,7 °C 3,7 °C 0,0 km/h (0 Bft)
10.03.2018 05:15 3,8 °C 81 % 1006,9 hPa 0,0 mm 0,0 km/h (0 Bft) W-NW 294 ° 0 min 0,000 mm 0,0 UV-I 0 W/m² 0,8 °C 3,8 °C 0,0 km/h (0 Bft)
10.03.2018 05:16 3,8 °C 81 % 1006,9 hPa 0,0 mm 0,0 km/h (0 Bft) W-NW 294 ° 0 min 0,000 mm 0,0 UV-I 0 W/m² 0,8 °C 3,8 °C 0,0 km/h (0 Bft)
10.03.2018 05:17 3,8 °C 80 % 1007,0 hPa 0,0 mm 0,0 km/h (0 Bft) W-NW 294 ° 0 min 0,000 mm 0,0 UV-I 0 W/m² 0,7 °C 3,8 °C 0,0 km/h (0 Bft)
10.03.2018 05:18 3,9 °C 80 % 1007,0 hPa 0,0 mm 0,0 km/h (0 Bft) W-NW 294 ° 0 min 0,000 mm 0,0 UV-I 0 W/m² 0,8 °C 3,9 °C 0,0 km/h (0 Bft)
10.03.2018 05:19 3,9 °C 80 % 1006,9 hPa 0,0 mm 0,0 km/h (0 Bft) W-NW 294 ° 0 min 0,000 mm 0,0 UV-I 0 W/m² 0,8 °C 3,9 °C 0,0 km/h (0 Bft)
10.03.2018 05:20 3,9 °C 80 % 1006,9 hPa 0,0 mm 0,0 km/h (0 Bft) W-NW 294 ° 0 min 0,000 mm 0,0 UV-I 0 W/m² 0,8 °C 3,9 °C 0,0 km/h (0 Bft)
10.03.2018 05:21 3,9 °C 80 % 1006,9 hPa 0,0 mm 0,0 km/h (0 Bft) W-NW 294 ° 0 min 0,000 mm 0,0 UV-I 0 W/m² 0,8 °C 3,9 °C 0,0 km/h (0 Bft)
10.03.2018 05:22 4,0 °C 80 % 1006,9 hPa 0,0 mm 0,0 km/h (0 Bft) W-NW 294 ° 0 min 0,000 mm 0,0 UV-I 0 W/m² 0,9 °C 4,0 °C 0,0 km/h (0 Bft)
10.03.2018 05:23 4,0 °C 80 % 1006,9 hPa 0,0 mm 0,0 km/h (0 Bft) W-NW 294 ° 0 min 0,000 mm 0,0 UV-I 0 W/m² 0,9 °C 4,0 °C 0,0 km/h (0 Bft)
10.03.2018 05:24 4,1 °C 79 % 1006,9 hPa 0,0 mm 0,0 km/h (0 Bft) W-NW 294 ° 0 min 0,000 mm 0,0 UV-I 0 W/m² 0,8 °C 4,1 °C 0,0 km/h (0 Bft)
10.03.2018 05:25 4,1 °C 79 % 1006,9 hPa 0,0 mm 0,0 km/h (0 Bft) W-NW 294 ° 0 min 0,000 mm 0,0 UV-I 0 W/m² 0,8 °C 4,1 °C 0,0 km/h (0 Bft)
10.03.2018 05:26 4,2 °C 79 % 1006,9 hPa 0,0 mm 0,7 km/h (0 Bft) W-NW 294 ° 0 min 0,000 mm 0,0 UV-I 0 W/m² 0,9 °C 4,2 °C 3,2 km/h (1 Bft)
10.03.2018 05:27 4,3 °C 79 % 1006,9 hPa 0,0 mm 0,0 km/h (0 Bft) W-NW 294 ° 0 min 0,000 mm 0,0 UV-I 0 W/m² 1,0 °C 4,3 °C 0,0 km/h (0 Bft)
10.03.2018 05:28 4,3 °C 79 % 1006,8 hPa 0,0 mm 0,0 km/h (0 Bft) W-NW 294 ° 0 min 0,000 mm 0,0 UV-I 0 W/m² 1,0 °C 4,3 °C 0,0 km/h (0 Bft)
10.03.2018 05:29 4,4 °C 78 % 1006,9 hPa 0,0 mm 0,0 km/h (0 Bft) W-NW 294 ° 0 min 0,000 mm 0,0 UV-I 0 W/m² 0,9 °C 4,4 °C 0,0 km/h (0 Bft)
10.03.2018 05:30 4,4 °C 78 % 1006,9 hPa 0,0 mm 0,0 km/h (0 Bft) W-NW 294 ° 0 min 0,000 mm 0,0 UV-I 0 W/m² 0,9 °C 4,4 °C 0,0 km/h (0 Bft)
10.03.2018 05:31 4,5 °C 77 % 1006,8 hPa 0,0 mm 0,0 km/h (0 Bft) W-NW 294 ° 0 min 0,000 mm 0,0 UV-I 0 W/m² 0,8 °C 4,5 °C 0,0 km/h (0 Bft)
10.03.2018 05:32 4,6 °C 77 % 1006,8 hPa 0,0 mm 0,0 km/h (0 Bft) W-NW 294 ° 0 min 0,000 mm 0,0 UV-I 0 W/m² 0,9 °C 4,6 °C 0,0 km/h (0 Bft)
10.03.2018 05:33 4,6 °C 77 % 1006,9 hPa 0,0 mm 0,0 km/h (0 Bft) W-NW 294 ° 0 min 0,000 mm 0,0 UV-I 0 W/m² 0,9 °C 4,6 °C 0,0 km/h (0 Bft)
10.03.2018 05:34 4,7 °C 77 % 1006,8 hPa 0,0 mm 0,0 km/h (0 Bft) W-NW 294 ° 0 min 0,000 mm 0,0 UV-I 0 W/m² 1,0 °C 4,7 °C 0,0 km/h (0 Bft)
10.03.2018 05:35 4,7 °C 76 % 1006,8 hPa 0,0 mm 0,6 km/h (0 Bft) W-NW 294 ° 0 min 0,000 mm 0,0 UV-I 0 W/m² 0,8 °C 4,7 °C 1,6 km/h (1 Bft)
10.03.2018 05:36 4,7 °C 76 % 1006,8 hPa 0,0 mm 0,1 km/h (0 Bft) W-NW 294 ° 0 min 0,000 mm 0,0 UV-I 0 W/m² 0,8 °C 4,7 °C 1,6 km/h (1 Bft)
10.03.2018 05:37 4,7 °C 76 % 1006,8 hPa 0,0 mm 0,0 km/h (0 Bft) W-NW 294 ° 0 min 0,000 mm 0,0 UV-I 0 W/m² 0,8 °C 4,7 °C 0,0 km/h (0 Bft)
10.03.2018 05:38 4,8 °C 76 % 1006,9 hPa 0,0 mm 0,0 km/h (0 Bft) W-NW 294 ° 0 min 0,000 mm 0,0 UV-I 0 W/m² 0,9 °C 4,8 °C 0,0 km/h (0 Bft)
10.03.2018 05:39 4,9 °C 75 % 1006,9 hPa 0,0 mm 0,0 km/h (0 Bft) W-NW 294 ° 0 min 0,000 mm 0,0 UV-I 0 W/m² 0,8 °C 4,9 °C 0,0 km/h (0 Bft)
10.03.2018 05:40 4,9 °C 75 % 1006,8 hPa 0,0 mm 0,0 km/h (0 Bft) W-NW 294 ° 0 min 0,000 mm 0,0 UV-I 0 W/m² 0,8 °C 4,9 °C 0,0 km/h (0 Bft)
10.03.2018 05:41 4,9 °C 76 % 1006,8 hPa 0,0 mm 0,0 km/h (0 Bft) W-NW 294 ° 0 min 0,000 mm 0,0 UV-I 0 W/m² 1,0 °C 4,9 °C 0,0 km/h (0 Bft)
10.03.2018 05:42 4,9 °C 75 % 1006,8 hPa 0,0 mm 0,0 km/h (0 Bft) W-NW 294 ° 0 min 0,000 mm 0,0 UV-I 0 W/m² 0,8 °C 4,9 °C 0,0 km/h (0 Bft)
10.03.2018 05:43 5,0 °C 75 % 1006,8 hPa 0,0 mm 0,0 km/h (0 Bft) W-NW 294 ° 0 min 0,000 mm 0,0 UV-I 0 W/m² 0,9 °C 5,0 °C 0,0 km/h (0 Bft)
10.03.2018 05:44 5,1 °C 75 % 1006,8 hPa 0,0 mm 0,0 km/h (0 Bft) W-NW 294 ° 0 min 0,000 mm 0,0 UV-I 0 W/m² 1,0 °C 5,1 °C 0,0 km/h (0 Bft)
10.03.2018 05:45 5,0 °C 75 % 1006,8 hPa 0,0 mm 0,0 km/h (0 Bft) W-NW 294 ° 0 min 0,000 mm 0,0 UV-I 0 W/m² 0,9 °C 5,0 °C 0,0 km/h (0 Bft)
10.03.2018 05:46 5,0 °C 75 % 1006,8 hPa 0,0 mm 0,0 km/h (0 Bft) W-NW 294 ° 0 min 0,000 mm 0,0 UV-I 0 W/m² 0,9 °C 5,0 °C 0,0 km/h (0 Bft)
10.03.2018 05:47 5,1 °C 74 % 1006,8 hPa 0,0 mm 0,0 km/h (0 Bft) W-NW 294 ° 0 min 0,000 mm 0,0 UV-I 0 W/m² 0,9 °C 5,1 °C 0,0 km/h (0 Bft)
10.03.2018 05:48 5,1 °C 74 % 1006,8 hPa 0,0 mm 0,0 km/h (0 Bft) W-NW 294 ° 0 min 0,000 mm 0,0 UV-I 0 W/m² 0,9 °C 5,1 °C 0,0 km/h (0 Bft)
10.03.2018 05:49 5,2 °C 74 % 1006,8 hPa 0,0 mm 0,0 km/h (0 Bft) W-NW 294 ° 0 min 0,000 mm 0,0 UV-I 0 W/m² 1,0 °C 5,2 °C 0,0 km/h (0 Bft)
10.03.2018 05:50 5,2 °C 74 % 1006,8 hPa 0,0 mm 0,0 km/h (0 Bft) W-NW 294 ° 0 min 0,000 mm 0,0 UV-I 0 W/m² 1,0 °C 5,2 °C 0,0 km/h (0 Bft)
10.03.2018 05:51 5,3 °C 74 % 1006,8 hPa 0,0 mm 0,0 km/h (0 Bft) W-NW 294 ° 0 min 0,000 mm 0,0 UV-I 0 W/m² 1,0 °C 5,3 °C 0,0 km/h (0 Bft)
10.03.2018 05:52 5,3 °C 74 % 1006,7 hPa 0,0 mm 0,3 km/h (0 Bft) W-NW 294 ° 0 min 0,000 mm 0,0 UV-I 0 W/m² 1,0 °C 5,3 °C 1,6 km/h (1 Bft)
10.03.2018 05:53 5,3 °C 73 % 1006,7 hPa 0,0 mm 0,0 km/h (0 Bft) W-NW 294 ° 0 min 0,000 mm 0,0 UV-I 0 W/m² 0,9 °C 5,3 °C 0,0 km/h (0 Bft)
10.03.2018 05:54 5,3 °C 73 % 1006,7 hPa 0,0 mm 0,0 km/h (0 Bft) W-NW 294 ° 0 min 0,000 mm 0,0 UV-I 0 W/m² 0,9 °C 5,3 °C 0,0 km/h (0 Bft)
10.03.2018 05:55 5,3 °C 73 % 1006,7 hPa 0,0 mm 0,0 km/h (0 Bft) W-NW 294 ° 0 min 0,000 mm 0,0 UV-I 0 W/m² 0,9 °C 5,3 °C 0,0 km/h (0 Bft)
10.03.2018 05:56 5,3 °C 74 % 1006,7 hPa 0,0 mm 0,0 km/h (0 Bft) W-NW 294 ° 0 min 0,000 mm 0,0 UV-I 0 W/m² 1,0 °C 5,3 °C 0,0 km/h (0 Bft)
10.03.2018 05:57 5,2 °C 74 % 1006,7 hPa 0,0 mm 0,8 km/h (0 Bft) W-NW 294 ° 0 min 0,000 mm 0,0 UV-I 0 W/m² 1,0 °C 5,2 °C 3,2 km/h (1 Bft)
10.03.2018 05:58 5,2 °C 74 % 1006,7 hPa 0,0 mm 0,6 km/h (0 Bft) W-NW 294 ° 0 min 0,000 mm 0,0 UV-I 0 W/m² 1,0 °C 5,2 °C 3,2 km/h (1 Bft)
10.03.2018 05:59 5,2 °C 74 % 1006,6 hPa 0,0 mm 0,0 km/h (0 Bft) W-NW 294 ° 0 min 0,000 mm 0,0 UV-I 0 W/m² 1,0 °C 5,2 °C 0,0 km/h (0 Bft)
10.03.2018 06:00 5,1 °C 74 % 1006,7 hPa 0,0 mm 0,0 km/h (0 Bft) W-NW 294 ° 0 min 0,000 mm 0,0 UV-I 0 W/m² 0,9 °C 5,1 °C 0,0 km/h (0 Bft)
10.03.2018 06:01 5,2 °C 73 % 1006,7 hPa 0,0 mm 0,0 km/h (0 Bft) W-NW 294 ° 0 min 0,000 mm 0,0 UV-I 0 W/m² 0,8 °C 5,2 °C 0,0 km/h (0 Bft)
10.03.2018 06:02 5,2 °C 74 % 1006,7 hPa 0,0 mm 0,0 km/h (0 Bft) W-NW 294 ° 0 min 0,000 mm 0,0 UV-I 0 W/m² 1,0 °C 5,2 °C 0,0 km/h (0 Bft)
10.03.2018 06:03 5,2 °C 74 % 1006,7 hPa 0,0 mm 0,0 km/h (0 Bft) W-NW 294 ° 0 min 0,000 mm 0,0 UV-I 0 W/m² 1,0 °C 5,2 °C 0,0 km/h (0 Bft)
10.03.2018 06:04 5,2 °C 74 % 1006,7 hPa 0,0 mm 0,0 km/h (0 Bft) W-NW 294 ° 0 min 0,000 mm 0,0 UV-I 0 W/m² 1,0 °C 5,2 °C 0,0 km/h (0 Bft)
10.03.2018 06:05 5,2 °C 74 % 1006,7 hPa 0,0 mm 0,0 km/h (0 Bft) W-NW 294 ° 0 min 0,000 mm 0,0 UV-I 0 W/m² 1,0 °C 5,2 °C 0,0 km/h (0 Bft)
10.03.2018 06:06 5,2 °C 74 % 1006,7 hPa 0,0 mm 0,0 km/h (0 Bft) W-NW 294 ° 0 min 0,000 mm 0,0 UV-I 0 W/m² 1,0 °C 5,2 °C 0,0 km/h (0 Bft)
10.03.2018 06:07 5,2 °C 74 % 1006,7 hPa 0,0 mm 0,0 km/h (0 Bft) W-NW 294 ° 0 min 0,000 mm 0,0 UV-I 0 W/m² 1,0 °C 5,2 °C 0,0 km/h (0 Bft)
10.03.2018 06:08 5,2 °C 74 % 1006,6 hPa 0,0 mm 0,0 km/h (0 Bft) W-NW 294 ° 0 min 0,000 mm 0,0 UV-I 0 W/m² 1,0 °C 5,2 °C 0,0 km/h (0 Bft)
10.03.2018 06:09 5,2 °C 73 % 1006,7 hPa 0,0 mm 0,0 km/h (0 Bft) W-NW 294 ° 0 min 0,000 mm 0,0 UV-I 0 W/m² 0,8 °C 5,2 °C 0,0 km/h (0 Bft)
10.03.2018 06:10 5,3 °C 73 % 1006,7 hPa 0,0 mm 0,0 km/h (0 Bft) W-NW 294 ° 0 min 0,000 mm 0,0 UV-I 0 W/m² 0,9 °C 5,3 °C 0,0 km/h (0 Bft)
10.03.2018 06:11 5,3 °C 73 % 1006,7 hPa 0,0 mm 0,0 km/h (0 Bft) W-NW 294 ° 0 min 0,000 mm 0,0 UV-I 0 W/m² 0,9 °C 5,3 °C 0,0 km/h (0 Bft)
10.03.2018 06:12 5,3 °C 74 % 1006,7 hPa 0,0 mm 0,1 km/h (0 Bft) W-NW 294 ° 0 min 0,000 mm 0,0 UV-I 0 W/m² 1,0 °C 5,3 °C 1,6 km/h (1 Bft)
10.03.2018 06:13 5,3 °C 74 % 1006,7 hPa 0,0 mm 0,7 km/h (0 Bft) W-NW 294 ° 0 min 0,000 mm 0,0 UV-I 0 W/m² 1,0 °C 5,3 °C 1,6 km/h (1 Bft)
10.03.2018 06:14 5,3 °C 74 % 1006,6 hPa 0,0 mm 0,3 km/h (0 Bft) W-NW 294 ° 0 min 0,000 mm 0,0 UV-I 0 W/m² 1,0 °C 5,3 °C 1,6 km/h (1 Bft)
10.03.2018 06:15 5,3 °C 74 % 1006,6 hPa 0,0 mm 1,0 km/h (0 Bft) W-NW 294 ° 0 min 0,000 mm 0,0 UV-I 0 W/m² 1,0 °C 5,3 °C 3,2 km/h (1 Bft)
10.03.2018 06:16 5,3 °C 74 % 1006,6 hPa 0,0 mm 0,1 km/h (0 Bft) W-NW 294 ° 0 min 0,000 mm 0,0 UV-I 0 W/m² 1,0 °C 5,3 °C 1,6 km/h (1 Bft)
10.03.2018 06:17 5,3 °C 73 % 1006,7 hPa 0,0 mm 1,5 km/h (1 Bft) W-NW 294 ° 0 min 0,000 mm 0,0 UV-I 0 W/m² 0,9 °C 5,3 °C 3,2 km/h (1 Bft)
10.03.2018 06:18 5,3 °C 74 % 1006,7 hPa 0,0 mm 2,3 km/h (1 Bft) W-NW 294 ° 0 min 0,000 mm 0,0 UV-I 0 W/m² 1,0 °C 5,3 °C 3,2 km/h (1 Bft)
10.03.2018 06:19 5,4 °C 74 % 1006,7 hPa 0,0 mm 0,5 km/h (0 Bft) W-NW 294 ° 0 min 0,000 mm 0,0 UV-I 0 W/m² 1,1 °C 5,4 °C 1,6 km/h (1 Bft)
10.03.2018 06:20 5,4 °C 72 % 1006,6 hPa 0,0 mm 0,0 km/h (0 Bft) W-NW 294 ° 0 min 0,000 mm 0,0 UV-I 0 W/m² 0,8 °C 5,4 °C 0,0 km/h (0 Bft)
10.03.2018 06:21 5,6 °C 72 % 1006,6 hPa 0,0 mm 2,0 km/h (1 Bft) W-NW 294 ° 0 min 0,000 mm 0,0 UV-I 0 W/m² 1,0 °C 5,6 °C 3,2 km/h (1 Bft)
10.03.2018 06:22 5,6 °C 72 % 1006,5 hPa 0,0 mm 0,2 km/h (0 Bft) W-NW 294 ° 0 min 0,000 mm 0,0 UV-I 0 W/m² 1,0 °C 5,6 °C 1,6 km/h (1 Bft)
10.03.2018 06:23 5,7 °C 71 % 1006,5 hPa 0,0 mm 0,8 km/h (0 Bft) W-NW 294 ° 0 min 0,000 mm 0,0 UV-I 0 W/m² 0,9 °C 5,7 °C 3,2 km/h (1 Bft)
10.03.2018 06:24 5,7 °C 71 % 1006,5 hPa 0,0 mm 0,5 km/h (0 Bft) W-NW 294 ° 0 min 0,000 mm 0,0 UV-I 0 W/m² 0,9 °C 5,7 °C 3,2 km/h (1 Bft)
10.03.2018 06:25 5,7 °C 72 % 1006,5 hPa 0,0 mm 0,1 km/h (0 Bft) W-NW 294 ° 0 min 0,000 mm 0,0 UV-I 0 W/m² 1,1 °C 5,7 °C 3,2 km/h (1 Bft)
10.03.2018 06:26 5,6 °C 71 % 1006,6 hPa 0,0 mm 1,3 km/h (1 Bft) W-NW 294 ° 0 min 0,000 mm 0,0 UV-I 0 W/m² 0,8 °C 5,6 °C 3,2 km/h (1 Bft)
10.03.2018 06:27 5,6 °C 72 % 1006,5 hPa 0,0 mm 0,0 km/h (0 Bft) W-NW 294 ° 0 min 0,000 mm 0,0 UV-I 0 W/m² 1,0 °C 5,6 °C 0,0 km/h (0 Bft)
10.03.2018 06:28 5,5 °C 72 % 1006,5 hPa 0,0 mm 0,0 km/h (0 Bft) W-NW 294 ° 0 min 0,000 mm 0,0 UV-I 0 W/m² 0,9 °C 5,5 °C 0,0 km/h (0 Bft)
10.03.2018 06:29 5,4 °C 72 % 1006,5 hPa 0,0 mm 0,5 km/h (0 Bft) W-NW 294 ° 0 min 0,000 mm 0,0 UV-I 0 W/m² 0,8 °C 5,4 °C 3,2 km/h (1 Bft)
10.03.2018 06:30 5,3 °C 72 % 1006,6 hPa 0,0 mm 2,2 km/h (1 Bft) W-NW 294 ° 0 min 0,000 mm 0,0 UV-I 0 W/m² 0,7 °C 5,3 °C 3,2 km/h (1 Bft)
10.03.2018 06:31 5,2 °C 73 % 1006,5 hPa 0,0 mm 0,1 km/h (0 Bft) W-NW 294 ° 0 min 0,000 mm 0,0 UV-I 0 W/m² 0,8 °C 5,2 °C 1,6 km/h (1 Bft)
10.03.2018 06:32 5,1 °C 74 % 1006,6 hPa 0,0 mm 0,0 km/h (0 Bft) W-NW 294 ° 0 min 0,000 mm 0,0 UV-I 0 W/m² 0,9 °C 5,1 °C 0,0 km/h (0 Bft)
10.03.2018 06:33 4,9 °C 74 % 1006,6 hPa 0,0 mm 0,0 km/h (0 Bft) W-NW 294 ° 0 min 0,000 mm 0,0 UV-I 0 W/m² 0,7 °C 4,9 °C 0,0 km/h (0 Bft)
10.03.2018 06:34 4,9 °C 74 % 1006,5 hPa 0,0 mm 0,0 km/h (0 Bft) W-NW 294 ° 0 min 0,000 mm 0,0 UV-I 0 W/m² 0,7 °C 4,9 °C 0,0 km/h (0 Bft)
10.03.2018 06:35 4,8 °C 75 % 1006,5 hPa 0,0 mm 1,1 km/h (1 Bft) W-NW 294 ° 0 min 0,000 mm 0,0 UV-I 0 W/m² 0,8 °C 4,8 °C 3,2 km/h (1 Bft)
10.03.2018 06:36 4,7 °C 75 % 1006,6 hPa 0,0 mm 0,8 km/h (0 Bft) W-NW 294 ° 0 min 0,000 mm 0,0 UV-I 0 W/m² 0,7 °C 4,7 °C 1,6 km/h (1 Bft)
10.03.2018 06:37 4,6 °C 76 % 1006,5 hPa 0,0 mm 0,0 km/h (0 Bft) W-NW 294 ° 0 min 0,000 mm 0,0 UV-I 0 W/m² 0,7 °C 4,6 °C 0,0 km/h (0 Bft)
10.03.2018 06:38 4,6 °C 76 % 1006,6 hPa 0,0 mm 0,0 km/h (0 Bft) W-NW 294 ° 0 min 0,000 mm 0,0 UV-I 5 W/m² 0,7 °C 4,6 °C 0,0 km/h (0 Bft)
10.03.2018 06:39 4,5 °C 76 % 1006,5 hPa 0,0 mm 0,0 km/h (0 Bft) W-NW 294 ° 0 min 0,000 mm 0,0 UV-I 0 W/m² 0,6 °C 4,5 °C 0,0 km/h (0 Bft)
10.03.2018 06:40 4,6 °C 76 % 1006,5 hPa 0,0 mm 0,3 km/h (0 Bft) W-NW 294 ° 0 min 0,000 mm 0,0 UV-I 0 W/m² 0,7 °C 4,6 °C 1,6 km/h (1 Bft)
10.03.2018 06:41 4,6 °C 76 % 1006,5 hPa 0,0 mm 0,7 km/h (0 Bft) W-NW 294 ° 0 min 0,000 mm 0,0 UV-I 0 W/m² 0,7 °C 4,6 °C 3,2 km/h (1 Bft)
10.03.2018 06:42 4,6 °C 76 % 1006,5 hPa 0,0 mm 0,0 km/h (0 Bft) W-NW 294 ° 0 min 0,000 mm 0,0 UV-I 0 W/m² 0,7 °C 4,6 °C 0,0 km/h (0 Bft)
10.03.2018 06:43 4,6 °C 75 % 1006,6 hPa 0,0 mm 0,2 km/h (0 Bft) W-NW 294 ° 0 min 0,000 mm 0,0 UV-I 0 W/m² 0,6 °C 4,6 °C 3,2 km/h (1 Bft)
10.03.2018 06:44 4,6 °C 76 % 1006,5 hPa 0,0 mm 2,3 km/h (1 Bft) W-NW 294 ° 0 min 0,000 mm 0,0 UV-I 5 W/m² 0,7 °C 4,6 °C 3,2 km/h (1 Bft)
10.03.2018 06:45 4,6 °C 76 % 1006,5 hPa 0,0 mm 0,6 km/h (0 Bft) W-NW 294 ° 0 min 0,000 mm 0,0 UV-I 5 W/m² 0,7 °C 4,6 °C 1,6 km/h (1 Bft)
10.03.2018 06:46 4,6 °C 76 % 1006,5 hPa 0,0 mm 0,5 km/h (0 Bft) W-NW 294 ° 0 min 0,000 mm 0,0 UV-I 5 W/m² 0,7 °C 4,6 °C 1,6 km/h (1 Bft)
10.03.2018 06:47 4,6 °C 76 % 1006,6 hPa 0,0 mm 0,0 km/h (0 Bft) W-NW 294 ° 0 min 0,000 mm 0,0 UV-I 5 W/m² 0,7 °C 4,6 °C 0,0 km/h (0 Bft)
10.03.2018 06:48 4,5 °C 76 % 1006,6 hPa 0,0 mm 0,5 km/h (0 Bft) W-NW 294 ° 0 min 0,000 mm 0,0 UV-I 7 W/m² 0,6 °C 4,5 °C 1,6 km/h (1 Bft)
10.03.2018 06:49 4,6 °C 76 % 1006,5 hPa 0,0 mm 0,2 km/h (0 Bft) W-NW 294 ° 0 min 0,000 mm 0,0 UV-I 9 W/m² 0,7 °C 4,6 °C 1,6 km/h (1 Bft)
10.03.2018 06:50 4,6 °C 76 % 1006,5 hPa 0,0 mm 0,5 km/h (0 Bft) W-NW 294 ° 0 min 0,000 mm 0,0 UV-I 9 W/m² 0,7 °C 4,6 °C 3,2 km/h (1 Bft)
10.03.2018 06:51 4,6 °C 76 % 1006,5 hPa 0,0 mm 0,0 km/h (0 Bft) W-NW 294 ° 0 min 0,000 mm 0,0 UV-I 9 W/m² 0,7 °C 4,6 °C 0,0 km/h (0 Bft)
10.03.2018 06:52 4,7 °C 75 % 1006,5 hPa 0,0 mm 0,0 km/h (0 Bft) W-NW 294 ° 0 min 0,000 mm 0,0 UV-I 11 W/m² 0,7 °C 4,7 °C 0,0 km/h (0 Bft)
10.03.2018 06:53 4,8 °C 75 % 1006,5 hPa 0,0 mm 0,0 km/h (0 Bft) W-NW 294 ° 0 min 0,000 mm 0,0 UV-I 11 W/m² 0,8 °C 4,8 °C 0,0 km/h (0 Bft)
10.03.2018 06:54 4,8 °C 75 % 1006,5 hPa 0,0 mm 0,0 km/h (0 Bft) W-NW 294 ° 0 min 0,000 mm 0,0 UV-I 12 W/m² 0,8 °C 4,8 °C 0,0 km/h (0 Bft)
10.03.2018 06:55 4,8 °C 75 % 1006,5 hPa 0,0 mm 0,0 km/h (0 Bft) W-NW 294 ° 0 min 0,000 mm 0,0 UV-I 14 W/m² 0,8 °C 4,8 °C 0,0 km/h (0 Bft)
10.03.2018 06:56 4,8 °C 75 % 1006,5 hPa 0,0 mm 0,0 km/h (0 Bft) W-NW 294 ° 0 min 0,000 mm 0,0 UV-I 14 W/m² 0,8 °C 4,8 °C 0,0 km/h (0 Bft)
10.03.2018 06:57 4,8 °C 75 % 1006,4 hPa 0,0 mm 0,0 km/h (0 Bft) W-NW 294 ° 0 min 0,000 mm 0,0 UV-I 14 W/m² 0,8 °C 4,8 °C 0,0 km/h (0 Bft)
10.03.2018 06:58 4,7 °C 75 % 1006,5 hPa 0,0 mm 0,0 km/h (0 Bft) W-NW 294 ° 0 min 0,000 mm 0,0 UV-I 14 W/m² 0,7 °C 4,7 °C 0,0 km/h (0 Bft)
10.03.2018 06:59 4,7 °C 76 % 1006,5 hPa 0,0 mm 0,0 km/h (0 Bft) W-NW 294 ° 0 min 0,000 mm 0,0 UV-I 16 W/m² 0,8 °C 4,7 °C 0,0 km/h (0 Bft)
10.03.2018 07:00 4,7 °C 76 % 1006,4 hPa 0,0 mm 0,0 km/h (0 Bft) W-NW 294 ° 0 min 0,000 mm 0,0 UV-I 16 W/m² 0,8 °C 4,7 °C 0,0 km/h (0 Bft)
10.03.2018 07:01 4,7 °C 76 % 1006,4 hPa 0,0 mm 0,5 km/h (0 Bft) W-NW 294 ° 0 min 0,000 mm 0,0 UV-I 19 W/m² 0,8 °C 4,7 °C 1,6 km/h (1 Bft)
10.03.2018 07:02 4,7 °C 76 % 1006,5 hPa 0,0 mm 0,0 km/h (0 Bft) W-NW 294 ° 0 min 0,000 mm 0,0 UV-I 21 W/m² 0,8 °C 4,7 °C 0,0 km/h (0 Bft)
10.03.2018 07:03 4,8 °C 75 % 1006,5 hPa 0,0 mm 0,0 km/h (0 Bft) W-NW 294 ° 0 min 0,000 mm 0,0 UV-I 21 W/m² 0,8 °C 4,8 °C 0,0 km/h (0 Bft)
10.03.2018 07:04 4,8 °C 75 % 1006,5 hPa 0,0 mm 0,0 km/h (0 Bft) W-NW 294 ° 0 min 0,000 mm 0,0 UV-I 23 W/m² 0,8 °C 4,8 °C 0,0 km/h (0 Bft)
10.03.2018 07:05 4,9 °C 75 % 1006,5 hPa 0,0 mm 0,0 km/h (0 Bft) W-NW 294 ° 0 min 0,000 mm 0,0 UV-I 25 W/m² 0,8 °C 4,9 °C 0,0 km/h (0 Bft)
10.03.2018 07:06 4,9 °C 75 % 1006,5 hPa 0,0 mm 0,2 km/h (0 Bft) W-NW 294 ° 0 min 0,000 mm 0,0 UV-I 23 W/m² 0,8 °C 4,9 °C 1,6 km/h (1 Bft)
10.03.2018 07:07 5,0 °C 74 % 1006,5 hPa 0,0 mm 0,0 km/h (0 Bft) W-NW 294 ° 0 min 0,000 mm 0,0 UV-I 23 W/m² 0,8 °C 5,0 °C 0,0 km/h (0 Bft)
10.03.2018 07:08 5,1 °C 74 % 1006,5 hPa 0,0 mm 0,0 km/h (0 Bft) W-NW 294 ° 0 min 0,000 mm 0,0 UV-I 23 W/m² 0,9 °C 5,1 °C 0,0 km/h (0 Bft)
10.03.2018 07:09 5,1 °C 75 % 1006,5 hPa 0,0 mm 0,0 km/h (0 Bft) W-NW 294 ° 0 min 0,000 mm 0,0 UV-I 23 W/m² 1,0 °C 5,1 °C 0,0 km/h (0 Bft)
10.03.2018 07:10 5,0 °C 75 % 1006,5 hPa 0,0 mm 0,0 km/h (0 Bft) W-NW 294 ° 0 min 0,000 mm 0,0 UV-I 23 W/m² 0,9 °C 5,0 °C 0,0 km/h (0 Bft)
10.03.2018 07:11 5,1 °C 74 % 1006,5 hPa 0,0 mm 0,0 km/h (0 Bft) W-NW 294 ° 0 min 0,000 mm 0,0 UV-I 25 W/m² 0,9 °C 5,1 °C 0,0 km/h (0 Bft)
10.03.2018 07:12 5,2 °C 74 % 1006,6 hPa 0,0 mm 0,0 km/h (0 Bft) W-NW 294 ° 0 min 0,000 mm 0,0 UV-I 25 W/m² 1,0 °C 5,2 °C 0,0 km/h (0 Bft)
10.03.2018 07:13 5,2 °C 74 % 1006,5 hPa 0,0 mm 0,0 km/h (0 Bft) W-NW 294 ° 0 min 0,000 mm 0,0 UV-I 28 W/m² 1,0 °C 5,2 °C 0,0 km/h (0 Bft)
10.03.2018 07:14 5,2 °C 74 % 1006,5 hPa 0,0 mm 0,1 km/h (0 Bft) W-NW 294 ° 0 min 0,000 mm 0,0 UV-I 30 W/m² 1,0 °C 5,2 °C 1,6 km/h (1 Bft)
10.03.2018 07:15 5,3 °C 73 % 1006,5 hPa 0,0 mm 0,0 km/h (0 Bft) W-NW 294 ° 0 min 0,000 mm 0,0 UV-I 32 W/m² 0,9 °C 5,3 °C 0,0 km/h (0 Bft)
10.03.2018 07:16 5,4 °C 73 % 1006,5 hPa 0,0 mm 0,0 km/h (0 Bft) W-NW 294 ° 0 min 0,000 mm 0,0 UV-I 32 W/m² 1,0 °C 5,4 °C 0,0 km/h (0 Bft)
10.03.2018 07:17 5,4 °C 74 % 1006,5 hPa 0,0 mm 0,0 km/h (0 Bft) W-NW 294 ° 0 min 0,000 mm 0,0 UV-I 33 W/m² 1,1 °C 5,4 °C 0,0 km/h (0 Bft)
10.03.2018 07:18 5,5 °C 74 % 1006,5 hPa 0,0 mm 0,0 km/h (0 Bft) W-NW 294 ° 0 min 0,000 mm 0,0 UV-I 37 W/m² 1,2 °C 5,5 °C 0,0 km/h (0 Bft)
10.03.2018 07:19 5,5 °C 74 % 1006,4 hPa 0,0 mm 2,0 km/h (1 Bft) SW 232 ° 0 min 0,000 mm 0,0 UV-I 42 W/m² 1,2 °C 5,5 °C 4,8 km/h (1 Bft)
10.03.2018 07:20 5,6 °C 74 % 1006,4 hPa 0,0 mm 1,8 km/h (1 Bft) S 175 ° 0 min 0,000 mm 0,0 UV-I 44 W/m² 1,3 °C 5,6 °C 3,2 km/h (1 Bft)
10.03.2018 07:21 5,6 °C 74 % 1006,5 hPa 0,0 mm 0,0 km/h (0 Bft) S 175 ° 0 min 0,000 mm 0,0 UV-I 46 W/m² 1,3 °C 5,6 °C 0,0 km/h (0 Bft)
10.03.2018 07:22 5,7 °C 74 % 1006,4 hPa 0,0 mm 0,0 km/h (0 Bft) S 175 ° 0 min 0,000 mm 0,0 UV-I 47 W/m² 1,4 °C 5,7 °C 0,0 km/h (0 Bft)
10.03.2018 07:23 5,7 °C 74 % 1006,5 hPa 0,0 mm 0,0 km/h (0 Bft) S 175 ° 0 min 0,000 mm 0,0 UV-I 47 W/m² 1,4 °C 5,7 °C 0,0 km/h (0 Bft)
10.03.2018 07:24 5,8 °C 73 % 1006,5 hPa 0,0 mm 2,9 km/h (1 Bft) W 279 ° 0 min 0,000 mm 0,0 UV-I 47 W/m² 1,3 °C 5,8 °C 6,4 km/h (2 Bft)
10.03.2018 07:25 5,9 °C 73 % 1006,5 hPa 0,0 mm 4,5 km/h (1 Bft) W-NW 288 ° 0 min 0,000 mm 0,0 UV-I 46 W/m² 1,4 °C 5,9 °C 6,4 km/h (2 Bft)
10.03.2018 07:26 5,9 °C 73 % 1006,5 hPa 0,0 mm 1,9 km/h (1 Bft) W-NW 288 ° 0 min 0,000 mm 0,0 UV-I 46 W/m² 1,4 °C 5,9 °C 4,8 km/h (1 Bft)
10.03.2018 07:27 5,9 °C 73 % 1006,5 hPa 0,0 mm 0,0 km/h (0 Bft) W-NW 288 ° 0 min 0,000 mm 0,0 UV-I 46 W/m² 1,4 °C 5,9 °C 0,0 km/h (0 Bft)
10.03.2018 07:28 5,9 °C 71 % 1006,4 hPa 0,0 mm 0,0 km/h (0 Bft) W-NW 288 ° 0 min 0,000 mm 0,0 UV-I 47 W/m² 1,1 °C 5,9 °C 0,0 km/h (0 Bft)
10.03.2018 07:29 5,9 °C 72 % 1006,5 hPa 0,0 mm 0,0 km/h (0 Bft) W-NW 287 ° 0 min 0,000 mm 0,0 UV-I 49 W/m² 1,2 °C 5,9 °C 0,0 km/h (0 Bft)
10.03.2018 07:30 5,9 °C 73 % 1006,4 hPa 0,0 mm 0,0 km/h (0 Bft) W-NW 288 ° 0 min 0,000 mm 0,0 UV-I 51 W/m² 1,4 °C 5,9 °C 0,0 km/h (0 Bft)
10.03.2018 07:31 5,8 °C 73 % 1006,4 hPa 0,0 mm 0,0 km/h (0 Bft) W-NW 288 ° 0 min 0,000 mm 0,0 UV-I 53 W/m² 1,3 °C 5,8 °C 0,0 km/h (0 Bft)
10.03.2018 07:32 5,8 °C 73 % 1006,5 hPa 0,0 mm 0,0 km/h (0 Bft) W-NW 288 ° 0 min 0,000 mm 0,0 UV-I 53 W/m² 1,3 °C 5,8 °C 0,0 km/h (0 Bft)
10.03.2018 07:33 5,8 °C 73 % 1006,5 hPa 0,0 mm 0,0 km/h (0 Bft) W-NW 287 ° 0 min 0,000 mm 0,0 UV-I 53 W/m² 1,3 °C 5,8 °C 0,0 km/h (0 Bft)
10.03.2018 07:34 5,8 °C 73 % 1006,5 hPa 0,0 mm 0,0 km/h (0 Bft) W-NW 288 ° 0 min 0,000 mm 0,0 UV-I 51 W/m² 1,3 °C 5,8 °C 0,0 km/h (0 Bft)
10.03.2018 07:35 5,8 °C 72 % 1006,5 hPa 0,0 mm 0,0 km/h (0 Bft) W-NW 288 ° 0 min 0,000 mm 0,0 UV-I 51 W/m² 1,2 °C 5,8 °C 0,0 km/h (0 Bft)
10.03.2018 07:36 5,8 °C 72 % 1006,5 hPa 0,0 mm 0,0 km/h (0 Bft) W-NW 288 ° 0 min 0,000 mm 0,0 UV-I 51 W/m² 1,2 °C 5,8 °C 0,0 km/h (0 Bft)
10.03.2018 07:37 5,8 °C 73 % 1006,5 hPa 0,0 mm 0,0 km/h (0 Bft) W-NW 288 ° 0 min 0,000 mm 0,0 UV-I 51 W/m² 1,3 °C 5,8 °C 0,0 km/h (0 Bft)
10.03.2018 07:38 5,8 °C 72 % 1006,5 hPa 0,0 mm 0,0 km/h (0 Bft) W-NW 288 ° 0 min 0,000 mm 0,0 UV-I 49 W/m² 1,2 °C 5,8 °C 0,0 km/h (0 Bft)
10.03.2018 07:39 5,8 °C 73 % 1006,5 hPa 0,0 mm 0,0 km/h (0 Bft) W-NW 287 ° 0 min 0,000 mm 0,0 UV-I 49 W/m² 1,3 °C 5,8 °C 0,0 km/h (0 Bft)
10.03.2018 07:40 5,8 °C 73 % 1006,5 hPa 0,0 mm 0,0 km/h (0 Bft) W-NW 287 ° 0 min 0,000 mm 0,0 UV-I 47 W/m² 1,3 °C 5,8 °C 0,0 km/h (0 Bft)
10.03.2018 07:41 5,8 °C 72 % 1006,5 hPa 0,0 mm 0,0 km/h (0 Bft) W-NW 288 ° 0 min 0,000 mm 0,0 UV-I 47 W/m² 1,2 °C 5,8 °C 0,0 km/h (0 Bft)
10.03.2018 07:42 5,8 °C 72 % 1006,5 hPa 0,0 mm 0,8 km/h (0 Bft) W-NW 287 ° 0 min 0,000 mm 0,0 UV-I 47 W/m² 1,2 °C 5,8 °C 1,6 km/h (1 Bft)
10.03.2018 07:43 5,8 °C 73 % 1006,5 hPa 0,0 mm 1,0 km/h (0 Bft) W-NW 294 ° 0 min 0,000 mm 0,0 UV-I 46 W/m² 1,3 °C 5,8 °C 4,8 km/h (1 Bft)
10.03.2018 07:44 5,8 °C 72 % 1006,6 hPa 0,0 mm 1,2 km/h (1 Bft) W-NW 294 ° 0 min 0,000 mm 0,0 UV-I 46 W/m² 1,2 °C 5,8 °C 3,2 km/h (1 Bft)
10.03.2018 07:45 5,9 °C 72 % 1006,6 hPa 0,0 mm 0,0 km/h (0 Bft) W-NW 294 ° 0 min 0,000 mm 0,0 UV-I 46 W/m² 1,2 °C 5,9 °C 0,0 km/h (0 Bft)
10.03.2018 07:46 5,9 °C 72 % 1006,6 hPa 0,0 mm 0,0 km/h (0 Bft) W-NW 294 ° 0 min 0,000 mm 0,0 UV-I 46 W/m² 1,2 °C 5,9 °C 0,0 km/h (0 Bft)
10.03.2018 07:47 6,0 °C 72 % 1006,5 hPa 0,0 mm 0,0 km/h (0 Bft) W-NW 294 ° 0 min 0,000 mm 0,0 UV-I 46 W/m² 1,3 °C 6,0 °C 0,0 km/h (0 Bft)
10.03.2018 07:48 6,1 °C 73 % 1006,5 hPa 0,0 mm 1,0 km/h (0 Bft) S-SW 200 ° 0 min 0,000 mm 0,0 UV-I 46 W/m² 1,6 °C 6,1 °C 3,2 km/h (1 Bft)
10.03.2018 07:49 6,1 °C 72 % 1006,5 hPa 0,0 mm 1,1 km/h (1 Bft) S-SW 200 ° 0 min 0,000 mm 0,0 UV-I 46 W/m² 1,4 °C 6,1 °C 4,8 km/h (1 Bft)
10.03.2018 07:50 6,2 °C 71 % 1006,5 hPa 0,0 mm 0,0 km/h (0 Bft) S-SW 200 ° 0 min 0,000 mm 0,0 UV-I 46 W/m² 1,3 °C 6,2 °C 0,0 km/h (0 Bft)
10.03.2018 07:51 6,3 °C 71 % 1006,5 hPa 0,0 mm 0,0 km/h (0 Bft) S-SW 200 ° 0 min 0,000 mm 0,0 UV-I 46 W/m² 1,4 °C 6,3 °C 0,0 km/h (0 Bft)
10.03.2018 07:52 6,3 °C 71 % 1006,5 hPa 0,0 mm 0,2 km/h (0 Bft) S-SW 200 ° 0 min 0,000 mm 0,0 UV-I 46 W/m² 1,4 °C 6,3 °C 1,6 km/h (1 Bft)
10.03.2018 07:53 6,4 °C 70 % 1006,5 hPa 0,0 mm 0,7 km/h (0 Bft) S-SW 200 ° 0 min 0,000 mm 0,0 UV-I 46 W/m² 1,3 °C 6,4 °C 1,6 km/h (1 Bft)
10.03.2018 07:54 6,5 °C 70 % 1006,5 hPa 0,0 mm 0,9 km/h (0 Bft) S 175 ° 0 min 0,000 mm 0,0 UV-I 47 W/m² 1,4 °C 6,5 °C 3,2 km/h (1 Bft)
10.03.2018 07:55 6,5 °C 71 % 1006,5 hPa 0,0 mm 1,0 km/h (0 Bft) S 172 ° 0 min 0,000 mm 0,0 UV-I 47 W/m² 1,6 °C 6,5 °C 8,0 km/h (2 Bft)
10.03.2018 07:56 6,7 °C 69 % 1006,5 hPa 0,0 mm 6,3 km/h (2 Bft) S 178 ° 0 min 0,000 mm 0,0 UV-I 49 W/m² 1,4 °C 5,6 °C 8,0 km/h (2 Bft)
10.03.2018 07:57 6,8 °C 66 % 1006,4 hPa 0,0 mm 3,7 km/h (1 Bft) S-SO 164 ° 0 min 0,000 mm 0,0 UV-I 49 W/m² 0,9 °C 6,8 °C 6,4 km/h (2 Bft)
10.03.2018 07:58 7,1 °C 67 % 1006,4 hPa 0,0 mm 2,4 km/h (1 Bft) S 183 ° 0 min 0,000 mm 0,0 UV-I 51 W/m² 1,4 °C 7,1 °C 4,8 km/h (1 Bft)
10.03.2018 07:59 7,1 °C 68 % 1006,4 hPa 0,0 mm 1,6 km/h (1 Bft) S 180 ° 0 min 0,000 mm 0,0 UV-I 51 W/m² 1,6 °C 7,1 °C 3,2 km/h (1 Bft)
10.03.2018 08:00 7,0 °C 69 % 1006,5 hPa 0,0 mm 1,5 km/h (1 Bft) S 180 ° 0 min 0,000 mm 0,0 UV-I 53 W/m² 1,7 °C 7,0 °C 4,8 km/h (1 Bft)
10.03.2018 08:01 6,9 °C 70 % 1006,5 hPa 0,0 mm 1,5 km/h (1 Bft) S 180 ° 0 min 0,026 mm 0,0 UV-I 54 W/m² 1,8 °C 6,9 °C 4,8 km/h (1 Bft)
10.03.2018 08:02 6,8 °C 70 % 1006,5 hPa 0,0 mm 0,0 km/h (0 Bft) S 180 ° 0 min 0,000 mm 0,0 UV-I 56 W/m² 1,7 °C 6,8 °C 0,0 km/h (0 Bft)
10.03.2018 08:03 6,8 °C 70 % 1006,5 hPa 0,0 mm 0,0 km/h (0 Bft) S 180 ° 0 min 0,000 mm 0,0 UV-I 60 W/m² 1,7 °C 6,8 °C 0,0 km/h (0 Bft)
10.03.2018 08:04 6,7 °C 69 % 1006,5 hPa 0,0 mm 0,0 km/h (0 Bft) S 180 ° 0 min 0,000 mm 0,0 UV-I 63 W/m² 1,4 °C 6,7 °C 0,0 km/h (0 Bft)
10.03.2018 08:05 6,7 °C 70 % 1006,5 hPa 0,0 mm 0,1 km/h (0 Bft) S 180 ° 0 min 0,000 mm 0,0 UV-I 65 W/m² 1,6 °C 6,7 °C 1,6 km/h (1 Bft)
10.03.2018 08:06 6,6 °C 71 % 1006,5 hPa 0,0 mm 0,5 km/h (0 Bft) S 180 ° 0 min 0,000 mm 0,0 UV-I 69 W/m² 1,7 °C 6,6 °C 1,6 km/h (1 Bft)
10.03.2018 08:07 6,6 °C 71 % 1006,6 hPa 0,0 mm 0,0 km/h (0 Bft) S 180 ° 0 min 0,000 mm 0,0 UV-I 69 W/m² 1,7 °C 6,6 °C 0,0 km/h (0 Bft)
10.03.2018 08:08 6,5 °C 71 % 1006,6 hPa 0,0 mm 0,0 km/h (0 Bft) S 180 ° 0 min 0,000 mm 0,0 UV-I 69 W/m² 1,6 °C 6,5 °C 0,0 km/h (0 Bft)
10.03.2018 08:09 6,5 °C 70 % 1006,6 hPa 0,0 mm 0,0 km/h (0 Bft) S 180 ° 0 min 0,000 mm 0,0 UV-I 69 W/m² 1,4 °C 6,5 °C 0,0 km/h (0 Bft)
10.03.2018 08:10 6,5 °C 70 % 1006,6 hPa 0,0 mm 0,0 km/h (0 Bft) S 180 ° 0 min 0,000 mm 0,0 UV-I 70 W/m² 1,4 °C 6,5 °C 0,0 km/h (0 Bft)
10.03.2018 08:11 6,6 °C 69 % 1006,6 hPa 0,0 mm 0,0 km/h (0 Bft) S 180 ° 0 min 0,000 mm 0,0 UV-I 70 W/m² 1,3 °C 6,6 °C 0,0 km/h (0 Bft)
10.03.2018 08:12 6,6 °C 69 % 1006,6 hPa 0,0 mm 0,0 km/h (0 Bft) S 180 ° 0 min 0,000 mm 0,0 UV-I 70 W/m² 1,3 °C 6,6 °C 0,0 km/h (0 Bft)
10.03.2018 08:13 6,7 °C 69 % 1006,6 hPa 0,0 mm 0,0 km/h (0 Bft) S 180 ° 0 min 0,000 mm 0,0 UV-I 72 W/m² 1,4 °C 6,7 °C 0,0 km/h (0 Bft)
10.03.2018 08:14 6,7 °C 68 % 1006,6 hPa 0,0 mm 0,0 km/h (0 Bft) S 180 ° 0 min 0,000 mm 0,0 UV-I 74 W/m² 1,2 °C 6,7 °C 0,0 km/h (0 Bft)
10.03.2018 08:15 6,8 °C 68 % 1006,5 hPa 0,0 mm 0,0 km/h (0 Bft) S 180 ° 0 min 0,000 mm 0,5 UV-I 77 W/m² 1,3 °C 6,8 °C 0,0 km/h (0 Bft)
10.03.2018 08:16 6,8 °C 69 % 1006,4 hPa 0,0 mm 0,0 km/h (0 Bft) S 180 ° 0 min 0,000 mm 0,5 UV-I 81 W/m² 1,5 °C 6,8 °C 0,0 km/h (0 Bft)
10.03.2018 08:17 6,8 °C 70 % 1006,5 hPa 0,0 mm 0,0 km/h (0 Bft) S 180 ° 0 min 0,000 mm 0,5 UV-I 86 W/m² 1,7 °C 6,8 °C 0,0 km/h (0 Bft)
10.03.2018 08:18 6,8 °C 69 % 1006,5 hPa 0,0 mm 0,0 km/h (0 Bft) S 180 ° 0 min 0,000 mm 0,5 UV-I 86 W/m² 1,5 °C 6,8 °C 0,0 km/h (0 Bft)
10.03.2018 08:19 6,8 °C 69 % 1006,5 hPa 0,0 mm 0,0 km/h (0 Bft) S 180 ° 0 min 0,000 mm 0,5 UV-I 88 W/m² 1,5 °C 6,8 °C 0,0 km/h (0 Bft)
10.03.2018 08:20 6,8 °C 70 % 1006,5 hPa 0,0 mm 0,0 km/h (0 Bft) S 180 ° 0 min 0,000 mm 0,5 UV-I 90 W/m² 1,7 °C 6,8 °C 0,0 km/h (0 Bft)
10.03.2018 08:21 6,8 °C 71 % 1006,5 hPa 0,0 mm 0,1 km/h (0 Bft) S 180 ° 0 min 0,000 mm 0,5 UV-I 90 W/m² 1,9 °C 6,8 °C 1,6 km/h (1 Bft)
10.03.2018 08:22 6,8 °C 71 % 1006,5 hPa 0,0 mm 0,2 km/h (0 Bft) S 180 ° 0 min 0,000 mm 0,5 UV-I 91 W/m² 1,9 °C 6,8 °C 1,6 km/h (1 Bft)
10.03.2018 08:23 6,7 °C 71 % 1006,5 hPa 0,0 mm 0,2 km/h (0 Bft) S 180 ° 0 min 0,000 mm 0,5 UV-I 95 W/m² 1,8 °C 6,7 °C 1,6 km/h (1 Bft)
10.03.2018 08:24 6,7 °C 72 % 1006,5 hPa 0,0 mm 1,4 km/h (1 Bft) NW 307 ° 0 min 0,000 mm 0,5 UV-I 97 W/m² 2,0 °C 6,7 °C 3,2 km/h (1 Bft)
10.03.2018 08:25 6,7 °C 71 % 1006,6 hPa 0,0 mm 0,0 km/h (0 Bft) NW 307 ° 0 min 0,000 mm 0,6 UV-I 100 W/m² 1,8 °C 6,7 °C 0,0 km/h (0 Bft)
10.03.2018 08:26 6,7 °C 72 % 1006,6 hPa 0,0 mm 0,0 km/h (0 Bft) NW 307 ° 0 min 0,000 mm 0,6 UV-I 104 W/m² 2,0 °C 6,7 °C 0,0 km/h (0 Bft)
10.03.2018 08:27 6,8 °C 72 % 1006,6 hPa 0,0 mm 0,0 km/h (0 Bft) NW 307 ° 0 min 0,000 mm 0,6 UV-I 107 W/m² 2,1 °C 6,8 °C 0,0 km/h (0 Bft)
10.03.2018 08:28 6,8 °C 72 % 1006,6 hPa 0,0 mm 0,0 km/h (0 Bft) NW 307 ° 0 min 0,000 mm 0,6 UV-I 113 W/m² 2,1 °C 6,8 °C 0,0 km/h (0 Bft)
10.03.2018 08:29 6,9 °C 72 % 1006,6 hPa 0,0 mm 0,0 km/h (0 Bft) NW 307 ° 0 min 0,000 mm 0,6 UV-I 118 W/m² 2,2 °C 6,9 °C 0,0 km/h (0 Bft)
10.03.2018 08:30 6,9 °C 73 % 1006,6 hPa 0,0 mm 0,0 km/h (0 Bft) NW 307 ° 0 min 0,000 mm 0,7 UV-I 120 W/m² 2,4 °C 6,9 °C 0,0 km/h (0 Bft)
10.03.2018 08:31 6,9 °C 71 % 1006,6 hPa 0,0 mm 0,9 km/h (0 Bft) NW 307 ° 0 min 0,000 mm 0,7 UV-I 121 W/m² 2,0 °C 6,9 °C 3,2 km/h (1 Bft)
10.03.2018 08:32 7,1 °C 71 % 1006,6 hPa 0,0 mm 0,4 km/h (0 Bft) NW 307 ° 0 min 0,000 mm 0,7 UV-I 121 W/m² 2,2 °C 7,1 °C 1,6 km/h (1 Bft)
10.03.2018 08:33 7,1 °C 71 % 1006,5 hPa 0,0 mm 0,0 km/h (0 Bft) NW 307 ° 0 min 0,000 mm 0,7 UV-I 123 W/m² 2,2 °C 7,1 °C 0,0 km/h (0 Bft)
10.03.2018 08:34 7,2 °C 70 % 1006,5 hPa 0,0 mm 0,0 km/h (0 Bft) NW 307 ° 0 min 0,000 mm 0,7 UV-I 121 W/m² 2,1 °C 7,2 °C 0,0 km/h (0 Bft)
10.03.2018 08:35 7,3 °C 70 % 1006,5 hPa 0,0 mm 0,1 km/h (0 Bft) NW 307 ° 0 min 0,000 mm 0,7 UV-I 123 W/m² 2,2 °C 7,3 °C 1,6 km/h (1 Bft)
10.03.2018 08:36 7,3 °C 72 % 1006,5 hPa 0,0 mm 0,0 km/h (0 Bft) NW 307 ° 0 min 0,000 mm 0,7 UV-I 125 W/m² 2,6 °C 7,3 °C 0,0 km/h (0 Bft)
10.03.2018 08:37 7,4 °C 71 % 1006,5 hPa 0,0 mm 0,0 km/h (0 Bft) NW 307 ° 0 min 0,000 mm 0,8 UV-I 127 W/m² 2,5 °C 7,4 °C 0,0 km/h (0 Bft)
10.03.2018 08:38 7,4 °C 69 % 1006,4 hPa 0,0 mm 0,0 km/h (0 Bft) NW 307 ° 0 min 0,000 mm 0,8 UV-I 130 W/m² 2,1 °C 7,4 °C 0,0 km/h (0 Bft)
10.03.2018 08:39 7,6 °C 69 % 1006,4 hPa 0,0 mm 0,0 km/h (0 Bft) NW 307 ° 0 min 0,000 mm 0,8 UV-I 132 W/m² 2,3 °C 7,6 °C 0,0 km/h (0 Bft)
10.03.2018 08:40 7,6 °C 70 % 1006,4 hPa 0,0 mm 0,0 km/h (0 Bft) NW 307 ° 0 min 0,000 mm 0,8 UV-I 134 W/m² 2,5 °C 7,6 °C 0,0 km/h (0 Bft)
10.03.2018 08:41 7,7 °C 68 % 1006,4 hPa 0,0 mm 0,0 km/h (0 Bft) NW 307 ° 0 min 0,000 mm 0,8 UV-I 139 W/m² 2,2 °C 7,7 °C 0,0 km/h (0 Bft)
10.03.2018 08:42 7,8 °C 68 % 1006,3 hPa 0,0 mm 0,0 km/h (0 Bft) NW 307 ° 0 min 0,000 mm 0,9 UV-I 142 W/m² 2,3 °C 7,8 °C 0,0 km/h (0 Bft)
10.03.2018 08:43 7,9 °C 67 % 1006,3 hPa 0,0 mm 0,1 km/h (0 Bft) NW 307 ° 0 min 0,000 mm 0,9 UV-I 144 W/m² 2,2 °C 7,9 °C 1,6 km/h (1 Bft)
10.03.2018 08:44 7,8 °C 67 % 1006,3 hPa 0,0 mm 0,7 km/h (0 Bft) NW 307 ° 0 min 0,000 mm 0,9 UV-I 146 W/m² 2,1 °C 7,8 °C 1,6 km/h (1 Bft)
10.03.2018 08:45 7,9 °C 65 % 1006,2 hPa 0,0 mm 0,5 km/h (0 Bft) NW 307 ° 0 min 0,000 mm 0,9 UV-I 148 W/m² 1,7 °C 7,9 °C 3,2 km/h (1 Bft)
10.03.2018 08:46 8,1 °C 65 % 1006,2 hPa 0,0 mm 0,1 km/h (0 Bft) NW 307 ° 0 min 0,000 mm 0,9 UV-I 149 W/m² 1,9 °C 8,1 °C 1,6 km/h (1 Bft)
10.03.2018 08:47 8,2 °C 68 % 1006,2 hPa 0,0 mm 0,0 km/h (0 Bft) NW 307 ° 0 min 0,000 mm 1,0 UV-I 155 W/m² 2,7 °C 8,2 °C 0,0 km/h (0 Bft)
10.03.2018 08:48 8,2 °C 68 % 1006,2 hPa 0,0 mm 0,1 km/h (0 Bft) NW 307 ° 0 min 0,000 mm 1,0 UV-I 156 W/m² 2,7 °C 8,2 °C 1,6 km/h (1 Bft)
10.03.2018 08:49 8,2 °C 66 % 1006,2 hPa 0,0 mm 2,1 km/h (1 Bft) NW 307 ° 0 min 0,000 mm 1,0 UV-I 160 W/m² 2,2 °C 8,2 °C 4,8 km/h (1 Bft)
10.03.2018 08:50 8,3 °C 63 % 1006,3 hPa 0,0 mm 0,0 km/h (0 Bft) NW 307 ° 0 min 0,000 mm 1,0 UV-I 163 W/m² 1,7 °C 8,3 °C 0,0 km/h (0 Bft)
10.03.2018 08:51 8,4 °C 64 % 1006,3 hPa 0,0 mm 1,1 km/h (1 Bft) NW 307 ° 0 min 0,000 mm 1,0 UV-I 167 W/m² 2,0 °C 8,4 °C 3,2 km/h (1 Bft)
10.03.2018 08:52 8,6 °C 64 % 1006,3 hPa 0,0 mm 1,5 km/h (1 Bft) NW 307 ° 0 min 0,000 mm 1,0 UV-I 172 W/m² 2,2 °C 8,6 °C 3,2 km/h (1 Bft)
10.03.2018 08:53 8,7 °C 63 % 1006,3 hPa 0,0 mm 0,0 km/h (0 Bft) NW 307 ° 0 min 0,000 mm 1,0 UV-I 169 W/m² 2,1 °C 8,7 °C 0,0 km/h (0 Bft)
10.03.2018 08:54 8,8 °C 64 % 1006,3 hPa 0,0 mm 0,3 km/h (0 Bft) NW 307 ° 0 min 0,000 mm 1,0 UV-I 165 W/m² 2,4 °C 8,8 °C 1,6 km/h (1 Bft)
10.03.2018 08:55 8,8 °C 65 % 1006,3 hPa 0,0 mm 2,0 km/h (1 Bft) NW 307 ° 0 min 0,000 mm 1,0 UV-I 163 W/m² 2,6 °C 8,8 °C 3,2 km/h (1 Bft)
10.03.2018 08:56 8,9 °C 64 % 1006,3 hPa 0,0 mm 0,3 km/h (0 Bft) NW 307 ° 0 min 0,000 mm 1,1 UV-I 163 W/m² 2,5 °C 8,9 °C 1,6 km/h (1 Bft)
10.03.2018 08:57 8,9 °C 65 % 1006,3 hPa 0,0 mm 2,4 km/h (1 Bft) NW 312 ° 0 min 0,000 mm 1,1 UV-I 165 W/m² 2,7 °C 8,9 °C 4,8 km/h (1 Bft)
10.03.2018 08:58 8,9 °C 65 % 1006,3 hPa 0,0 mm 4,4 km/h (1 Bft) N-NW 331 ° 0 min 0,000 mm 1,1 UV-I 174 W/m² 2,7 °C 8,9 °C 6,4 km/h (2 Bft)
10.03.2018 08:59 8,9 °C 65 % 1006,3 hPa 0,0 mm 2,2 km/h (1 Bft) N-NW 331 ° 0 min 0,000 mm 1,2 UV-I 178 W/m² 2,7 °C 8,9 °C 3,2 km/h (1 Bft)
10.03.2018 09:00 8,9 °C 65 % 1006,3 hPa 0,0 mm 3,6 km/h (1 Bft) N-NW 338 ° 0 min 0,000 mm 1,2 UV-I 183 W/m² 2,7 °C 8,9 °C 4,8 km/h (1 Bft)
10.03.2018 09:01 8,9 °C 65 % 1006,3 hPa 0,0 mm 3,5 km/h (1 Bft) N-NW 345 ° 0 min 0,051 mm 1,2 UV-I 188 W/m² 2,7 °C 8,9 °C 6,4 km/h (2 Bft)
10.03.2018 09:02 8,9 °C 64 % 1006,3 hPa 0,0 mm 4,2 km/h (1 Bft) N 350 ° 0 min 0,000 mm 1,2 UV-I 193 W/m² 2,5 °C 8,9 °C 4,8 km/h (1 Bft)
10.03.2018 09:03 8,9 °C 64 % 1006,3 hPa 0,0 mm 4,0 km/h (1 Bft) N 351 ° 0 min 0,000 mm 1,2 UV-I 193 W/m² 2,5 °C 8,9 °C 4,8 km/h (1 Bft)
10.03.2018 09:04 8,9 °C 65 % 1006,3 hPa 0,0 mm 2,7 km/h (1 Bft) N 351 ° 0 min 0,000 mm 1,2 UV-I 193 W/m² 2,7 °C 8,9 °C 3,2 km/h (1 Bft)
10.03.2018 09:05 9,0 °C 65 % 1006,3 hPa 0,0 mm 1,2 km/h (1 Bft) N 351 ° 0 min 0,000 mm 1,2 UV-I 190 W/m² 2,8 °C 9,0 °C 1,6 km/h (1 Bft)
10.03.2018 09:06 9,0 °C 64 % 1006,3 hPa 0,0 mm 0,0 km/h (0 Bft) N 351 ° 0 min 0,000 mm 1,2 UV-I 188 W/m² 2,6 °C 9,0 °C 0,0 km/h (0 Bft)
10.03.2018 09:07 8,9 °C 65 % 1006,3 hPa 0,0 mm 0,0 km/h (0 Bft) N 351 ° 0 min 0,000 mm 1,2 UV-I 190 W/m² 2,7 °C 8,9 °C 0,0 km/h (0 Bft)
10.03.2018 09:08 9,0 °C 63 % 1006,4 hPa 0,0 mm 0,0 km/h (0 Bft) N 351 ° 0 min 0,000 mm 1,2 UV-I 190 W/m² 2,3 °C 9,0 °C 0,0 km/h (0 Bft)
10.03.2018 09:09 9,1 °C 63 % 1006,3 hPa 0,0 mm 0,0 km/h (0 Bft) N 351 ° 0 min 0,000 mm 1,2 UV-I 199 W/m² 2,4 °C 9,1 °C 0,0 km/h (0 Bft)
10.03.2018 09:10 9,1 °C 65 % 1006,3 hPa 0,0 mm 0,0 km/h (0 Bft) N 351 ° 0 min 0,000 mm 1,3 UV-I 199 W/m² 2,9 °C 9,1 °C 0,0 km/h (0 Bft)
10.03.2018 09:11 9,1 °C 66 % 1006,3 hPa 0,0 mm 0,0 km/h (0 Bft) N 351 ° 0 min 0,000 mm 1,2 UV-I 195 W/m² 3,1 °C 9,1 °C 0,0 km/h (0 Bft)
10.03.2018 09:12 9,1 °C 67 % 1006,3 hPa 0,0 mm 1,4 km/h (1 Bft) N 350 ° 0 min 0,000 mm 1,2 UV-I 192 W/m² 3,3 °C 9,1 °C 3,2 km/h (1 Bft)
10.03.2018 09:13 9,2 °C 66 % 1006,3 hPa 0,0 mm 2,5 km/h (1 Bft) N 360 ° 0 min 0,000 mm 1,2 UV-I 190 W/m² 3,2 °C 9,2 °C 3,2 km/h (1 Bft)
10.03.2018 09:14 9,2 °C 64 % 1006,3 hPa 0,0 mm 1,7 km/h (1 Bft) N 360 ° 0 min 0,000 mm 1,2 UV-I 186 W/m² 2,8 °C 9,2 °C 3,2 km/h (1 Bft)
10.03.2018 09:15 9,2 °C 64 % 1006,2 hPa 0,0 mm 0,2 km/h (0 Bft) N 360 ° 0 min 0,000 mm 1,1 UV-I 183 W/m² 2,8 °C 9,2 °C 1,6 km/h (1 Bft)
10.03.2018 09:16 9,2 °C 65 % 1006,3 hPa 0,0 mm 0,0 km/h (0 Bft) N 360 ° 0 min 0,000 mm 1,1 UV-I 179 W/m² 3,0 °C 9,2 °C 0,0 km/h (0 Bft)
10.03.2018 09:17 9,2 °C 63 % 1006,3 hPa 0,0 mm 0,0 km/h (0 Bft) N 360 ° 0 min 0,000 mm 1,1 UV-I 178 W/m² 2,5 °C 9,2 °C 0,0 km/h (0 Bft)
10.03.2018 09:18 9,2 °C 64 % 1006,3 hPa 0,0 mm 0,0 km/h (0 Bft) N 360 ° 0 min 0,000 mm 1,1 UV-I 176 W/m² 2,8 °C 9,2 °C 0,0 km/h (0 Bft)
10.03.2018 09:19 9,2 °C 64 % 1006,3 hPa 0,0 mm 0,0 km/h (0 Bft) N 360 ° 0 min 0,000 mm 1,1 UV-I 172 W/m² 2,8 °C 9,2 °C 0,0 km/h (0 Bft)
10.03.2018 09:20 9,2 °C 64 % 1006,2 hPa 0,0 mm 0,0 km/h (0 Bft) N 360 ° 0 min 0,000 mm 1,1 UV-I 171 W/m² 2,8 °C 9,2 °C 0,0 km/h (0 Bft)
10.03.2018 09:21 9,3 °C 64 % 1006,2 hPa 0,0 mm 0,0 km/h (0 Bft) N 360 ° 0 min 0,000 mm 1,1 UV-I 169 W/m² 2,8 °C 9,3 °C 0,0 km/h (0 Bft)
10.03.2018 09:22 9,3 °C 64 % 1006,2 hPa 0,0 mm 0,0 km/h (0 Bft) N 360 ° 0 min 0,000 mm 1,1 UV-I 171 W/m² 2,8 °C 9,3 °C 0,0 km/h (0 Bft)
10.03.2018 09:23 9,4 °C 65 % 1006,2 hPa 0,0 mm 0,0 km/h (0 Bft) N 360 ° 0 min 0,000 mm 1,1 UV-I 172 W/m² 3,2 °C 9,4 °C 0,0 km/h (0 Bft)
10.03.2018 09:24 9,4 °C 64 % 1006,3 hPa 0,0 mm 0,0 km/h (0 Bft) N 360 ° 0 min 0,000 mm 1,1 UV-I 171 W/m² 2,9 °C 9,4 °C 0,0 km/h (0 Bft)
10.03.2018 09:25 9,5 °C 64 % 1006,3 hPa 0,0 mm 0,0 km/h (0 Bft) N 360 ° 0 min 0,000 mm 1,1 UV-I 169 W/m² 3,0 °C 9,5 °C 0,0 km/h (0 Bft)
10.03.2018 09:26 9,6 °C 64 % 1006,2 hPa 0,0 mm 0,0 km/h (0 Bft) N 360 ° 0 min 0,000 mm 1,1 UV-I 165 W/m² 3,1 °C 9,6 °C 0,0 km/h (0 Bft)
10.03.2018 09:27 9,5 °C 65 % 1006,4 hPa 0,0 mm 0,0 km/h (0 Bft) N 360 ° 0 min 0,000 mm 1,0 UV-I 160 W/m² 3,3 °C 9,5 °C 0,0 km/h (0 Bft)
10.03.2018 09:28 9,6 °C 65 % 1006,4 hPa 0,0 mm 0,0 km/h (0 Bft) N 360 ° 0 min 0,000 mm 1,0 UV-I 155 W/m² 3,4 °C 9,6 °C 0,0 km/h (0 Bft)
10.03.2018 09:29 9,6 °C 64 % 1006,4 hPa 0,0 mm 0,0 km/h (0 Bft) N 360 ° 0 min 0,000 mm 1,0 UV-I 146 W/m² 3,1 °C 9,6 °C 0,0 km/h (0 Bft)
10.03.2018 09:30 9,6 °C 65 % 1006,3 hPa 0,0 mm 0,0 km/h (0 Bft) N 360 ° 0 min 0,000 mm 0,9 UV-I 141 W/m² 3,4 °C 9,6 °C 0,0 km/h (0 Bft)
10.03.2018 09:31 9,6 °C 66 % 1006,3 hPa 0,0 mm 0,0 km/h (0 Bft) N 360 ° 0 min 0,000 mm 0,9 UV-I 137 W/m² 3,6 °C 9,6 °C 0,0 km/h (0 Bft)
10.03.2018 09:32 9,6 °C 64 % 1006,3 hPa 0,0 mm 0,0 km/h (0 Bft) N 360 ° 0 min 0,000 mm 0,9 UV-I 134 W/m² 3,1 °C 9,6 °C 0,0 km/h (0 Bft)
10.03.2018 09:33 9,6 °C 63 % 1006,3 hPa 0,0 mm 0,0 km/h (0 Bft) N 360 ° 0 min 0,000 mm 0,9 UV-I 128 W/m² 2,9 °C 9,6 °C 0,0 km/h (0 Bft)
10.03.2018 09:34 9,6 °C 63 % 1006,3 hPa 0,0 mm 0,0 km/h (0 Bft) N 360 ° 0 min 0,000 mm 0,9 UV-I 128 W/m² 2,9 °C 9,6 °C 0,0 km/h (0 Bft)
10.03.2018 09:35 9,6 °C 65 % 1006,2 hPa 0,0 mm 0,0 km/h (0 Bft) N 360 ° 0 min 0,000 mm 0,9 UV-I 127 W/m² 3,4 °C 9,6 °C 0,0 km/h (0 Bft)
10.03.2018 09:36 9,6 °C 65 % 1006,3 hPa 0,0 mm 0,2 km/h (0 Bft) N 360 ° 0 min 0,000 mm 0,9 UV-I 123 W/m² 3,4 °C 9,6 °C 1,6 km/h (1 Bft)
10.03.2018 09:37 9,6 °C 65 % 1006,3 hPa 0,0 mm 0,1 km/h (0 Bft) N 360 ° 0 min 0,000 mm 0,8 UV-I 121 W/m² 3,4 °C 9,6 °C 1,6 km/h (1 Bft)
10.03.2018 09:38 9,6 °C 65 % 1006,3 hPa 0,0 mm 0,7 km/h (0 Bft) N 360 ° 0 min 0,000 mm 0,8 UV-I 120 W/m² 3,4 °C 9,6 °C 1,6 km/h (1 Bft)
10.03.2018 09:39 9,7 °C 66 % 1006,3 hPa 0,0 mm 0,4 km/h (0 Bft) N 360 ° 0 min 0,000 mm 0,8 UV-I 118 W/m² 3,7 °C 9,7 °C 1,6 km/h (1 Bft)
10.03.2018 09:40 9,7 °C 65 % 1006,4 hPa 0,0 mm 0,0 km/h (0 Bft) N 360 ° 0 min 0,000 mm 0,8 UV-I 118 W/m² 3,4 °C 9,7 °C 0,0 km/h (0 Bft)
10.03.2018 09:41 9,8 °C 63 % 1006,4 hPa 0,0 mm 0,0 km/h (0 Bft) N 360 ° 0 min 0,000 mm 0,8 UV-I 120 W/m² 3,1 °C 9,8 °C 0,0 km/h (0 Bft)
10.03.2018 09:42 9,8 °C 64 % 1006,4 hPa 0,0 mm 0,0 km/h (0 Bft) N 360 ° 0 min 0,000 mm 0,8 UV-I 120 W/m² 3,3 °C 9,8 °C 0,0 km/h (0 Bft)
10.03.2018 09:43 9,8 °C 64 % 1006,4 hPa 0,0 mm 0,0 km/h (0 Bft) N 360 ° 0 min 0,000 mm 0,8 UV-I 118 W/m² 3,3 °C 9,8 °C 0,0 km/h (0 Bft)
10.03.2018 09:44 9,8 °C 62 % 1006,5 hPa 0,0 mm 0,0 km/h (0 Bft) N 360 ° 0 min 0,000 mm 0,8 UV-I 118 W/m² 2,9 °C 9,8 °C 0,0 km/h (0 Bft)
10.03.2018 09:45 9,9 °C 64 % 1006,5 hPa 0,0 mm 0,0 km/h (0 Bft) N 360 ° 0 min 0,000 mm 0,8 UV-I 120 W/m² 3,4 °C 9,9 °C 0,0 km/h (0 Bft)
10.03.2018 09:46 9,9 °C 62 % 1006,5 hPa 0,0 mm 0,0 km/h (0 Bft) N 360 ° 0 min 0,000 mm 0,9 UV-I 120 W/m² 3,0 °C 9,9 °C 0,0 km/h (0 Bft)
10.03.2018 09:47 9,9 °C 61 % 1006,5 hPa 0,0 mm 0,3 km/h (0 Bft) N 360 ° 0 min 0,000 mm 0,9 UV-I 121 W/m² 2,7 °C 9,9 °C 1,6 km/h (1 Bft)
10.03.2018 09:48 9,9 °C 60 % 1006,4 hPa 0,0 mm 0,4 km/h (0 Bft) N 360 ° 0 min 0,000 mm 0,9 UV-I 123 W/m² 2,5 °C 9,9 °C 1,6 km/h (1 Bft)
10.03.2018 09:49 9,9 °C 58 % 1006,4 hPa 0,0 mm 5,4 km/h (1 Bft) O-NO 74 ° 0 min 0,000 mm 0,9 UV-I 123 W/m² 2,0 °C 9,5 °C 8,0 km/h (2 Bft)
10.03.2018 09:50 9,9 °C 61 % 1006,4 hPa 0,0 mm 4,4 km/h (1 Bft) O 96 ° 0 min 0,000 mm 0,8 UV-I 120 W/m² 2,7 °C 9,9 °C 6,4 km/h (2 Bft)
10.03.2018 09:51 9,9 °C 59 % 1006,4 hPa 0,0 mm 4,3 km/h (1 Bft) O 92 ° 0 min 0,000 mm 0,8 UV-I 113 W/m² 2,3 °C 9,9 °C 6,4 km/h (2 Bft)
10.03.2018 09:52 9,9 °C 57 % 1006,4 hPa 0,0 mm 4,4 km/h (1 Bft) O 80 ° 0 min 0,000 mm 0,8 UV-I 109 W/m² 1,8 °C 9,9 °C 6,4 km/h (2 Bft)
10.03.2018 09:53 9,9 °C 58 % 1006,4 hPa 0,0 mm 3,8 km/h (1 Bft) O 80 ° 0 min 0,000 mm 0,8 UV-I 107 W/m² 2,0 °C 9,9 °C 4,8 km/h (1 Bft)
10.03.2018 09:54 9,8 °C 62 % 1006,4 hPa 0,0 mm 2,5 km/h (1 Bft) O 80 ° 0 min 0,000 mm 0,8 UV-I 105 W/m² 2,9 °C 9,8 °C 4,8 km/h (1 Bft)
10.03.2018 09:55 9,8 °C 61 % 1006,4 hPa 0,0 mm 1,3 km/h (1 Bft) O 80 ° 0 min 0,000 mm 0,8 UV-I 105 W/m² 2,6 °C 9,8 °C 3,2 km/h (1 Bft)
10.03.2018 09:56 9,7 °C 60 % 1006,4 hPa 0,0 mm 2,0 km/h (1 Bft) O 80 ° 0 min 0,000 mm 0,8 UV-I 105 W/m² 2,3 °C 9,7 °C 3,2 km/h (1 Bft)
10.03.2018 09:57 9,7 °C 60 % 1006,4 hPa 0,0 mm 0,3 km/h (0 Bft) O 80 ° 0 min 0,000 mm 0,8 UV-I 107 W/m² 2,3 °C 9,7 °C 3,2 km/h (1 Bft)
10.03.2018 09:58 9,7 °C 59 % 1006,4 hPa 0,0 mm 0,1 km/h (0 Bft) O 80 ° 0 min 0,000 mm 0,8 UV-I 107 W/m² 2,1 °C 9,7 °C 1,6 km/h (1 Bft)
10.03.2018 09:59 9,7 °C 62 % 1006,5 hPa 0,0 mm 0,9 km/h (0 Bft) O 80 ° 0 min 0,000 mm 0,8 UV-I 105 W/m² 2,8 °C 9,7 °C 3,2 km/h (1 Bft)
10.03.2018 10:00 9,7 °C 62 % 1006,4 hPa 0,0 mm 0,5 km/h (0 Bft) O 80 ° 0 min 0,000 mm 0,8 UV-I 105 W/m² 2,8 °C 9,7 °C 1,6 km/h (1 Bft)
10.03.2018 10:01 9,7 °C 64 % 1006,4 hPa 0,0 mm 1,7 km/h (1 Bft) O 80 ° 0 min 0,076 mm 0,8 UV-I 105 W/m² 3,2 °C 9,7 °C 3,2 km/h (1 Bft)
10.03.2018 10:02 9,6 °C 64 % 1006,4 hPa 0,0 mm 1,2 km/h (1 Bft) O 80 ° 0 min 0,000 mm 0,8 UV-I 105 W/m² 3,1 °C 9,6 °C 3,2 km/h (1 Bft)
10.03.2018 10:03 9,6 °C 60 % 1006,4 hPa 0,0 mm 0,8 km/h (0 Bft) O 80 ° 0 min 0,000 mm 0,8 UV-I 104 W/m² 2,2 °C 9,6 °C 1,6 km/h (1 Bft)
10.03.2018 10:04 9,7 °C 60 % 1006,4 hPa 0,0 mm 0,0 km/h (0 Bft) O 80 ° 0 min 0,000 mm 0,8 UV-I 104 W/m² 2,3 °C 9,7 °C 0,0 km/h (0 Bft)
10.03.2018 10:05 9,7 °C 60 % 1006,4 hPa 0,0 mm 0,9 km/h (0 Bft) O 81 ° 0 min 0,000 mm 0,8 UV-I 105 W/m² 2,3 °C 9,7 °C 1,6 km/h (1 Bft)
10.03.2018 10:06 9,7 °C 59 % 1006,4 hPa 0,0 mm 0,1 km/h (0 Bft) O 81 ° 0 min 0,000 mm 0,8 UV-I 105 W/m² 2,1 °C 9,7 °C 1,6 km/h (1 Bft)
10.03.2018 10:07 9,7 °C 60 % 1006,4 hPa 0,0 mm 0,0 km/h (0 Bft) O 81 ° 0 min 0,000 mm 0,8 UV-I 105 W/m² 2,3 °C 9,7 °C 0,0 km/h (0 Bft)
10.03.2018 10:08 9,8 °C 59 % 1006,4 hPa 0,0 mm 0,0 km/h (0 Bft) O 81 ° 0 min 0,000 mm 0,8 UV-I 105 W/m² 2,2 °C 9,8 °C 0,0 km/h (0 Bft)
10.03.2018 10:09 9,8 °C 59 % 1006,4 hPa 0,0 mm 0,0 km/h (0 Bft) O 81 ° 0 min 0,000 mm 0,8 UV-I 104 W/m² 2,2 °C 9,8 °C 0,0 km/h (0 Bft)
10.03.2018 10:10 9,8 °C 61 % 1006,5 hPa 0,0 mm 0,0 km/h (0 Bft) O 81 ° 0 min 0,000 mm 0,8 UV-I 105 W/m² 2,6 °C 9,8 °C 0,0 km/h (0 Bft)
10.03.2018 10:11 9,8 °C 62 % 1006,4 hPa 0,0 mm 0,0 km/h (0 Bft) O 81 ° 0 min 0,000 mm 0,8 UV-I 105 W/m² 2,9 °C 9,8 °C 0,0 km/h (0 Bft)
10.03.2018 10:12 9,8 °C 59 % 1006,5 hPa 0,0 mm 0,0 km/h (0 Bft) O 81 ° 0 min 0,000 mm 0,8 UV-I 105 W/m² 2,2 °C 9,8 °C 0,0 km/h (0 Bft)
10.03.2018 10:13 9,8 °C 61 % 1006,5 hPa 0,0 mm 0,0 km/h (0 Bft) O 81 ° 0 min 0,000 mm 0,8 UV-I 107 W/m² 2,6 °C 9,8 °C 0,0 km/h (0 Bft)
10.03.2018 10:14 9,9 °C 59 % 1006,4 hPa 0,0 mm 0,0 km/h (0 Bft) O 81 ° 0 min 0,000 mm 0,8 UV-I 111 W/m² 2,3 °C 9,9 °C 0,0 km/h (0 Bft)
10.03.2018 10:15 9,9 °C 57 % 1006,4 hPa 0,0 mm 0,0 km/h (0 Bft) O 81 ° 0 min 0,000 mm 0,8 UV-I 114 W/m² 1,8 °C 9,9 °C 0,0 km/h (0 Bft)
10.03.2018 10:16 10,0 °C 57 % 1006,4 hPa 0,0 mm 0,0 km/h (0 Bft) O 81 ° 0 min 0,000 mm 0,9 UV-I 120 W/m² 1,9 °C 10,0 °C 0,0 km/h (0 Bft)
10.03.2018 10:17 10,1 °C 57 % 1006,4 hPa 0,0 mm 0,0 km/h (0 Bft) O 81 ° 0 min 0,000 mm 1,0 UV-I 127 W/m² 2,0 °C 10,1 °C 0,0 km/h (0 Bft)
10.03.2018 10:18 10,1 °C 59 % 1006,4 hPa 0,0 mm 0,0 km/h (0 Bft) O 81 ° 0 min 0,000 mm 1,0 UV-I 134 W/m² 2,5 °C 10,1 °C 0,0 km/h (0 Bft)
10.03.2018 10:19 10,1 °C 63 % 1006,4 hPa 0,0 mm 0,0 km/h (0 Bft) O 81 ° 0 min 0,000 mm 1,1 UV-I 144 W/m² 3,4 °C 10,1 °C 0,0 km/h (0 Bft)
10.03.2018 10:20 10,1 °C 59 % 1006,5 hPa 0,0 mm 0,0 km/h (0 Bft) O 81 ° 0 min 0,000 mm 1,1 UV-I 155 W/m² 2,5 °C 10,1 °C 0,0 km/h (0 Bft)
10.03.2018 10:21 10,1 °C 60 % 1006,5 hPa 0,0 mm 0,0 km/h (0 Bft) O 81 ° 0 min 0,000 mm 1,2 UV-I 176 W/m² 2,7 °C 10,1 °C 0,0 km/h (0 Bft)
10.03.2018 10:22 10,1 °C 59 % 1006,5 hPa 0,0 mm 0,0 km/h (0 Bft) O 81 ° 0 min 0,000 mm 1,3 UV-I 188 W/m² 2,5 °C 10,1 °C 0,0 km/h (0 Bft)
10.03.2018 10:23 10,1 °C 58 % 1006,4 hPa 0,0 mm 0,0 km/h (0 Bft) O 81 ° 0 min 0,000 mm 1,4 UV-I 195 W/m² 2,2 °C 10,1 °C 0,0 km/h (0 Bft)
10.03.2018 10:24 10,2 °C 60 % 1006,5 hPa 0,0 mm 0,0 km/h (0 Bft) O 81 ° 0 min 0,000 mm 1,4 UV-I 200 W/m² 2,8 °C 10,2 °C 0,0 km/h (0 Bft)
10.03.2018 10:25 10,3 °C 59 % 1006,5 hPa 0,0 mm 0,0 km/h (0 Bft) O 81 ° 0 min 0,000 mm 1,4 UV-I 204 W/m² 2,6 °C 10,3 °C 0,0 km/h (0 Bft)
10.03.2018 10:26 10,4 °C 60 % 1006,5 hPa 0,0 mm 0,0 km/h (0 Bft) O 81 ° 0 min 0,000 mm 1,4 UV-I 206 W/m² 3,0 °C 10,4 °C 0,0 km/h (0 Bft)
10.03.2018 10:27 10,5 °C 61 % 1006,5 hPa 0,0 mm 0,1 km/h (0 Bft) O 81 ° 0 min 0,000 mm 1,5 UV-I 206 W/m² 3,3 °C 10,5 °C 1,6 km/h (1 Bft)
10.03.2018 10:28 10,6 °C 60 % 1006,5 hPa 0,0 mm 2,3 km/h (1 Bft) NO 51 ° 0 min 0,000 mm 1,5 UV-I 206 W/m² 3,2 °C 10,6 °C 3,2 km/h (1 Bft)
10.03.2018 10:29 10,7 °C 58 % 1006,5 hPa 0,0 mm 4,0 km/h (1 Bft) NO 55 ° 0 min 0,000 mm 1,5 UV-I 206 W/m² 2,8 °C 10,7 °C 4,8 km/h (1 Bft)
10.03.2018 10:30 10,7 °C 57 % 1006,5 hPa 0,0 mm 3,3 km/h (1 Bft) O-NO 71 ° 0 min 0,000 mm 1,5 UV-I 204 W/m² 2,5 °C 10,7 °C 4,8 km/h (1 Bft)
10.03.2018 10:31 10,6 °C 57 % 1006,5 hPa 0,0 mm 1,1 km/h (1 Bft) O-NO 71 ° 0 min 0,000 mm 1,5 UV-I 206 W/m² 2,4 °C 10,6 °C 1,6 km/h (1 Bft)
10.03.2018 10:32 10,7 °C 57 % 1006,5 hPa 0,0 mm 0,7 km/h (0 Bft) O-NO 71 ° 0 min 0,000 mm 1,5 UV-I 204 W/m² 2,5 °C 10,7 °C 1,6 km/h (1 Bft)
10.03.2018 10:33 10,7 °C 56 % 1006,4 hPa 0,0 mm 6,0 km/h (2 Bft) O-NO 74 ° 0 min 0,000 mm 1,5 UV-I 204 W/m² 2,3 °C 10,7 °C 8,0 km/h (2 Bft)
10.03.2018 10:34 10,7 °C 57 % 1006,4 hPa 0,0 mm 2,1 km/h (1 Bft) NO 55 ° 0 min 0,000 mm 1,5 UV-I 204 W/m² 2,5 °C 10,7 °C 4,8 km/h (1 Bft)
10.03.2018 10:35 10,7 °C 57 % 1006,4 hPa 0,0 mm 2,5 km/h (1 Bft) NO 55 ° 0 min 0,000 mm 1,5 UV-I 204 W/m² 2,5 °C 10,7 °C 3,2 km/h (1 Bft)
10.03.2018 10:36 10,7 °C 58 % 1006,4 hPa 0,0 mm 1,7 km/h (1 Bft) NO 55 ° 0 min 0,000 mm 1,5 UV-I 204 W/m² 2,8 °C 10,7 °C 3,2 km/h (1 Bft)
10.03.2018 10:37 10,7 °C 55 % 1006,3 hPa 0,0 mm 0,0 km/h (0 Bft) NO 55 ° 0 min 0,000 mm 1,5 UV-I 204 W/m² 2,0 °C 10,7 °C 0,0 km/h (0 Bft)
10.03.2018 10:38 10,6 °C 56 % 1006,3 hPa 0,0 mm 1,2 km/h (1 Bft) O 89 ° 0 min 0,000 mm 1,5 UV-I 202 W/m² 2,2 °C 10,6 °C 3,2 km/h (1 Bft)
10.03.2018 10:39 10,6 °C 59 % 1006,3 hPa 0,0 mm 0,3 km/h (0 Bft) O 89 ° 0 min 0,000 mm 1,4 UV-I 200 W/m² 2,9 °C 10,6 °C 1,6 km/h (1 Bft)
10.03.2018 10:40 10,6 °C 58 % 1006,4 hPa 0,0 mm 0,8 km/h (0 Bft) O 89 ° 0 min 0,000 mm 1,4 UV-I 199 W/m² 2,7 °C 10,6 °C 3,2 km/h (1 Bft)
10.03.2018 10:41 10,6 °C 60 % 1006,4 hPa 0,0 mm 0,5 km/h (0 Bft) O 89 ° 0 min 0,000 mm 1,4 UV-I 193 W/m² 3,2 °C 10,6 °C 1,6 km/h (1 Bft)
10.03.2018 10:42 10,6 °C 61 % 1006,4 hPa 0,0 mm 1,2 km/h (1 Bft) O 89 ° 0 min 0,000 mm 1,4 UV-I 188 W/m² 3,4 °C 10,6 °C 3,2 km/h (1 Bft)
10.03.2018 10:43 10,6 °C 61 % 1006,3 hPa 0,0 mm 1,9 km/h (1 Bft) O-NO 61 ° 0 min 0,000 mm 1,3 UV-I 185 W/m² 3,4 °C 10,6 °C 4,8 km/h (1 Bft)
10.03.2018 10:44 10,6 °C 60 % 1006,3 hPa 0,0 mm 0,9 km/h (0 Bft) O-NO 61 ° 0 min 0,000 mm 1,3 UV-I 178 W/m² 3,2 °C 10,6 °C 1,6 km/h (1 Bft)
10.03.2018 10:45 10,6 °C 58 % 1006,3 hPa 0,0 mm 0,1 km/h (0 Bft) O-NO 61 ° 0 min 0,000 mm 1,3 UV-I 178 W/m² 2,7 °C 10,6 °C 1,6 km/h (1 Bft)
10.03.2018 10:46 10,6 °C 60 % 1006,3 hPa 0,0 mm 0,7 km/h (0 Bft) O-NO 61 ° 0 min 0,000 mm 1,3 UV-I 178 W/m² 3,2 °C 10,6 °C 3,2 km/h (1 Bft)
10.03.2018 10:47 10,7 °C 60 % 1006,3 hPa 0,0 mm 3,4 km/h (1 Bft) N 11 ° 0 min 0,000 mm 1,3 UV-I 181 W/m² 3,3 °C 10,7 °C 4,8 km/h (1 Bft)
10.03.2018 10:48 10,7 °C 59 % 1006,3 hPa 0,0 mm 3,6 km/h (1 Bft) NW 313 ° 0 min 0,000 mm 1,3 UV-I 185 W/m² 3,0 °C 10,7 °C 4,8 km/h (1 Bft)
10.03.2018 10:49 10,7 °C 59 % 1006,3 hPa 0,0 mm 2,2 km/h (1 Bft) NW 313 ° 0 min 0,000 mm 1,4 UV-I 193 W/m² 3,0 °C 10,7 °C 3,2 km/h (1 Bft)
10.03.2018 10:50 10,7 °C 59 % 1006,3 hPa 0,0 mm 1,9 km/h (1 Bft) NW 313 ° 0 min 0,000 mm 1,4 UV-I 197 W/m² 3,0 °C 10,7 °C 3,2 km/h (1 Bft)
10.03.2018 10:51 10,8 °C 61 % 1006,3 hPa 0,0 mm 3,8 km/h (1 Bft) W-NW 287 ° 0 min 0,000 mm 1,4 UV-I 199 W/m² 3,6 °C 10,8 °C 4,8 km/h (1 Bft)
10.03.2018 10:52 10,8 °C 61 % 1006,3 hPa 0,0 mm 4,4 km/h (1 Bft) W 265 ° 0 min 0,000 mm 1,4 UV-I 199 W/m² 3,6 °C 10,8 °C 6,4 km/h (2 Bft)
10.03.2018 10:53 10,8 °C 57 % 1006,3 hPa 0,0 mm 2,5 km/h (1 Bft) W 265 ° 0 min 0,000 mm 1,5 UV-I 200 W/m² 2,6 °C 10,8 °C 4,8 km/h (1 Bft)
10.03.2018 10:54 10,8 °C 57 % 1006,3 hPa 0,0 mm 4,4 km/h (1 Bft) W 278 ° 0 min 0,000 mm 1,5 UV-I 202 W/m² 2,6 °C 10,8 °C 6,4 km/h (2 Bft)
10.03.2018 10:55 10,8 °C 60 % 1006,3 hPa 0,0 mm 4,5 km/h (1 Bft) SW 224 ° 0 min 0,000 mm 1,5 UV-I 206 W/m² 3,4 °C 10,8 °C 6,4 km/h (2 Bft)
10.03.2018 10:56 10,8 °C 58 % 1006,3 hPa 0,0 mm 2,1 km/h (1 Bft) SW 236 ° 0 min 0,000 mm 1,5 UV-I 207 W/m² 2,9 °C 10,8 °C 4,8 km/h (1 Bft)
10.03.2018 10:57 10,8 °C 59 % 1006,3 hPa 0,0 mm 1,5 km/h (1 Bft) W-SW 249 ° 0 min 0,000 mm 1,5 UV-I 209 W/m² 3,1 °C 10,8 °C 3,2 km/h (1 Bft)
10.03.2018 10:58 10,8 °C 58 % 1006,3 hPa 0,0 mm 0,8 km/h (0 Bft) W-SW 249 ° 0 min 0,000 mm 1,5 UV-I 207 W/m² 2,9 °C 10,8 °C 1,6 km/h (1 Bft)
10.03.2018 10:59 10,8 °C 60 % 1006,3 hPa 0,0 mm 2,9 km/h (1 Bft) W-SW 251 ° 0 min 0,000 mm 1,5 UV-I 207 W/m² 3,4 °C 10,8 °C 4,8 km/h (1 Bft)
10.03.2018 11:00 10,8 °C 60 % 1006,3 hPa 0,0 mm 4,9 km/h (1 Bft) W-SW 243 ° 0 min 0,000 mm 1,5 UV-I 204 W/m² 3,4 °C 10,8 °C 6,4 km/h (2 Bft)
10.03.2018 11:01 10,8 °C 60 % 1006,3 hPa 0,0 mm 5,0 km/h (1 Bft) SW 236 ° 0 min 0,101 mm 1,5 UV-I 199 W/m² 3,4 °C 10,8 °C 9,7 km/h (2 Bft)
10.03.2018 11:02 10,8 °C 60 % 1006,3 hPa 0,0 mm 1,9 km/h (1 Bft) W 261 ° 0 min 0,000 mm 1,5 UV-I 197 W/m² 3,4 °C 10,8 °C 3,2 km/h (1 Bft)
10.03.2018 11:03 10,8 °C 61 % 1006,3 hPa 0,0 mm 2,5 km/h (1 Bft) SW 236 ° 0 min 0,000 mm 1,5 UV-I 197 W/m² 3,6 °C 10,8 °C 4,8 km/h (1 Bft)
10.03.2018 11:04 10,7 °C 60 % 1006,3 hPa 0,0 mm 0,3 km/h (0 Bft) SW 236 ° 0 min 0,000 mm 1,5 UV-I 197 W/m² 3,3 °C 10,7 °C 1,6 km/h (1 Bft)
10.03.2018 11:05 10,7 °C 62 % 1006,3 hPa 0,0 mm 2,8 km/h (1 Bft) W-SW 252 ° 0 min 0,000 mm 1,5 UV-I 197 W/m² 3,7 °C 10,7 °C 4,8 km/h (1 Bft)
10.03.2018 11:06 10,8 °C 64 % 1006,2 hPa 0,0 mm 4,0 km/h (1 Bft) W-SW 252 ° 0 min 0,000 mm 1,4 UV-I 195 W/m² 4,3 °C 10,8 °C 8,0 km/h (2 Bft)
10.03.2018 11:07 10,8 °C 60 % 1006,3 hPa 0,0 mm 5,3 km/h (1 Bft) W-SW 254 ° 0 min 0,000 mm 1,4 UV-I 190 W/m² 3,4 °C 10,8 °C 8,0 km/h (2 Bft)
10.03.2018 11:08 10,8 °C 60 % 1006,3 hPa 0,0 mm 3,4 km/h (1 Bft) W-SW 258 ° 0 min 0,000 mm 1,4 UV-I 188 W/m² 3,4 °C 10,8 °C 4,8 km/h (1 Bft)
10.03.2018 11:09 10,7 °C 60 % 1006,3 hPa 0,0 mm 3,9 km/h (1 Bft) W 266 ° 0 min 0,000 mm 1,4 UV-I 185 W/m² 3,3 °C 10,7 °C 4,8 km/h (1 Bft)
10.03.2018 11:10 10,8 °C 60 % 1006,3 hPa 0,0 mm 3,8 km/h (1 Bft) W-SW 255 ° 0 min 0,000 mm 1,4 UV-I 183 W/m² 3,4 °C 10,8 °C 6,4 km/h (2 Bft)
10.03.2018 11:11 10,8 °C 60 % 1006,3 hPa 0,0 mm 3,4 km/h (1 Bft) W-SW 245 ° 0 min 0,000 mm 1,4 UV-I 179 W/m² 3,4 °C 10,8 °C 6,4 km/h (2 Bft)
10.03.2018 11:12 10,8 °C 61 % 1006,3 hPa 0,0 mm 4,6 km/h (1 Bft) S-SW 213 ° 0 min 0,000 mm 1,3 UV-I 174 W/m² 3,6 °C 10,8 °C 6,4 km/h (2 Bft)
10.03.2018 11:13 10,8 °C 59 % 1006,3 hPa 0,0 mm 1,8 km/h (1 Bft) S-SW 213 ° 0 min 0,000 mm 1,3 UV-I 160 W/m² 3,1 °C 10,8 °C 4,8 km/h (1 Bft)
10.03.2018 11:14 10,8 °C 61 % 1006,3 hPa 0,0 mm 0,7 km/h (0 Bft) S-SW 213 ° 0 min 0,000 mm 1,2 UV-I 151 W/m² 3,6 °C 10,8 °C 3,2 km/h (1 Bft)
10.03.2018 11:15 10,8 °C 61 % 1006,3 hPa 0,0 mm 2,6 km/h (1 Bft) SW 232 ° 0 min 0,000 mm 1,2 UV-I 144 W/m² 3,6 °C 10,8 °C 3,2 km/h (1 Bft)
10.03.2018 11:16 10,8 °C 61 % 1006,4 hPa 0,0 mm 2,8 km/h (1 Bft) SW 234 ° 0 min 0,000 mm 1,1 UV-I 139 W/m² 3,6 °C 10,8 °C 4,8 km/h (1 Bft)
10.03.2018 11:17 10,8 °C 60 % 1006,4 hPa 0,0 mm 2,2 km/h (1 Bft) W-SW 238 ° 0 min 0,000 mm 1,1 UV-I 137 W/m² 3,4 °C 10,8 °C 6,4 km/h (2 Bft)
10.03.2018 11:18 10,8 °C 59 % 1006,4 hPa 0,0 mm 3,8 km/h (1 Bft) W 264 ° 0 min 0,000 mm 1,1 UV-I 135 W/m² 3,1 °C 10,8 °C 4,8 km/h (1 Bft)
10.03.2018 11:19 10,8 °C 60 % 1006,4 hPa 0,0 mm 2,6 km/h (1 Bft) W 264 ° 0 min 0,000 mm 1,1 UV-I 137 W/m² 3,4 °C 10,8 °C 4,8 km/h (1 Bft)
10.03.2018 11:20 10,8 °C 60 % 1006,4 hPa 0,0 mm 1,9 km/h (1 Bft) W 264 ° 0 min 0,000 mm 1,1 UV-I 137 W/m² 3,4 °C 10,8 °C 3,2 km/h (1 Bft)
10.03.2018 11:21 10,8 °C 60 % 1006,3 hPa 0,0 mm 1,8 km/h (1 Bft) W 264 ° 0 min 0,000 mm 1,1 UV-I 139 W/m² 3,4 °C 10,8 °C 3,2 km/h (1 Bft)
10.03.2018 11:22 10,8 °C 59 % 1006,4 hPa 0,0 mm 0,7 km/h (0 Bft) W 264 ° 0 min 0,000 mm 1,1 UV-I 141 W/m² 3,1 °C 10,8 °C 1,6 km/h (1 Bft)
10.03.2018 11:23 10,8 °C 60 % 1006,5 hPa 0,0 mm 0,0 km/h (0 Bft) W 264 ° 0 min 0,000 mm 1,1 UV-I 144 W/m² 3,4 °C 10,8 °C 0,0 km/h (0 Bft)
10.03.2018 11:24 10,8 °C 60 % 1006,4 hPa 0,0 mm 2,3 km/h (1 Bft) W 264 ° 0 min 0,000 mm 1,2 UV-I 149 W/m² 3,4 °C 10,8 °C 4,8 km/h (1 Bft)
10.03.2018 11:25 10,8 °C 61 % 1006,5 hPa 0,0 mm 2,5 km/h (1 Bft) W 264 ° 0 min 0,000 mm 1,2 UV-I 165 W/m² 3,6 °C 10,8 °C 4,8 km/h (1 Bft)
10.03.2018 11:26 10,8 °C 62 % 1006,4 hPa 0,0 mm 3,0 km/h (1 Bft) W 264 ° 0 min 0,000 mm 1,3 UV-I 172 W/m² 3,8 °C 10,8 °C 4,8 km/h (1 Bft)
10.03.2018 11:27 10,9 °C 62 % 1006,4 hPa 0,0 mm 2,2 km/h (1 Bft) W 264 ° 0 min 0,000 mm 1,4 UV-I 179 W/m² 3,9 °C 10,9 °C 3,2 km/h (1 Bft)
10.03.2018 11:28 10,9 °C 61 % 1006,4 hPa 0,0 mm 2,7 km/h (1 Bft) W 264 ° 0 min 0,000 mm 1,5 UV-I 188 W/m² 3,7 °C 10,9 °C 4,8 km/h (1 Bft)
10.03.2018 11:29 10,9 °C 60 % 1006,4 hPa 0,0 mm 1,3 km/h (1 Bft) W 264 ° 0 min 0,000 mm 1,5 UV-I 193 W/m² 3,4 °C 10,9 °C 3,2 km/h (1 Bft)
10.03.2018 11:30 10,9 °C 61 % 1006,4 hPa 0,0 mm 2,0 km/h (1 Bft) W 264 ° 0 min 0,000 mm 1,5 UV-I 197 W/m² 3,7 °C 10,9 °C 3,2 km/h (1 Bft)
10.03.2018 11:31 11,0 °C 59 % 1006,4 hPa 0,0 mm 2,0 km/h (1 Bft) W 264 ° 0 min 0,000 mm 1,5 UV-I 197 W/m² 3,3 °C 11,0 °C 4,8 km/h (1 Bft)
10.03.2018 11:32 11,0 °C 59 % 1006,4 hPa 0,0 mm 2,2 km/h (1 Bft) W 264 ° 0 min 0,000 mm 1,5 UV-I 202 W/m² 3,3 °C 11,0 °C 3,2 km/h (1 Bft)
10.03.2018 11:33 11,1 °C 59 % 1006,4 hPa 0,0 mm 1,2 km/h (1 Bft) W 264 ° 0 min 0,000 mm 1,6 UV-I 211 W/m² 3,4 °C 11,1 °C 3,2 km/h (1 Bft)
10.03.2018 11:34 11,1 °C 59 % 1006,4 hPa 0,0 mm 3,4 km/h (1 Bft) W-SW 244 ° 0 min 0,000 mm 1,6 UV-I 221 W/m² 3,4 °C 11,1 °C 4,8 km/h (1 Bft)
10.03.2018 11:35 11,1 °C 58 % 1006,4 hPa 0,0 mm 4,7 km/h (1 Bft) SW 225 ° 0 min 0,000 mm 1,7 UV-I 234 W/m² 3,2 °C 11,1 °C 6,4 km/h (2 Bft)
10.03.2018 11:36 11,1 °C 59 % 1006,4 hPa 0,0 mm 1,8 km/h (1 Bft) SW 227 ° 0 min 0,000 mm 1,8 UV-I 250 W/m² 3,4 °C 11,1 °C 4,8 km/h (1 Bft)
10.03.2018 11:37 11,1 °C 59 % 1006,5 hPa 0,0 mm 2,5 km/h (1 Bft) SW 227 ° 0 min 0,000 mm 1,8 UV-I 253 W/m² 3,4 °C 11,1 °C 4,8 km/h (1 Bft)
10.03.2018 11:38 11,1 °C 60 % 1006,5 hPa 0,0 mm 3,1 km/h (1 Bft) W-SW 252 ° 0 min 0,000 mm 1,9 UV-I 258 W/m² 3,6 °C 11,1 °C 4,8 km/h (1 Bft)
10.03.2018 11:39 11,2 °C 60 % 1006,5 hPa 0,0 mm 4,4 km/h (1 Bft) W-SW 246 ° 0 min 0,000 mm 1,9 UV-I 258 W/m² 3,7 °C 11,2 °C 6,4 km/h (2 Bft)
10.03.2018 11:40 11,2 °C 60 % 1006,5 hPa 0,0 mm 1,9 km/h (1 Bft) W-SW 246 ° 0 min 0,000 mm 1,9 UV-I 255 W/m² 3,7 °C 11,2 °C 3,2 km/h (1 Bft)
10.03.2018 11:41 11,3 °C 58 % 1006,5 hPa 0,0 mm 5,5 km/h (1 Bft) SW 232 ° 0 min 0,000 mm 1,9 UV-I 255 W/m² 3,3 °C 11,3 °C 8,0 km/h (2 Bft)
10.03.2018 11:42 11,3 °C 58 % 1006,5 hPa 0,0 mm 3,1 km/h (1 Bft) SW 230 ° 0 min 0,000 mm 1,9 UV-I 267 W/m² 3,3 °C 11,3 °C 4,8 km/h (1 Bft)
10.03.2018 11:43 11,3 °C 58 % 1006,5 hPa 0,0 mm 1,9 km/h (1 Bft) SW 231 ° 0 min 0,000 mm 1,9 UV-I 272 W/m² 3,3 °C 11,3 °C 3,2 km/h (1 Bft)
10.03.2018 11:44 11,3 °C 59 % 1006,5 hPa 0,0 mm 1,5 km/h (1 Bft) SW 231 ° 0 min 0,000 mm 2,0 UV-I 274 W/m² 3,6 °C 11,3 °C 3,2 km/h (1 Bft)
10.03.2018 11:45 11,4 °C 59 % 1006,6 hPa 0,0 mm 2,9 km/h (1 Bft) SW 231 ° 0 min 0,000 mm 2,0 UV-I 274 W/m² 3,7 °C 11,4 °C 4,8 km/h (1 Bft)
10.03.2018 11:46 11,4 °C 57 % 1006,5 hPa 0,0 mm 4,8 km/h (1 Bft) W-SW 239 ° 0 min 0,000 mm 2,0 UV-I 271 W/m² 3,2 °C 11,4 °C 6,4 km/h (2 Bft)
10.03.2018 11:47 11,5 °C 59 % 1006,5 hPa 0,0 mm 2,7 km/h (1 Bft) W-SW 246 ° 0 min 0,000 mm 1,9 UV-I 265 W/m² 3,8 °C 11,5 °C 6,4 km/h (2 Bft)
10.03.2018 11:48 11,6 °C 59 % 1006,5 hPa 0,0 mm 1,9 km/h (1 Bft) W-SW 247 ° 0 min 0,000 mm 1,9 UV-I 255 W/m² 3,9 °C 11,6 °C 3,2 km/h (1 Bft)
10.03.2018 11:49 11,6 °C 58 % 1006,5 hPa 0,0 mm 3,3 km/h (1 Bft) W-SW 248 ° 0 min 0,000 mm 1,9 UV-I 251 W/m² 3,6 °C 11,6 °C 4,8 km/h (1 Bft)
10.03.2018 11:50 11,7 °C 59 % 1006,5 hPa 0,0 mm 3,6 km/h (1 Bft) W-SW 248 ° 0 min 0,000 mm 1,9 UV-I 251 W/m² 4,0 °C 11,7 °C 4,8 km/h (1 Bft)
10.03.2018 11:51 11,7 °C 58 % 1006,5 hPa 0,0 mm 3,8 km/h (1 Bft) S-SW 213 ° 0 min 0,000 mm 1,9 UV-I 255 W/m² 3,7 °C 11,7 °C 4,8 km/h (1 Bft)
10.03.2018 11:52 11,7 °C 59 % 1006,5 hPa 0,0 mm 2,2 km/h (1 Bft) SW 217 ° 0 min 0,000 mm 1,9 UV-I 255 W/m² 4,0 °C 11,7 °C 4,8 km/h (1 Bft)
10.03.2018 11:53 11,7 °C 57 % 1006,6 hPa 0,0 mm 1,7 km/h (1 Bft) SW 217 ° 0 min 0,000 mm 1,9 UV-I 251 W/m² 3,5 °C 11,7 °C 3,2 km/h (1 Bft)
10.03.2018 11:54 11,7 °C 58 % 1006,5 hPa 0,0 mm 1,0 km/h (0 Bft) SW 218 ° 0 min 0,000 mm 1,9 UV-I 253 W/m² 3,7 °C 11,7 °C 3,2 km/h (1 Bft)
10.03.2018 11:55 11,7 °C 60 % 1006,6 hPa 0,0 mm 2,5 km/h (1 Bft) SW 221 ° 0 min 0,000 mm 2,0 UV-I 257 W/m² 4,2 °C 11,7 °C 4,8 km/h (1 Bft)
10.03.2018 11:56 11,7 °C 58 % 1006,6 hPa 0,0 mm 1,9 km/h (1 Bft) SW 221 ° 0 min 0,000 mm 2,0 UV-I 257 W/m² 3,7 °C 11,7 °C 3,2 km/h (1 Bft)
10.03.2018 11:57 11,7 °C 58 % 1006,6 hPa 0,0 mm 2,4 km/h (1 Bft) SW 221 ° 0 min 0,000 mm 1,9 UV-I 250 W/m² 3,7 °C 11,7 °C 4,8 km/h (1 Bft)
10.03.2018 11:58 11,7 °C 58 % 1006,6 hPa 0,0 mm 3,4 km/h (1 Bft) SW 226 ° 0 min 0,000 mm 1,9 UV-I 239 W/m² 3,7 °C 11,7 °C 4,8 km/h (1 Bft)
10.03.2018 11:59 11,6 °C 57 % 1006,6 hPa 0,0 mm 2,7 km/h (1 Bft) SW 226 ° 0 min 0,000 mm 1,8 UV-I 230 W/m² 3,4 °C 11,6 °C 3,2 km/h (1 Bft)
10.03.2018 12:00 11,6 °C 58 % 1006,6 hPa 0,0 mm 3,2 km/h (1 Bft) W-SW 250 ° 0 min 0,000 mm 1,8 UV-I 209 W/m² 3,6 °C 11,6 °C 8,0 km/h (2 Bft)
10.03.2018 12:01 11,6 °C 58 % 1006,6 hPa 0,0 mm 3,4 km/h (1 Bft) W 277 ° 0 min 0,127 mm 1,7 UV-I 200 W/m² 3,6 °C 11,6 °C 4,8 km/h (1 Bft)
10.03.2018 12:02 11,6 °C 58 % 1006,6 hPa 0,0 mm 1,4 km/h (1 Bft) W-SW 238 ° 0 min 0,000 mm 1,6 UV-I 193 W/m² 3,6 °C 11,6 °C 3,2 km/h (1 Bft)
10.03.2018 12:03 11,6 °C 55 % 1006,6 hPa 0,0 mm 4,1 km/h (1 Bft) W-SW 247 ° 0 min 0,000 mm 1,5 UV-I 188 W/m² 2,9 °C 11,6 °C 8,0 km/h (2 Bft)
10.03.2018 12:04 11,6 °C 56 % 1006,7 hPa 0,0 mm 1,6 km/h (1 Bft) W-SW 247 ° 0 min 0,000 mm 1,5 UV-I 185 W/m² 3,1 °C 11,6 °C 3,2 km/h (1 Bft)
10.03.2018 12:05 11,6 °C 56 % 1006,6 hPa 0,0 mm 2,4 km/h (1 Bft) W-SW 248 ° 0 min 0,000 mm 1,5 UV-I 181 W/m² 3,1 °C 11,6 °C 4,8 km/h (1 Bft)
10.03.2018 12:06 11,5 °C 57 % 1006,6 hPa 0,0 mm 3,2 km/h (1 Bft) W-NW 284 ° 0 min 0,000 mm 1,5 UV-I 179 W/m² 3,3 °C 11,5 °C 4,8 km/h (1 Bft)
10.03.2018 12:07 11,5 °C 56 % 1006,6 hPa 0,0 mm 2,2 km/h (1 Bft) W-NW 284 ° 0 min 0,000 mm 1,5 UV-I 176 W/m² 3,0 °C 11,5 °C 3,2 km/h (1 Bft)
10.03.2018 12:08 11,5 °C 57 % 1006,6 hPa 0,0 mm 1,0 km/h (0 Bft) W-NW 284 ° 0 min 0,000 mm 1,4 UV-I 174 W/m² 3,3 °C 11,5 °C 3,2 km/h (1 Bft)
10.03.2018 12:09 11,5 °C 57 % 1006,6 hPa 0,0 mm 1,0 km/h (0 Bft) W-NW 284 ° 0 min 0,000 mm 1,4 UV-I 172 W/m² 3,3 °C 11,5 °C 1,6 km/h (1 Bft)
10.03.2018 12:10 11,6 °C 57 % 1006,6 hPa 0,0 mm 1,0 km/h (0 Bft) W-NW 284 ° 0 min 0,000 mm 1,4 UV-I 171 W/m² 3,4 °C 11,6 °C 3,2 km/h (1 Bft)
10.03.2018 12:11 11,5 °C 57 % 1006,6 hPa 0,0 mm 0,5 km/h (0 Bft) W-NW 284 ° 0 min 0,000 mm 1,4 UV-I 171 W/m² 3,3 °C 11,5 °C 1,6 km/h (1 Bft)
10.03.2018 12:12 11,6 °C 56 % 1006,6 hPa 0,0 mm 0,2 km/h (0 Bft) W-NW 284 ° 0 min 0,000 mm 1,4 UV-I 172 W/m² 3,1 °C 11,6 °C 1,6 km/h (1 Bft)
10.03.2018 12:13 11,6 °C 58 % 1006,5 hPa 0,0 mm 0,0 km/h (0 Bft) W-NW 284 ° 0 min 0,000 mm 1,4 UV-I 171 W/m² 3,6 °C 11,6 °C 0,0 km/h (0 Bft)
10.03.2018 12:14 11,6 °C 57 % 1006,6 hPa 0,0 mm 0,2 km/h (0 Bft) W-NW 284 ° 0 min 0,000 mm 1,4 UV-I 165 W/m² 3,4 °C 11,6 °C 1,6 km/h (1 Bft)
10.03.2018 12:15 11,6 °C 56 % 1006,6 hPa 0,0 mm 0,0 km/h (0 Bft) W-NW 284 ° 0 min 0,000 mm 1,3 UV-I 158 W/m² 3,1 °C 11,6 °C 0,0 km/h (0 Bft)
10.03.2018 12:16 11,6 °C 58 % 1006,6 hPa 0,0 mm 0,0 km/h (0 Bft) W-NW 284 ° 0 min 0,000 mm 1,3 UV-I 151 W/m² 3,6 °C 11,6 °C 0,0 km/h (0 Bft)
10.03.2018 12:17 11,6 °C 57 % 1006,6 hPa 0,0 mm 0,5 km/h (0 Bft) W-NW 284 ° 0 min 0,000 mm 1,2 UV-I 144 W/m² 3,4 °C 11,6 °C 1,6 km/h (1 Bft)
10.03.2018 12:18 11,6 °C 56 % 1006,6 hPa 0,0 mm 1,2 km/h (1 Bft) W-NW 284 ° 0 min 0,000 mm 1,2 UV-I 141 W/m² 3,1 °C 11,6 °C 1,6 km/h (1 Bft)
10.03.2018 12:19 11,6 °C 56 % 1006,6 hPa 0,0 mm 1,7 km/h (1 Bft) W-NW 284 ° 0 min 0,000 mm 1,2 UV-I 142 W/m² 3,1 °C 11,6 °C 3,2 km/h (1 Bft)
10.03.2018 12:20 11,6 °C 56 % 1006,6 hPa 0,0 mm 1,9 km/h (1 Bft) W-NW 284 ° 0 min 0,000 mm 1,2 UV-I 142 W/m² 3,1 °C 11,6 °C 3,2 km/h (1 Bft)
10.03.2018 12:21 11,6 °C 57 % 1006,6 hPa 0,0 mm 2,1 km/h (1 Bft) W-NW 284 ° 0 min 0,000 mm 1,2 UV-I 141 W/m² 3,4 °C 11,6 °C 4,8 km/h (1 Bft)
10.03.2018 12:22 11,6 °C 57 % 1006,6 hPa 0,0 mm 1,3 km/h (1 Bft) W-NW 284 ° 0 min 0,000 mm 1,1 UV-I 137 W/m² 3,4 °C 11,6 °C 3,2 km/h (1 Bft)
10.03.2018 12:23 11,6 °C 56 % 1006,7 hPa 0,0 mm 3,2 km/h (1 Bft) S-SW 213 ° 0 min 0,000 mm 1,1 UV-I 130 W/m² 3,1 °C 11,6 °C 4,8 km/h (1 Bft)
10.03.2018 12:24 11,6 °C 57 % 1006,7 hPa 0,0 mm 2,8 km/h (1 Bft) S-SW 198 ° 0 min 0,000 mm 1,1 UV-I 128 W/m² 3,4 °C 11,6 °C 4,8 km/h (1 Bft)
10.03.2018 12:25 11,5 °C 58 % 1006,7 hPa 0,0 mm 0,7 km/h (0 Bft) S-SW 198 ° 0 min 0,000 mm 1,1 UV-I 127 W/m² 3,5 °C 11,5 °C 3,2 km/h (1 Bft)
10.03.2018 12:26 11,5 °C 57 % 1006,7 hPa 0,0 mm 2,2 km/h (1 Bft) S-SW 198 ° 0 min 0,000 mm 1,1 UV-I 127 W/m² 3,3 °C 11,5 °C 3,2 km/h (1 Bft)
10.03.2018 12:27 11,4 °C 58 % 1006,7 hPa 0,0 mm 0,9 km/h (0 Bft) S-SW 198 ° 0 min 0,000 mm 1,1 UV-I 127 W/m² 3,4 °C 11,4 °C 1,6 km/h (1 Bft)
10.03.2018 12:28 11,4 °C 58 % 1006,7 hPa 0,0 mm 0,0 km/h (0 Bft) S-SW 198 ° 0 min 0,000 mm 1,1 UV-I 127 W/m² 3,4 °C 11,4 °C 0,0 km/h (0 Bft)
10.03.2018 12:29 11,4 °C 60 % 1006,7 hPa 0,0 mm 1,1 km/h (1 Bft) S-SW 198 ° 0 min 0,000 mm 1,1 UV-I 127 W/m² 3,9 °C 11,4 °C 3,2 km/h (1 Bft)
10.03.2018 12:30 11,4 °C 58 % 1006,7 hPa 0,0 mm 2,5 km/h (1 Bft) S-SW 198 ° 0 min 0,000 mm 1,1 UV-I 127 W/m² 3,4 °C 11,4 °C 3,2 km/h (1 Bft)
10.03.2018 12:31 11,3 °C 59 % 1006,7 hPa 0,0 mm 2,7 km/h (1 Bft) W-SW 257 ° 0 min 0,000 mm 1,1 UV-I 127 W/m² 3,6 °C 11,3 °C 4,8 km/h (1 Bft)
10.03.2018 12:32 11,3 °C 58 % 1006,8 hPa 0,0 mm 2,2 km/h (1 Bft) W-SW 257 ° 0 min 0,000 mm 1,1 UV-I 130 W/m² 3,3 °C 11,3 °C 4,8 km/h (1 Bft)
10.03.2018 12:33 11,3 °C 59 % 1006,7 hPa 0,0 mm 1,4 km/h (1 Bft) W-SW 257 ° 0 min 0,000 mm 1,1 UV-I 132 W/m² 3,6 °C 11,3 °C 3,2 km/h (1 Bft)
10.03.2018 12:34 11,3 °C 59 % 1006,7 hPa 0,0 mm 4,8 km/h (1 Bft) W-NW 303 ° 0 min 0,000 mm 1,1 UV-I 132 W/m² 3,6 °C 11,3 °C 6,4 km/h (2 Bft)
10.03.2018 12:35 11,3 °C 59 % 1006,7 hPa 0,0 mm 2,3 km/h (1 Bft) W-NW 303 ° 0 min 0,000 mm 1,1 UV-I 125 W/m² 3,6 °C 11,3 °C 3,2 km/h (1 Bft)
10.03.2018 12:36 11,2 °C 60 % 1006,8 hPa 0,0 mm 0,0 km/h (0 Bft) W-NW 303 ° 0 min 0,000 mm 1,0 UV-I 118 W/m² 3,7 °C 11,2 °C 0,0 km/h (0 Bft)
10.03.2018 12:37 11,2 °C 60 % 1006,8 hPa 0,0 mm 0,0 km/h (0 Bft) W-NW 303 ° 0 min 0,000 mm 1,0 UV-I 113 W/m² 3,7 °C 11,2 °C 0,0 km/h (0 Bft)
10.03.2018 12:38 11,1 °C 61 % 1006,7 hPa 0,0 mm 0,0 km/h (0 Bft) W-NW 303 ° 0 min 0,000 mm 1,0 UV-I 107 W/m² 3,9 °C 11,1 °C 0,0 km/h (0 Bft)
10.03.2018 12:39 11,1 °C 61 % 1006,8 hPa 0,0 mm 0,0 km/h (0 Bft) W-NW 303 ° 0 min 0,000 mm 0,9 UV-I 102 W/m² 3,9 °C 11,1 °C 0,0 km/h (0 Bft)
10.03.2018 12:40 11,1 °C 61 % 1006,8 hPa 0,0 mm 0,0 km/h (0 Bft) W-NW 303 ° 0 min 0,000 mm 0,9 UV-I 98 W/m² 3,9 °C 11,1 °C 0,0 km/h (0 Bft)
10.03.2018 12:41 11,0 °C 61 % 1006,8 hPa 0,0 mm 0,0 km/h (0 Bft) W-NW 303 ° 0 min 0,000 mm 0,9 UV-I 93 W/m² 3,8 °C 11,0 °C 0,0 km/h (0 Bft)
10.03.2018 12:42 10,9 °C 62 % 1006,8 hPa 0,0 mm 0,1 km/h (0 Bft) W-NW 303 ° 0 min 0,000 mm 0,9 UV-I 93 W/m² 3,9 °C 10,9 °C 1,6 km/h (1 Bft)
10.03.2018 12:43 10,9 °C 65 % 1006,8 hPa 0,0 mm 0,0 km/h (0 Bft) W-NW 303 ° 0 min 0,000 mm 0,9 UV-I 91 W/m² 4,6 °C 10,9 °C 0,0 km/h (0 Bft)
10.03.2018 12:44 10,8 °C 66 % 1006,8 hPa 0,0 mm 0,0 km/h (0 Bft) W-NW 303 ° 0 min 0,000 mm 0,9 UV-I 93 W/m² 4,7 °C 10,8 °C 0,0 km/h (0 Bft)
10.03.2018 12:45 10,8 °C 67 % 1006,8 hPa 0,0 mm 0,0 km/h (0 Bft) W-NW 303 ° 0 min 0,000 mm 0,9 UV-I 95 W/m² 4,9 °C 10,8 °C 0,0 km/h (0 Bft)
10.03.2018 12:46 10,7 °C 65 % 1006,7 hPa 0,0 mm 0,0 km/h (0 Bft) W-NW 303 ° 0 min 0,000 mm 0,9 UV-I 97 W/m² 4,4 °C 10,7 °C 0,0 km/h (0 Bft)
10.03.2018 12:47 10,7 °C 65 % 1006,7 hPa 0,0 mm 0,0 km/h (0 Bft) W-NW 303 ° 0 min 0,000 mm 0,9 UV-I 105 W/m² 4,4 °C 10,7 °C 0,0 km/h (0 Bft)
10.03.2018 12:48 10,6 °C 68 % 1006,7 hPa 0,0 mm 0,0 km/h (0 Bft) W-NW 303 ° 0 min 0,000 mm 1,0 UV-I 111 W/m² 4,9 °C 10,6 °C 0,0 km/h (0 Bft)
10.03.2018 12:49 10,4 °C 68 % 1006,7 hPa 0,0 mm 0,0 km/h (0 Bft) W-NW 303 ° 0 min 0,000 mm 1,0 UV-I 114 W/m² 4,8 °C 10,4 °C 0,0 km/h (0 Bft)
10.03.2018 12:50 10,3 °C 70 % 1006,7 hPa 0,0 mm 0,0 km/h (0 Bft) W-NW 303 ° 0 min 0,000 mm 1,0 UV-I 114 W/m² 5,1 °C 10,3 °C 0,0 km/h (0 Bft)
10.03.2018 12:51 10,3 °C 72 % 1006,7 hPa 0,0 mm 0,0 km/h (0 Bft) W-NW 303 ° 0 min 0,000 mm 1,0 UV-I 116 W/m² 5,5 °C 10,3 °C 0,0 km/h (0 Bft)
10.03.2018 12:52 10,2 °C 72 % 1006,7 hPa 0,0 mm 0,0 km/h (0 Bft) W-NW 303 ° 0 min 0,000 mm 1,0 UV-I 118 W/m² 5,4 °C 10,2 °C 0,0 km/h (0 Bft)
10.03.2018 12:53 10,1 °C 72 % 1006,7 hPa 0,0 mm 0,0 km/h (0 Bft) W-NW 303 ° 0 min 0,000 mm 1,0 UV-I 127 W/m² 5,3 °C 10,1 °C 0,0 km/h (0 Bft)
10.03.2018 12:54 10,1 °C 72 % 1006,6 hPa 0,0 mm 0,0 km/h (0 Bft) W-NW 303 ° 0 min 0,000 mm 1,1 UV-I 134 W/m² 5,3 °C 10,1 °C 0,0 km/h (0 Bft)
10.03.2018 12:55 10,1 °C 72 % 1006,6 hPa 0,0 mm 0,0 km/h (0 Bft) W-NW 303 ° 0 min 0,000 mm 1,2 UV-I 142 W/m² 5,3 °C 10,1 °C 0,0 km/h (0 Bft)
10.03.2018 12:56 10,1 °C 71 % 1006,6 hPa 0,0 mm 0,0 km/h (0 Bft) W-NW 303 ° 0 min 0,000 mm 1,2 UV-I 153 W/m² 5,1 °C 10,1 °C 0,0 km/h (0 Bft)
10.03.2018 12:57 10,1 °C 70 % 1006,6 hPa 0,0 mm 0,0 km/h (0 Bft) W-NW 303 ° 0 min 0,000 mm 1,3 UV-I 162 W/m² 4,9 °C 10,1 °C 0,0 km/h (0 Bft)
10.03.2018 12:58 10,2 °C 68 % 1006,6 hPa 0,0 mm 0,0 km/h (0 Bft) W-NW 303 ° 0 min 0,000 mm 1,3 UV-I 179 W/m² 4,6 °C 10,2 °C 0,0 km/h (0 Bft)
10.03.2018 12:59 10,2 °C 68 % 1006,6 hPa 0,0 mm 0,0 km/h (0 Bft) W-NW 303 ° 0 min 0,000 mm 1,4 UV-I 188 W/m² 4,6 °C 10,2 °C 0,0 km/h (0 Bft)
10.03.2018 13:00 10,3 °C 67 % 1006,6 hPa 0,0 mm 0,0 km/h (0 Bft) W-NW 303 ° 0 min 0,077 mm 1,5 UV-I 197 W/m² 4,4 °C 10,3 °C 0,0 km/h (0 Bft)
10.03.2018 13:01 10,3 °C 66 % 1006,6 hPa 0,0 mm 0,0 km/h (0 Bft) W-NW 303 ° 0 min 0,000 mm 1,5 UV-I 202 W/m² 4,2 °C 10,3 °C 0,0 km/h (0 Bft)
10.03.2018 13:02 10,4 °C 66 % 1006,6 hPa 0,0 mm 0,0 km/h (0 Bft) W-NW 303 ° 0 min 0,000 mm 1,5 UV-I 206 W/m² 4,3 °C 10,4 °C 0,0 km/h (0 Bft)
10.03.2018 13:03 10,4 °C 67 % 1006,6 hPa 0,0 mm 0,0 km/h (0 Bft) W-NW 303 ° 0 min 0,000 mm 1,5 UV-I 206 W/m² 4,5 °C 10,4 °C 0,0 km/h (0 Bft)
10.03.2018 13:04 10,4 °C 67 % 1006,6 hPa 0,0 mm 0,0 km/h (0 Bft) W-NW 303 ° 0 min 0,000 mm 1,5 UV-I 202 W/m² 4,5 °C 10,4 °C 0,0 km/h (0 Bft)
10.03.2018 13:05 10,4 °C 66 % 1006,5 hPa 0,0 mm 0,0 km/h (0 Bft) W-NW 303 ° 0 min 0,000 mm 1,5 UV-I 202 W/m² 4,3 °C 10,4 °C 0,0 km/h (0 Bft)
10.03.2018 13:06 10,4 °C 68 % 1006,5 hPa 0,0 mm 0,0 km/h (0 Bft) W-NW 303 ° 0 min 0,000 mm 1,6 UV-I 204 W/m² 4,8 °C 10,4 °C 0,0 km/h (0 Bft)
10.03.2018 13:07 10,3 °C 68 % 1006,5 hPa 0,0 mm 0,0 km/h (0 Bft) W-NW 303 ° 0 min 0,000 mm 1,6 UV-I 207 W/m² 4,7 °C 10,3 °C 0,0 km/h (0 Bft)
10.03.2018 13:08 10,2 °C 72 % 1006,4 hPa 0,0 mm 0,0 km/h (0 Bft) W-NW 303 ° 0 min 0,000 mm 1,7 UV-I 211 W/m² 5,4 °C 10,2 °C 0,0 km/h (0 Bft)
10.03.2018 13:09 10,2 °C 76 % 1006,4 hPa 0,0 mm 0,0 km/h (0 Bft) W-NW 303 ° 0 min 0,000 mm 1,7 UV-I 211 W/m² 6,2 °C 10,2 °C 0,0 km/h (0 Bft)
10.03.2018 13:10 10,1 °C 78 % 1006,4 hPa 0,0 mm 0,0 km/h (0 Bft) W-NW 303 ° 0 min 0,000 mm 1,7 UV-I 204 W/m² 6,4 °C 10,1 °C 0,0 km/h (0 Bft)
10.03.2018 13:11 10,2 °C 74 % 1006,5 hPa 0,0 mm 0,0 km/h (0 Bft) W-NW 303 ° 0 min 0,000 mm 1,6 UV-I 200 W/m² 5,8 °C 10,2 °C 0,0 km/h (0 Bft)
10.03.2018 13:12 10,3 °C 72 % 1006,4 hPa 0,0 mm 0,0 km/h (0 Bft) W-NW 303 ° 0 min 0,000 mm 1,6 UV-I 197 W/m² 5,5 °C 10,3 °C 0,0 km/h (0 Bft)
10.03.2018 13:13 10,3 °C 71 % 1006,4 hPa 0,0 mm 0,0 km/h (0 Bft) W-NW 303 ° 0 min 0,000 mm 1,6 UV-I 195 W/m² 5,3 °C 10,3 °C 0,0 km/h (0 Bft)
10.03.2018 13:14 10,3 °C 70 % 1006,4 hPa 0,0 mm 0,0 km/h (0 Bft) W-NW 303 ° 0 min 0,000 mm 1,6 UV-I 190 W/m² 5,1 °C 10,3 °C 0,0 km/h (0 Bft)
10.03.2018 13:15 10,4 °C 72 % 1006,4 hPa 0,0 mm 0,0 km/h (0 Bft) W-NW 303 ° 0 min 0,000 mm 1,5 UV-I 186 W/m² 5,6 °C 10,4 °C 0,0 km/h (0 Bft)
10.03.2018 13:16 10,5 °C 72 % 1006,4 hPa 0,0 mm 0,0 km/h (0 Bft) W-NW 303 ° 0 min 0,000 mm 1,5 UV-I 172 W/m² 5,7 °C 10,5 °C 0,0 km/h (0 Bft)
10.03.2018 13:17 10,6 °C 72 % 1006,4 hPa 0,0 mm 0,0 km/h (0 Bft) W-NW 303 ° 0 min 0,000 mm 1,3 UV-I 163 W/m² 5,8 °C 10,6 °C 0,0 km/h (0 Bft)
10.03.2018 13:18 10,6 °C 70 % 1006,4 hPa 0,0 mm 0,0 km/h (0 Bft) W-NW 303 ° 0 min 0,000 mm 1,2 UV-I 149 W/m² 5,4 °C 10,6 °C 0,0 km/h (0 Bft)
10.03.2018 13:19 10,6 °C 69 % 1006,4 hPa 0,0 mm 0,0 km/h (0 Bft) W-NW 303 ° 0 min 0,000 mm 1,1 UV-I 137 W/m² 5,2 °C 10,6 °C 0,0 km/h (0 Bft)
10.03.2018 13:20 10,6 °C 68 % 1006,4 hPa 0,0 mm 0,0 km/h (0 Bft) W-NW 303 ° 0 min 0,000 mm 1,1 UV-I 128 W/m² 4,9 °C 10,6 °C 0,0 km/h (0 Bft)
10.03.2018 13:21 10,6 °C 69 % 1006,4 hPa 0,0 mm 0,0 km/h (0 Bft) W-NW 303 ° 0 min 0,000 mm 1,0 UV-I 123 W/m² 5,2 °C 10,6 °C 0,0 km/h (0 Bft)
10.03.2018 13:22 10,6 °C 69 % 1006,4 hPa 0,0 mm 0,0 km/h (0 Bft) W-NW 303 ° 0 min 0,000 mm 1,0 UV-I 118 W/m² 5,2 °C 10,6 °C 0,0 km/h (0 Bft)
10.03.2018 13:23 10,6 °C 69 % 1006,4 hPa 0,0 mm 0,0 km/h (0 Bft) W-NW 303 ° 0 min 0,000 mm 1,0 UV-I 116 W/m² 5,2 °C 10,6 °C 0,0 km/h (0 Bft)
10.03.2018 13:24 10,6 °C 70 % 1006,4 hPa 0,0 mm 0,0 km/h (0 Bft) W-NW 303 ° 0 min 0,000 mm 1,0 UV-I 116 W/m² 5,4 °C 10,6 °C 0,0 km/h (0 Bft)
10.03.2018 13:25 10,6 °C 71 % 1006,4 hPa 0,0 mm 0,0 km/h (0 Bft) W-NW 303 ° 0 min 0,000 mm 1,0 UV-I 116 W/m² 5,6 °C 10,6 °C 0,0 km/h (0 Bft)
10.03.2018 13:26 10,6 °C 70 % 1006,4 hPa 0,0 mm 0,0 km/h (0 Bft) W-NW 303 ° 0 min 0,000 mm 0,9 UV-I 114 W/m² 5,4 °C 10,6 °C 0,0 km/h (0 Bft)
10.03.2018 13:27 10,6 °C 71 % 1006,5 hPa 0,0 mm 0,0 km/h (0 Bft) W-NW 303 ° 0 min 0,000 mm 0,9 UV-I 111 W/m² 5,6 °C 10,6 °C 0,0 km/h (0 Bft)
10.03.2018 13:28 10,6 °C 70 % 1006,4 hPa 0,0 mm 0,0 km/h (0 Bft) W-NW 303 ° 0 min 0,000 mm 0,9 UV-I 107 W/m² 5,4 °C 10,6 °C 0,0 km/h (0 Bft)
10.03.2018 13:29 10,6 °C 71 % 1006,4 hPa 0,0 mm 0,0 km/h (0 Bft) W-NW 303 ° 0 min 0,000 mm 0,9 UV-I 109 W/m² 5,6 °C 10,6 °C 0,0 km/h (0 Bft)
10.03.2018 13:30 10,6 °C 74 % 1006,4 hPa 0,0 mm 0,0 km/h (0 Bft) W-NW 303 ° 0 min 0,000 mm 0,9 UV-I 113 W/m² 6,2 °C 10,6 °C 0,0 km/h (0 Bft)
10.03.2018 13:31 10,4 °C 74 % 1006,3 hPa 0,0 mm 0,0 km/h (0 Bft) W-NW 303 ° 0 min 0,000 mm 0,9 UV-I 114 W/m² 6,0 °C 10,4 °C 0,0 km/h (0 Bft)
10.03.2018 13:32 10,4 °C 75 % 1006,3 hPa 0,0 mm 0,0 km/h (0 Bft) W-NW 303 ° 0 min 0,000 mm 0,9 UV-I 116 W/m² 6,2 °C 10,4 °C 0,0 km/h (0 Bft)
10.03.2018 13:33 10,3 °C 74 % 1006,3 hPa 0,0 mm 0,0 km/h (0 Bft) W-NW 303 ° 0 min 0,000 mm 0,9 UV-I 121 W/m² 5,9 °C 10,3 °C 0,0 km/h (0 Bft)
10.03.2018 13:34 10,2 °C 75 % 1006,3 hPa 0,0 mm 0,0 km/h (0 Bft) W-NW 303 ° 0 min 0,000 mm 1,0 UV-I 121 W/m² 6,0 °C 10,2 °C 0,0 km/h (0 Bft)
10.03.2018 13:35 10,2 °C 75 % 1006,3 hPa 0,0 mm 0,0 km/h (0 Bft) W-NW 303 ° 0 min 0,000 mm 1,0 UV-I 120 W/m² 6,0 °C 10,2 °C 0,0 km/h (0 Bft)
10.03.2018 13:36 10,3 °C 75 % 1006,3 hPa 0,0 mm 0,0 km/h (0 Bft) W-NW 303 ° 0 min 0,000 mm 0,9 UV-I 116 W/m² 6,1 °C 10,3 °C 0,0 km/h (0 Bft)
10.03.2018 13:37 10,3 °C 74 % 1006,3 hPa 0,0 mm 0,0 km/h (0 Bft) W-NW 303 ° 0 min 0,000 mm 0,9 UV-I 111 W/m² 5,9 °C 10,3 °C 0,0 km/h (0 Bft)
10.03.2018 13:38 10,2 °C 75 % 1006,3 hPa 0,0 mm 0,0 km/h (0 Bft) W-NW 303 ° 0 min 0,000 mm 0,9 UV-I 104 W/m² 6,0 °C 10,2 °C 0,0 km/h (0 Bft)
10.03.2018 13:39 10,2 °C 77 % 1006,3 hPa 0,0 mm 0,0 km/h (0 Bft) W-NW 303 ° 0 min 0,000 mm 0,8 UV-I 97 W/m² 6,4 °C 10,2 °C 0,0 km/h (0 Bft)
10.03.2018 13:40 10,1 °C 76 % 1006,3 hPa 0,0 mm 0,0 km/h (0 Bft) W-NW 303 ° 0 min 0,000 mm 0,8 UV-I 88 W/m² 6,1 °C 10,1 °C 0,0 km/h (0 Bft)
10.03.2018 13:41 10,1 °C 76 % 1006,4 hPa 0,0 mm 0,0 km/h (0 Bft) W-NW 303 ° 0 min 0,000 mm 0,7 UV-I 86 W/m² 6,1 °C 10,1 °C 0,0 km/h (0 Bft)
10.03.2018 13:42 10,1 °C 74 % 1006,3 hPa 0,0 mm 0,0 km/h (0 Bft) W-NW 303 ° 0 min 0,000 mm 0,7 UV-I 86 W/m² 5,7 °C 10,1 °C 0,0 km/h (0 Bft)
10.03.2018 13:43 10,0 °C 76 % 1006,3 hPa 0,0 mm 1,2 km/h (1 Bft) W-NW 303 ° 0 min 0,000 mm 0,7 UV-I 88 W/m² 6,0 °C 10,0 °C 3,2 km/h (1 Bft)
10.03.2018 13:44 10,0 °C 74 % 1006,3 hPa 0,0 mm 1,7 km/h (1 Bft) W-NW 303 ° 0 min 0,000 mm 0,7 UV-I 90 W/m² 5,6 °C 10,0 °C 3,2 km/h (1 Bft)
10.03.2018 13:45 10,0 °C 76 % 1006,2 hPa 0,0 mm 1,3 km/h (1 Bft) W-NW 303 ° 0 min 0,000 mm 0,8 UV-I 100 W/m² 6,0 °C 10,0 °C 1,6 km/h (1 Bft)
10.03.2018 13:46 9,9 °C 79 % 1006,1 hPa 0,0 mm 2,6 km/h (1 Bft) N-NW 345 ° 0 min 0,000 mm 0,8 UV-I 107 W/m² 6,4 °C 9,9 °C 4,8 km/h (1 Bft)
10.03.2018 13:47 9,8 °C 80 % 1006,1 hPa 0,0 mm 2,2 km/h (1 Bft) N-NW 345 ° 0 min 0,000 mm 0,9 UV-I 118 W/m² 6,5 °C 9,8 °C 3,2 km/h (1 Bft)
10.03.2018 13:48 9,7 °C 79 % 1006,0 hPa 0,0 mm 0,6 km/h (0 Bft) N-NW 345 ° 0 min 0,000 mm 1,0 UV-I 125 W/m² 6,2 °C 9,7 °C 1,6 km/h (1 Bft)
10.03.2018 13:49 9,6 °C 82 % 1006,0 hPa 0,2 mm 0,0 km/h (0 Bft) N-NW 345 ° 0 min 0,000 mm 1,1 UV-I 132 W/m² 6,7 °C 9,6 °C 0,0 km/h (0 Bft)
10.03.2018 13:50 9,6 °C 82 % 1006,0 hPa 0,0 mm 0,0 km/h (0 Bft) N-NW 345 ° 0 min 0,000 mm 1,1 UV-I 137 W/m² 6,7 °C 9,6 °C 0,0 km/h (0 Bft)
10.03.2018 13:51 9,5 °C 83 % 1006,0 hPa 0,0 mm 0,0 km/h (0 Bft) N-NW 345 ° 0 min 0,000 mm 1,1 UV-I 146 W/m² 6,8 °C 9,5 °C 0,0 km/h (0 Bft)
10.03.2018 13:52 9,5 °C 81 % 1006,0 hPa 0,0 mm 0,0 km/h (0 Bft) N-NW 345 ° 0 min 0,000 mm 1,2 UV-I 149 W/m² 6,4 °C 9,5 °C 0,0 km/h (0 Bft)
10.03.2018 13:53 9,6 °C 81 % 1006,0 hPa 0,0 mm 0,0 km/h (0 Bft) N-NW 345 ° 0 min 0,000 mm 1,2 UV-I 153 W/m² 6,5 °C 9,6 °C 0,0 km/h (0 Bft)
10.03.2018 13:54 9,6 °C 81 % 1006,0 hPa 0,0 mm 0,0 km/h (0 Bft) N-NW 345 ° 0 min 0,000 mm 1,2 UV-I 156 W/m² 6,5 °C 9,6 °C 0,0 km/h (0 Bft)
10.03.2018 13:55 9,6 °C 82 % 1006,0 hPa 0,0 mm 0,0 km/h (0 Bft) N-NW 345 ° 0 min 0,000 mm 1,2 UV-I 158 W/m² 6,7 °C 9,6 °C 0,0 km/h (0 Bft)
10.03.2018 13:56 9,6 °C 82 % 1005,9 hPa 0,0 mm 0,1 km/h (0 Bft) N-NW 345 ° 0 min 0,000 mm 1,2 UV-I 158 W/m² 6,7 °C 9,6 °C 1,6 km/h (1 Bft)
10.03.2018 13:57 9,6 °C 81 % 1005,9 hPa 0,0 mm 0,0 km/h (0 Bft) N-NW 345 ° 0 min 0,000 mm 1,2 UV-I 155 W/m² 6,5 °C 9,6 °C 0,0 km/h (0 Bft)
10.03.2018 13:58 9,6 °C 83 % 1005,9 hPa 0,0 mm 0,0 km/h (0 Bft) N-NW 345 ° 0 min 0,000 mm 1,2 UV-I 151 W/m² 6,9 °C 9,6 °C 0,0 km/h (0 Bft)
10.03.2018 13:59 9,6 °C 82 % 1006,0 hPa 0,0 mm 3,0 km/h (1 Bft) NO 49 ° 0 min 0,000 mm 1,2 UV-I 149 W/m² 6,7 °C 9,6 °C 6,4 km/h (2 Bft)
10.03.2018 14:00 9,7 °C 81 % 1005,9 hPa 0,0 mm 1,8 km/h (1 Bft) O-NO 66 ° 0 min 0,076 mm 1,2 UV-I 149 W/m² 6,6 °C 9,7 °C 4,8 km/h (1 Bft)
10.03.2018 14:01 9,7 °C 81 % 1005,9 hPa 0,0 mm 2,0 km/h (1 Bft) O-NO 66 ° 0 min 0,000 mm 1,2 UV-I 151 W/m² 6,6 °C 9,7 °C 3,2 km/h (1 Bft)
10.03.2018 14:02 9,7 °C 84 % 1005,9 hPa 0,0 mm 1,8 km/h (1 Bft) O-NO 66 ° 0 min 0,000 mm 1,2 UV-I 153 W/m² 7,1 °C 9,7 °C 3,2 km/h (1 Bft)
10.03.2018 14:03 9,6 °C 84 % 1005,9 hPa 0,0 mm 2,3 km/h (1 Bft) O-NO 67 ° 0 min 0,000 mm 1,2 UV-I 156 W/m² 7,0 °C 9,6 °C 4,8 km/h (1 Bft)
10.03.2018 14:04 9,7 °C 83 % 1005,8 hPa 0,0 mm 1,1 km/h (1 Bft) O-NO 67 ° 0 min 0,000 mm 1,2 UV-I 156 W/m² 7,0 °C 9,7 °C 3,2 km/h (1 Bft)
10.03.2018 14:05 9,7 °C 84 % 1005,8 hPa 0,0 mm 1,6 km/h (1 Bft) O-NO 74 ° 0 min 0,000 mm 1,2 UV-I 158 W/m² 7,1 °C 9,7 °C 6,4 km/h (2 Bft)
10.03.2018 14:06 9,7 °C 82 % 1005,8 hPa 0,0 mm 3,9 km/h (1 Bft) O-NO 64 ° 0 min 0,000 mm 1,3 UV-I 160 W/m² 6,8 °C 9,7 °C 6,4 km/h (2 Bft)
10.03.2018 14:07 9,6 °C 82 % 1005,9 hPa 0,0 mm 0,6 km/h (0 Bft) O-NO 64 ° 0 min 0,000 mm 1,3 UV-I 167 W/m² 6,7 °C 9,6 °C 3,2 km/h (1 Bft)
10.03.2018 14:08 9,6 °C 81 % 1005,8 hPa 0,0 mm 2,1 km/h (1 Bft) O-NO 64 ° 0 min 0,000 mm 1,3 UV-I 176 W/m² 6,5 °C 9,6 °C 4,8 km/h (1 Bft)
10.03.2018 14:09 9,6 °C 82 % 1005,8 hPa 0,0 mm 0,1 km/h (0 Bft) O-NO 64 ° 0 min 0,000 mm 1,4 UV-I 197 W/m² 6,7 °C 9,6 °C 1,6 km/h (1 Bft)
10.03.2018 14:10 9,6 °C 84 % 1005,8 hPa 0,0 mm 0,0 km/h (0 Bft) O-NO 64 ° 0 min 0,000 mm 1,5 UV-I 206 W/m² 7,0 °C 9,6 °C 0,0 km/h (0 Bft)
10.03.2018 14:11 9,6 °C 84 % 1005,9 hPa 0,0 mm 0,0 km/h (0 Bft) O-NO 64 ° 0 min 0,000 mm 1,5 UV-I 207 W/m² 7,0 °C 9,6 °C 0,0 km/h (0 Bft)
10.03.2018 14:12 9,6 °C 84 % 1005,9 hPa 0,0 mm 0,0 km/h (0 Bft) O-NO 64 ° 0 min 0,000 mm 1,5 UV-I 204 W/m² 7,0 °C 9,6 °C 0,0 km/h (0 Bft)
10.03.2018 14:13 9,6 °C 81 % 1005,9 hPa 0,0 mm 1,6 km/h (1 Bft) O-NO 65 ° 0 min 0,000 mm 1,5 UV-I 199 W/m² 6,5 °C 9,6 °C 3,2 km/h (1 Bft)
10.03.2018 14:14 9,6 °C 82 % 1005,9 hPa 0,0 mm 2,2 km/h (1 Bft) O-NO 65 ° 0 min 0,000 mm 1,4 UV-I 192 W/m² 6,7 °C 9,6 °C 3,2 km/h (1 Bft)
10.03.2018 14:15 9,7 °C 83 % 1005,9 hPa 0,0 mm 1,7 km/h (1 Bft) O-NO 65 ° 0 min 0,000 mm 1,4 UV-I 178 W/m² 7,0 °C 9,7 °C 3,2 km/h (1 Bft)
10.03.2018 14:16 9,6 °C 83 % 1005,9 hPa 0,0 mm 1,8 km/h (1 Bft) O-NO 65 ° 0 min 0,000 mm 1,3 UV-I 171 W/m² 6,9 °C 9,6 °C 3,2 km/h (1 Bft)
10.03.2018 14:17 9,7 °C 82 % 1005,8 hPa 0,0 mm 5,6 km/h (1 Bft) O-NO 65 ° 0 min 0,000 mm 1,3 UV-I 165 W/m² 6,8 °C 9,2 °C 6,4 km/h (2 Bft)
10.03.2018 14:18 9,7 °C 82 % 1005,8 hPa 0,0 mm 4,4 km/h (1 Bft) O-NO 65 ° 0 min 0,000 mm 1,2 UV-I 160 W/m² 6,8 °C 9,7 °C 6,4 km/h (2 Bft)
10.03.2018 14:19 9,7 °C 83 % 1005,8 hPa 0,0 mm 5,8 km/h (2 Bft) O-NO 69 ° 0 min 0,000 mm 1,2 UV-I 153 W/m² 7,0 °C 9,2 °C 9,7 km/h (2 Bft)
10.03.2018 14:20 9,7 °C 82 % 1005,8 hPa 0,0 mm 4,4 km/h (1 Bft) O-NO 69 ° 0 min 0,000 mm 1,1 UV-I 149 W/m² 6,8 °C 9,7 °C 6,4 km/h (2 Bft)
10.03.2018 14:21 9,7 °C 82 % 1005,8 hPa 0,0 mm 3,8 km/h (1 Bft) NO 53 ° 0 min 0,000 mm 1,1 UV-I 144 W/m² 6,8 °C 9,7 °C 8,0 km/h (2 Bft)
10.03.2018 14:22 9,7 °C 82 % 1005,8 hPa 0,0 mm 4,3 km/h (1 Bft) O 84 ° 0 min 0,000 mm 1,1 UV-I 141 W/m² 6,8 °C 9,7 °C 8,0 km/h (2 Bft)
10.03.2018 14:23 9,7 °C 84 % 1005,8 hPa 0,0 mm 2,8 km/h (1 Bft) O-NO 74 ° 0 min 0,000 mm 1,0 UV-I 135 W/m² 7,1 °C 9,7 °C 8,0 km/h (2 Bft)
10.03.2018 14:24 9,7 °C 83 % 1005,9 hPa 0,0 mm 4,3 km/h (1 Bft) O-NO 67 ° 0 min 0,000 mm 1,0 UV-I 128 W/m² 7,0 °C 9,7 °C 8,0 km/h (2 Bft)
10.03.2018 14:25 9,7 °C 83 % 1005,9 hPa 0,0 mm 4,2 km/h (1 Bft) O-NO 67 ° 0 min 0,000 mm 0,9 UV-I 120 W/m² 7,0 °C 9,7 °C 6,4 km/h (2 Bft)
10.03.2018 14:26 9,7 °C 84 % 1005,9 hPa 0,0 mm 3,4 km/h (1 Bft) O-NO 67 ° 0 min 0,000 mm 0,9 UV-I 111 W/m² 7,1 °C 9,7 °C 4,8 km/h (1 Bft)
10.03.2018 14:27 9,6 °C 83 % 1005,9 hPa 0,0 mm 1,7 km/h (1 Bft) O-NO 67 ° 0 min 0,000 mm 0,9 UV-I 109 W/m² 6,9 °C 9,6 °C 3,2 km/h (1 Bft)
10.03.2018 14:28 9,7 °C 83 % 1005,8 hPa 0,0 mm 2,5 km/h (1 Bft) O-NO 67 ° 0 min 0,000 mm 0,9 UV-I 109 W/m² 7,0 °C 9,7 °C 4,8 km/h (1 Bft)
10.03.2018 14:29 9,7 °C 83 % 1005,9 hPa 0,0 mm 4,8 km/h (1 Bft) O-NO 61 ° 0 min 0,000 mm 0,8 UV-I 107 W/m² 7,0 °C 9,5 °C 6,4 km/h (2 Bft)
10.03.2018 14:30 9,7 °C 83 % 1005,9 hPa 0,0 mm 3,2 km/h (1 Bft) O-NO 61 ° 0 min 0,000 mm 0,8 UV-I 104 W/m² 7,0 °C 9,7 °C 4,8 km/h (1 Bft)
10.03.2018 14:31 9,7 °C 83 % 1005,9 hPa 0,0 mm 2,7 km/h (1 Bft) O-NO 61 ° 0 min 0,000 mm 0,8 UV-I 100 W/m² 7,0 °C 9,7 °C 4,8 km/h (1 Bft)
10.03.2018 14:32 9,7 °C 83 % 1005,9 hPa 0,0 mm 1,0 km/h (0 Bft) O-NO 61 ° 0 min 0,000 mm 0,8 UV-I 91 W/m² 7,0 °C 9,7 °C 3,2 km/h (1 Bft)
10.03.2018 14:33 9,7 °C 83 % 1005,9 hPa 0,0 mm 0,0 km/h (0 Bft) O-NO 61 ° 0 min 0,000 mm 0,7 UV-I 88 W/m² 7,0 °C 9,7 °C 0,0 km/h (0 Bft)
10.03.2018 14:34 9,7 °C 83 % 1006,0 hPa 0,0 mm 0,7 km/h (0 Bft) O-NO 61 ° 0 min 0,000 mm 0,7 UV-I 83 W/m² 7,0 °C 9,7 °C 3,2 km/h (1 Bft)
10.03.2018 14:35 9,7 °C 83 % 1005,9 hPa 0,0 mm 1,6 km/h (1 Bft) O-NO 61 ° 0 min 0,000 mm 0,7 UV-I 77 W/m² 7,0 °C 9,7 °C 3,2 km/h (1 Bft)
10.03.2018 14:36 9,6 °C 83 % 1005,9 hPa 0,0 mm 1,6 km/h (1 Bft) O-NO 61 ° 0 min 0,000 mm 0,6 UV-I 72 W/m² 6,9 °C 9,6 °C 4,8 km/h (1 Bft)
10.03.2018 14:37 9,6 °C 83 % 1005,9 hPa 0,0 mm 3,1 km/h (1 Bft) O-NO 61 ° 0 min 0,000 mm 0,6 UV-I 67 W/m² 6,9 °C 9,6 °C 4,8 km/h (1 Bft)
10.03.2018 14:38 9,6 °C 84 % 1005,9 hPa 0,0 mm 0,8 km/h (0 Bft) O-NO 61 ° 0 min 0,000 mm 0,6 UV-I 63 W/m² 7,0 °C 9,6 °C 1,6 km/h (1 Bft)
10.03.2018 14:39 9,6 °C 84 % 1005,9 hPa 0,0 mm 0,0 km/h (0 Bft) O-NO 61 ° 0 min 0,000 mm 0,5 UV-I 62 W/m² 7,0 °C 9,6 °C 0,0 km/h (0 Bft)
10.03.2018 14:40 9,6 °C 84 % 1005,9 hPa 0,0 mm 1,2 km/h (1 Bft) O-NO 61 ° 0 min 0,000 mm 0,5 UV-I 62 W/m² 7,0 °C 9,6 °C 3,2 km/h (1 Bft)
10.03.2018 14:41 9,6 °C 84 % 1005,9 hPa 0,0 mm 2,0 km/h (1 Bft) O-NO 61 ° 0 min 0,000 mm 0,5 UV-I 62 W/m² 7,0 °C 9,6 °C 3,2 km/h (1 Bft)
10.03.2018 14:42 9,6 °C 84 % 1005,9 hPa 0,0 mm 2,5 km/h (1 Bft) O-NO 61 ° 0 min 0,000 mm 0,5 UV-I 62 W/m² 7,0 °C 9,6 °C 4,8 km/h (1 Bft)
10.03.2018 14:43 9,5 °C 83 % 1005,9 hPa 0,0 mm 2,7 km/h (1 Bft) O-NO 61 ° 0 min 0,000 mm 0,5 UV-I 63 W/m² 6,8 °C 9,5 °C 4,8 km/h (1 Bft)
10.03.2018 14:44 9,4 °C 84 % 1005,9 hPa 0,0 mm 3,8 km/h (1 Bft) O-NO 61 ° 0 min 0,000 mm 0,5 UV-I 65 W/m² 6,8 °C 9,4 °C 6,4 km/h (2 Bft)
10.03.2018 14:45 9,4 °C 84 % 1005,9 hPa 0,0 mm 2,4 km/h (1 Bft) O-NO 61 ° 0 min 0,000 mm 0,5 UV-I 67 W/m² 6,8 °C 9,4 °C 3,2 km/h (1 Bft)
10.03.2018 14:46 9,4 °C 85 % 1005,9 hPa 0,0 mm 0,6 km/h (0 Bft) O-NO 61 ° 0 min 0,000 mm 0,5 UV-I 69 W/m² 7,0 °C 9,4 °C 1,6 km/h (1 Bft)
10.03.2018 14:47 9,3 °C 85 % 1005,9 hPa 0,0 mm 0,6 km/h (0 Bft) O-NO 61 ° 0 min 0,000 mm 0,5 UV-I 70 W/m² 6,9 °C 9,3 °C 3,2 km/h (1 Bft)
10.03.2018 14:48 9,3 °C 86 % 1005,9 hPa 0,0 mm 0,3 km/h (0 Bft) O-NO 61 ° 0 min 0,000 mm 0,6 UV-I 72 W/m² 7,1 °C 9,3 °C 1,6 km/h (1 Bft)
10.03.2018 14:49 9,3 °C 86 % 1005,9 hPa 0,0 mm 2,1 km/h (1 Bft) O-NO 61 ° 0 min 0,000 mm 0,6 UV-I 76 W/m² 7,1 °C 9,3 °C 4,8 km/h (1 Bft)
10.03.2018 14:50 9,2 °C 86 % 1005,9 hPa 0,0 mm 0,1 km/h (0 Bft) O-NO 61 ° 0 min 0,000 mm 0,6 UV-I 84 W/m² 7,0 °C 9,2 °C 1,6 km/h (1 Bft)
10.03.2018 14:51 9,2 °C 86 % 1005,9 hPa 0,0 mm 3,4 km/h (1 Bft) O-NO 61 ° 0 min 0,000 mm 0,6 UV-I 86 W/m² 7,0 °C 9,2 °C 4,8 km/h (1 Bft)
10.03.2018 14:52 9,1 °C 86 % 1005,9 hPa 0,0 mm 3,4 km/h (1 Bft) O-NO 61 ° 0 min 0,000 mm 0,6 UV-I 88 W/m² 6,9 °C 9,1 °C 4,8 km/h (1 Bft)
10.03.2018 14:53 9,1 °C 87 % 1005,8 hPa 0,0 mm 2,3 km/h (1 Bft) O-NO 61 ° 0 min 0,000 mm 0,6 UV-I 90 W/m² 7,1 °C 9,1 °C 3,2 km/h (1 Bft)
10.03.2018 14:54 9,1 °C 87 % 1005,8 hPa 0,0 mm 0,9 km/h (0 Bft) O-NO 61 ° 0 min 0,000 mm 0,6 UV-I 91 W/m² 7,1 °C 9,1 °C 3,2 km/h (1 Bft)
10.03.2018 14:55 9,1 °C 87 % 1005,8 hPa 0,0 mm 2,4 km/h (1 Bft) O-NO 61 ° 0 min 0,000 mm 0,7 UV-I 93 W/m² 7,1 °C 9,1 °C 3,2 km/h (1 Bft)
10.03.2018 14:56 9,0 °C 88 % 1005,8 hPa 0,0 mm 3,0 km/h (1 Bft) O-NO 61 ° 0 min 0,000 mm 0,7 UV-I 102 W/m² 7,1 °C 9,0 °C 4,8 km/h (1 Bft)
10.03.2018 14:57 8,9 °C 88 % 1005,7 hPa 0,2 mm 5,2 km/h (1 Bft) O-NO 77 ° 0 min 0,000 mm 0,8 UV-I 109 W/m² 7,0 °C 8,4 °C 6,4 km/h (2 Bft)
10.03.2018 14:58 8,9 °C 88 % 1005,6 hPa 0,0 mm 4,6 km/h (1 Bft) O 96 ° 0 min 0,000 mm 0,9 UV-I 118 W/m² 7,0 °C 8,6 °C 9,7 km/h (2 Bft)
10.03.2018 14:59 8,9 °C 87 % 1005,6 hPa 0,0 mm 4,2 km/h (1 Bft) O 90 ° 0 min 0,000 mm 1,0 UV-I 125 W/m² 6,9 °C 8,9 °C 6,4 km/h (2 Bft)
10.03.2018 15:00 8,9 °C 87 % 1005,6 hPa 0,0 mm 3,8 km/h (1 Bft) O 90 ° 0 min 0,000 mm 1,0 UV-I 128 W/m² 6,9 °C 8,9 °C 4,8 km/h (1 Bft)
10.03.2018 15:01 8,9 °C 86 % 1005,7 hPa 0,0 mm 3,0 km/h (1 Bft) O 90 ° 0 min 0,051 mm 1,0 UV-I 130 W/m² 6,7 °C 8,9 °C 4,8 km/h (1 Bft)
10.03.2018 15:02 9,0 °C 86 % 1005,7 hPa 0,0 mm 2,6 km/h (1 Bft) O 90 ° 0 min 0,000 mm 1,0 UV-I 130 W/m² 6,8 °C 9,0 °C 3,2 km/h (1 Bft)
10.03.2018 15:03 9,0 °C 86 % 1005,7 hPa 0,0 mm 1,7 km/h (1 Bft) O 90 ° 0 min 0,000 mm 1,0 UV-I 128 W/m² 6,8 °C 9,0 °C 3,2 km/h (1 Bft)
10.03.2018 15:04 9,0 °C 86 % 1005,7 hPa 0,0 mm 3,2 km/h (1 Bft) O 90 ° 0 min 0,000 mm 1,0 UV-I 128 W/m² 6,8 °C 9,0 °C 6,4 km/h (2 Bft)
10.03.2018 15:05 9,1 °C 87 % 1005,7 hPa 0,0 mm 4,1 km/h (1 Bft) O 90 ° 0 min 0,000 mm 1,0 UV-I 127 W/m² 7,1 °C 9,1 °C 4,8 km/h (1 Bft)
10.03.2018 15:06 9,1 °C 86 % 1005,7 hPa 0,0 mm 2,3 km/h (1 Bft) O 90 ° 0 min 0,000 mm 0,9 UV-I 127 W/m² 6,9 °C 9,1 °C 4,8 km/h (1 Bft)
10.03.2018 15:07 9,0 °C 86 % 1005,7 hPa 0,0 mm 3,4 km/h (1 Bft) O 90 ° 0 min 0,000 mm 0,9 UV-I 121 W/m² 6,8 °C 9,0 °C 4,8 km/h (1 Bft)
10.03.2018 15:08 9,0 °C 86 % 1005,7 hPa 0,0 mm 3,8 km/h (1 Bft) O 90 ° 0 min 0,000 mm 0,8 UV-I 116 W/m² 6,8 °C 9,0 °C 6,4 km/h (2 Bft)
10.03.2018 15:09 8,9 °C 86 % 1005,7 hPa 0,0 mm 4,6 km/h (1 Bft) O 90 ° 0 min 0,000 mm 0,8 UV-I 111 W/m² 6,7 °C 8,6 °C 4,8 km/h (1 Bft)
10.03.2018 15:10 8,9 °C 86 % 1005,8 hPa 0,0 mm 4,2 km/h (1 Bft) O 90 ° 0 min 0,000 mm 0,7 UV-I 104 W/m² 6,7 °C 8,9 °C 4,8 km/h (1 Bft)
10.03.2018 15:11 8,9 °C 86 % 1005,8 hPa 0,0 mm 2,8 km/h (1 Bft) O 90 ° 0 min 0,000 mm 0,7 UV-I 97 W/m² 6,7 °C 8,9 °C 4,8 km/h (1 Bft)
10.03.2018 15:12 8,9 °C 86 % 1005,8 hPa 0,0 mm 0,1 km/h (0 Bft) O 90 ° 0 min 0,000 mm 0,7 UV-I 91 W/m² 6,7 °C 8,9 °C 1,6 km/h (1 Bft)
10.03.2018 15:13 8,9 °C 87 % 1005,7 hPa 0,0 mm 3,2 km/h (1 Bft) O 90 ° 0 min 0,000 mm 0,6 UV-I 84 W/m² 6,9 °C 8,9 °C 4,8 km/h (1 Bft)
10.03.2018 15:14 8,9 °C 87 % 1005,8 hPa 0,0 mm 2,9 km/h (1 Bft) O 90 ° 0 min 0,000 mm 0,6 UV-I 83 W/m² 6,9 °C 8,9 °C 3,2 km/h (1 Bft)
10.03.2018 15:15 8,8 °C 87 % 1005,8 hPa 0,0 mm 3,2 km/h (1 Bft) O 90 ° 0 min 0,000 mm 0,6 UV-I 83 W/m² 6,8 °C 8,8 °C 4,8 km/h (1 Bft)
10.03.2018 15:16 8,8 °C 86 % 1005,7 hPa 0,0 mm 3,5 km/h (1 Bft) O 90 ° 0 min 0,000 mm 0,6 UV-I 83 W/m² 6,6 °C 8,8 °C 4,8 km/h (1 Bft)
10.03.2018 15:17 8,8 °C 86 % 1005,7 hPa 0,0 mm 2,5 km/h (1 Bft) O 90 ° 0 min 0,000 mm 0,6 UV-I 84 W/m² 6,6 °C 8,8 °C 4,8 km/h (1 Bft)
10.03.2018 15:18 8,8 °C 86 % 1005,7 hPa 0,0 mm 3,2 km/h (1 Bft) O 90 ° 0 min 0,000 mm 0,6 UV-I 86 W/m² 6,6 °C 8,8 °C 4,8 km/h (1 Bft)
10.03.2018 15:19 8,7 °C 86 % 1005,7 hPa 0,0 mm 1,9 km/h (1 Bft) O 90 ° 0 min 0,000 mm 0,6 UV-I 90 W/m² 6,5 °C 8,7 °C 3,2 km/h (1 Bft)
10.03.2018 15:20 8,8 °C 86 % 1005,7 hPa 0,0 mm 1,2 km/h (1 Bft) O 90 ° 0 min 0,000 mm 0,7 UV-I 90 W/m² 6,6 °C 8,8 °C 3,2 km/h (1 Bft)
10.03.2018 15:21 8,7 °C 87 % 1005,6 hPa 0,0 mm 1,2 km/h (1 Bft) O 90 ° 0 min 0,000 mm 0,7 UV-I 90 W/m² 6,7 °C 8,7 °C 3,2 km/h (1 Bft)
10.03.2018 15:22 8,7 °C 87 % 1005,7 hPa 0,0 mm 1,4 km/h (1 Bft) O 90 ° 0 min 0,000 mm 0,6 UV-I 90 W/m² 6,7 °C 8,7 °C 3,2 km/h (1 Bft)
10.03.2018 15:23 8,7 °C 87 % 1005,7 hPa 0,0 mm 0,2 km/h (0 Bft) O 90 ° 0 min 0,000 mm 0,6 UV-I 86 W/m² 6,7 °C 8,7 °C 1,6 km/h (1 Bft)
10.03.2018 15:24 8,7 °C 87 % 1005,8 hPa 0,0 mm 0,0 km/h (0 Bft) O 90 ° 0 min 0,000 mm 0,6 UV-I 83 W/m² 6,7 °C 8,7 °C 0,0 km/h (0 Bft)
10.03.2018 15:25 8,7 °C 87 % 1005,8 hPa 0,0 mm 0,0 km/h (0 Bft) O 90 ° 0 min 0,000 mm 0,6 UV-I 83 W/m² 6,7 °C 8,7 °C 0,0 km/h (0 Bft)
10.03.2018 15:26 8,7 °C 87 % 1005,7 hPa 0,0 mm 0,4 km/h (0 Bft) O 90 ° 0 min 0,000 mm 0,6 UV-I 84 W/m² 6,7 °C 8,7 °C 1,6 km/h (1 Bft)
10.03.2018 15:27 8,7 °C 87 % 1005,7 hPa 0,0 mm 1,7 km/h (1 Bft) O 90 ° 0 min 0,000 mm 0,6 UV-I 90 W/m² 6,7 °C 8,7 °C 3,2 km/h (1 Bft)
10.03.2018 15:28 8,6 °C 87 % 1005,6 hPa 0,0 mm 1,4 km/h (1 Bft) O 90 ° 0 min 0,000 mm 0,7 UV-I 93 W/m² 6,6 °C 8,6 °C 3,2 km/h (1 Bft)
10.03.2018 15:29 8,6 °C 88 % 1005,6 hPa 0,0 mm 3,4 km/h (1 Bft) O 90 ° 0 min 0,000 mm 0,7 UV-I 97 W/m² 6,7 °C 8,6 °C 4,8 km/h (1 Bft)
10.03.2018 15:30 8,6 °C 88 % 1005,5 hPa 0,0 mm 1,1 km/h (1 Bft) O 90 ° 0 min 0,000 mm 0,7 UV-I 98 W/m² 6,7 °C 8,6 °C 4,8 km/h (1 Bft)
10.03.2018 15:31 8,4 °C 88 % 1005,5 hPa 0,0 mm 0,1 km/h (0 Bft) O 90 ° 0 min 0,000 mm 0,7 UV-I 98 W/m² 6,5 °C 8,4 °C 1,6 km/h (1 Bft)
10.03.2018 15:32 8,4 °C 88 % 1005,5 hPa 0,0 mm 0,3 km/h (0 Bft) O 90 ° 0 min 0,000 mm 0,7 UV-I 95 W/m² 6,5 °C 8,4 °C 1,6 km/h (1 Bft)
10.03.2018 15:33 8,4 °C 88 % 1005,6 hPa 0,0 mm 0,0 km/h (0 Bft) O 90 ° 0 min 0,000 mm 0,7 UV-I 93 W/m² 6,5 °C 8,4 °C 0,0 km/h (0 Bft)
10.03.2018 15:34 8,4 °C 89 % 1005,6 hPa 0,0 mm 0,0 km/h (0 Bft) O 90 ° 0 min 0,000 mm 0,6 UV-I 90 W/m² 6,7 °C 8,4 °C 0,0 km/h (0 Bft)
10.03.2018 15:35 8,4 °C 89 % 1005,6 hPa 0,0 mm 0,0 km/h (0 Bft) O 90 ° 0 min 0,000 mm 0,6 UV-I 86 W/m² 6,7 °C 8,4 °C 0,0 km/h (0 Bft)
10.03.2018 15:36 8,4 °C 89 % 1005,6 hPa 0,0 mm 0,0 km/h (0 Bft) O 90 ° 0 min 0,000 mm 0,6 UV-I 83 W/m² 6,7 °C 8,4 °C 0,0 km/h (0 Bft)
10.03.2018 15:37 8,4 °C 88 % 1005,6 hPa 0,0 mm 0,0 km/h (0 Bft) O 90 ° 0 min 0,000 mm 0,6 UV-I 76 W/m² 6,5 °C 8,4 °C 0,0 km/h (0 Bft)
10.03.2018 15:38 8,4 °C 87 % 1005,6 hPa 0,0 mm 0,6 km/h (0 Bft) O 90 ° 0 min 0,000 mm 0,5 UV-I 76 W/m² 6,4 °C 8,4 °C 1,6 km/h (1 Bft)
10.03.2018 15:39 8,4 °C 86 % 1005,6 hPa 0,0 mm 0,7 km/h (0 Bft) O 90 ° 0 min 0,000 mm 0,6 UV-I 77 W/m² 6,2 °C 8,4 °C 1,6 km/h (1 Bft)
10.03.2018 15:40 8,4 °C 87 % 1005,6 hPa 0,0 mm 0,0 km/h (0 Bft) O 90 ° 0 min 0,000 mm 0,6 UV-I 81 W/m² 6,4 °C 8,4 °C 0,0 km/h (0 Bft)
10.03.2018 15:41 8,4 °C 88 % 1005,6 hPa 0,0 mm 0,0 km/h (0 Bft) O 90 ° 0 min 0,000 mm 0,6 UV-I 84 W/m² 6,5 °C 8,4 °C 0,0 km/h (0 Bft)
10.03.2018 15:42 8,4 °C 88 % 1005,6 hPa 0,0 mm 0,0 km/h (0 Bft) O 90 ° 0 min 0,000 mm 0,6 UV-I 88 W/m² 6,5 °C 8,4 °C 0,0 km/h (0 Bft)
10.03.2018 15:43 8,4 °C 88 % 1005,6 hPa 0,0 mm 0,0 km/h (0 Bft) O 90 ° 0 min 0,000 mm 0,6 UV-I 88 W/m² 6,5 °C 8,4 °C 0,0 km/h (0 Bft)
10.03.2018 15:44 8,4 °C 89 % 1005,6 hPa 0,0 mm 0,0 km/h (0 Bft) O 90 ° 0 min 0,000 mm 0,6 UV-I 88 W/m² 6,7 °C 8,4 °C 0,0 km/h (0 Bft)
10.03.2018 15:45 8,3 °C 89 % 1005,6 hPa 0,0 mm 0,0 km/h (0 Bft) O 90 ° 0 min 0,000 mm 0,6 UV-I 86 W/m² 6,6 °C 8,3 °C 0,0 km/h (0 Bft)
10.03.2018 15:46 8,3 °C 88 % 1005,7 hPa 0,0 mm 0,0 km/h (0 Bft) O 90 ° 0 min 0,000 mm 0,6 UV-I 86 W/m² 6,4 °C 8,3 °C 0,0 km/h (0 Bft)
10.03.2018 15:47 8,4 °C 88 % 1005,6 hPa 0,0 mm 0,0 km/h (0 Bft) O 90 ° 0 min 0,000 mm 0,6 UV-I 84 W/m² 6,5 °C 8,4 °C 0,0 km/h (0 Bft)
10.03.2018 15:48 8,4 °C 88 % 1005,7 hPa 0,0 mm 0,0 km/h (0 Bft) O 90 ° 0 min 0,000 mm 0,6 UV-I 83 W/m² 6,5 °C 8,4 °C 0,0 km/h (0 Bft)
10.03.2018 15:49 8,4 °C 88 % 1005,7 hPa 0,0 mm 0,0 km/h (0 Bft) O 90 ° 0 min 0,000 mm 0,6 UV-I 79 W/m² 6,5 °C 8,4 °C 0,0 km/h (0 Bft)
10.03.2018 15:50 8,4 °C 88 % 1005,6 hPa 0,0 mm 0,0 km/h (0 Bft) O 90 ° 0 min 0,000 mm 0,5 UV-I 77 W/m² 6,5 °C 8,4 °C 0,0 km/h (0 Bft)
10.03.2018 15:51 8,4 °C 88 % 1005,7 hPa 0,0 mm 0,0 km/h (0 Bft) O 90 ° 0 min 0,000 mm 0,5 UV-I 74 W/m² 6,5 °C 8,4 °C 0,0 km/h (0 Bft)
10.03.2018 15:52 8,4 °C 88 % 1005,7 hPa 0,0 mm 0,0 km/h (0 Bft) O 90 ° 0 min 0,000 mm 0,5 UV-I 70 W/m² 6,5 °C 8,4 °C 0,0 km/h (0 Bft)
10.03.2018 15:53 8,4 °C 88 % 1005,7 hPa 0,0 mm 0,6 km/h (0 Bft) O 90 ° 0 min 0,000 mm 0,5 UV-I 69 W/m² 6,5 °C 8,4 °C 3,2 km/h (1 Bft)
10.03.2018 15:54 8,5 °C 88 % 1005,7 hPa 0,0 mm 3,2 km/h (1 Bft) O 90 ° 0 min 0,000 mm 0,0 UV-I 63 W/m² 6,6 °C 8,5 °C 4,8 km/h (1 Bft)
10.03.2018 15:55 8,5 °C 88 % 1005,7 hPa 0,0 mm 3,2 km/h (1 Bft) O 90 ° 0 min 0,000 mm 0,0 UV-I 63 W/m² 6,6 °C 8,5 °C 4,8 km/h (1 Bft)
10.03.2018 15:56 8,5 °C 88 % 1005,7 hPa 0,0 mm 1,7 km/h (1 Bft) O 90 ° 0 min 0,000 mm 0,0 UV-I 62 W/m² 6,6 °C 8,5 °C 3,2 km/h (1 Bft)
10.03.2018 15:57 8,5 °C 88 % 1005,7 hPa 0,0 mm 1,5 km/h (1 Bft) O 90 ° 0 min 0,000 mm 0,0 UV-I 62 W/m² 6,6 °C 8,5 °C 3,2 km/h (1 Bft)
10.03.2018 15:58 8,5 °C 88 % 1005,7 hPa 0,0 mm 3,2 km/h (1 Bft) O 90 ° 0 min 0,000 mm 0,0 UV-I 62 W/m² 6,6 °C 8,5 °C 4,8 km/h (1 Bft)
10.03.2018 15:59 8,4 °C 88 % 1005,7 hPa 0,0 mm 2,1 km/h (1 Bft) O 90 ° 0 min 0,000 mm 0,0 UV-I 62 W/m² 6,5 °C 8,4 °C 4,8 km/h (1 Bft)
10.03.2018 16:00 8,4 °C 88 % 1005,7 hPa 0,0 mm 1,1 km/h (1 Bft) O 90 ° 0 min 0,000 mm 0,0 UV-I 60 W/m² 6,5 °C 8,4 °C 3,2 km/h (1 Bft)
10.03.2018 16:01 8,4 °C 88 % 1005,7 hPa 0,0 mm 0,0 km/h (0 Bft) O 90 ° 0 min 0,050 mm 0,0 UV-I 58 W/m² 6,5 °C 8,4 °C 0,0 km/h (0 Bft)
10.03.2018 16:02 8,4 °C 88 % 1005,7 hPa 0,0 mm 0,0 km/h (0 Bft) O 90 ° 0 min 0,000 mm 0,0 UV-I 56 W/m² 6,5 °C 8,4 °C 0,0 km/h (0 Bft)
10.03.2018 16:03 8,4 °C 88 % 1005,7 hPa 0,2 mm 0,0 km/h (0 Bft) O 90 ° 0 min 0,000 mm 0,0 UV-I 54 W/m² 6,5 °C 8,4 °C 0,0 km/h (0 Bft)
10.03.2018 16:04 8,4 °C 89 % 1005,7 hPa 0,0 mm 0,0 km/h (0 Bft) O 90 ° 0 min 0,000 mm 0,0 UV-I 54 W/m² 6,7 °C 8,4 °C 0,0 km/h (0 Bft)
10.03.2018 16:05 8,4 °C 88 % 1005,7 hPa 0,0 mm 0,0 km/h (0 Bft) O 90 ° 0 min 0,000 mm 0,0 UV-I 53 W/m² 6,5 °C 8,4 °C 0,0 km/h (0 Bft)
10.03.2018 16:06 8,3 °C 88 % 1005,7 hPa 0,0 mm 0,0 km/h (0 Bft) O 90 ° 0 min 0,000 mm 0,0 UV-I 53 W/m² 6,4 °C 8,3 °C 0,0 km/h (0 Bft)
10.03.2018 16:07 8,3 °C 88 % 1005,7 hPa 0,0 mm 0,0 km/h (0 Bft) O 90 ° 0 min 0,000 mm 0,0 UV-I 53 W/m² 6,4 °C 8,3 °C 0,0 km/h (0 Bft)
10.03.2018 16:08 8,3 °C 88 % 1005,7 hPa 0,0 mm 0,0 km/h (0 Bft) O 90 ° 0 min 0,000 mm 0,0 UV-I 51 W/m² 6,4 °C 8,3 °C 0,0 km/h (0 Bft)
10.03.2018 16:09 8,3 °C 88 % 1005,7 hPa 0,0 mm 0,0 km/h (0 Bft) O 90 ° 0 min 0,000 mm 0,0 UV-I 51 W/m² 6,4 °C 8,3 °C 0,0 km/h (0 Bft)
10.03.2018 16:10 8,3 °C 88 % 1005,8 hPa 0,0 mm 0,0 km/h (0 Bft) O 90 ° 0 min 0,000 mm 0,0 UV-I 51 W/m² 6,4 °C 8,3 °C 0,0 km/h (0 Bft)
10.03.2018 16:11 8,3 °C 88 % 1005,8 hPa 0,0 mm 0,0 km/h (0 Bft) O 90 ° 0 min 0,000 mm 0,0 UV-I 51 W/m² 6,4 °C 8,3 °C 0,0 km/h (0 Bft)
10.03.2018 16:12 8,3 °C 89 % 1005,8 hPa 0,0 mm 0,0 km/h (0 Bft) O 90 ° 0 min 0,000 mm 0,0 UV-I 54 W/m² 6,6 °C 8,3 °C 0,0 km/h (0 Bft)
10.03.2018 16:13 8,3 °C 89 % 1005,8 hPa 0,0 mm 0,0 km/h (0 Bft) O 90 ° 0 min 0,000 mm 0,0 UV-I 58 W/m² 6,6 °C 8,3 °C 0,0 km/h (0 Bft)
10.03.2018 16:14 8,3 °C 89 % 1005,8 hPa 0,0 mm 0,0 km/h (0 Bft) O 90 ° 0 min 0,000 mm 0,0 UV-I 60 W/m² 6,6 °C 8,3 °C 0,0 km/h (0 Bft)
10.03.2018 16:15 8,3 °C 89 % 1005,8 hPa 0,0 mm 0,0 km/h (0 Bft) O 90 ° 0 min 0,000 mm 0,0 UV-I 62 W/m² 6,6 °C 8,3 °C 0,0 km/h (0 Bft)
10.03.2018 16:16 8,3 °C 89 % 1005,8 hPa 0,0 mm 0,0 km/h (0 Bft) O 90 ° 0 min 0,000 mm 0,0 UV-I 63 W/m² 6,6 °C 8,3 °C 0,0 km/h (0 Bft)
10.03.2018 16:17 8,3 °C 90 % 1005,8 hPa 0,0 mm 0,4 km/h (0 Bft) O 90 ° 0 min 0,000 mm 0,0 UV-I 65 W/m² 6,8 °C 8,3 °C 1,6 km/h (1 Bft)
10.03.2018 16:18 8,2 °C 90 % 1005,8 hPa 0,0 mm 1,0 km/h (0 Bft) O 90 ° 0 min 0,000 mm 0,0 UV-I 62 W/m² 6,7 °C 8,2 °C 1,6 km/h (1 Bft)
10.03.2018 16:19 8,2 °C 90 % 1005,8 hPa 0,0 mm 0,9 km/h (0 Bft) O 90 ° 0 min 0,000 mm 0,0 UV-I 62 W/m² 6,7 °C 8,2 °C 3,2 km/h (1 Bft)
10.03.2018 16:20 8,2 °C 90 % 1005,8 hPa 0,0 mm 0,3 km/h (0 Bft) O 90 ° 0 min 0,000 mm 0,0 UV-I 60 W/m² 6,7 °C 8,2 °C 1,6 km/h (1 Bft)
10.03.2018 16:21 8,2 °C 90 % 1005,9 hPa 0,0 mm 0,0 km/h (0 Bft) O 90 ° 0 min 0,000 mm 0,0 UV-I 62 W/m² 6,7 °C 8,2 °C 0,0 km/h (0 Bft)
10.03.2018 16:22 8,2 °C 90 % 1005,8 hPa 0,0 mm 0,0 km/h (0 Bft) O 90 ° 0 min 0,000 mm 0,0 UV-I 60 W/m² 6,7 °C 8,2 °C 0,0 km/h (0 Bft)
10.03.2018 16:23 8,2 °C 90 % 1005,9 hPa 0,0 mm 0,0 km/h (0 Bft) O 90 ° 0 min 0,000 mm 0,0 UV-I 62 W/m² 6,7 °C 8,2 °C 0,0 km/h (0 Bft)
10.03.2018 16:24 8,2 °C 90 % 1005,9 hPa 0,0 mm 0,0 km/h (0 Bft) O 90 ° 0 min 0,000 mm 0,0 UV-I 63 W/m² 6,7 °C 8,2 °C 0,0 km/h (0 Bft)
10.03.2018 16:25 8,2 °C 90 % 1005,9 hPa 0,0 mm 0,1 km/h (0 Bft) O 90 ° 0 min 0,000 mm 0,0 UV-I 65 W/m² 6,7 °C 8,2 °C 1,6 km/h (1 Bft)
10.03.2018 16:26 8,2 °C 90 % 1005,9 hPa 0,0 mm 0,0 km/h (0 Bft) O 90 ° 0 min 0,000 mm 0,0 UV-I 65 W/m² 6,7 °C 8,2 °C 0,0 km/h (0 Bft)
10.03.2018 16:27 8,2 °C 90 % 1005,9 hPa 0,0 mm 0,0 km/h (0 Bft) O 90 ° 0 min 0,000 mm 0,0 UV-I 67 W/m² 6,7 °C 8,2 °C 0,0 km/h (0 Bft)
10.03.2018 16:28 8,2 °C 90 % 1005,9 hPa 0,2 mm 0,0 km/h (0 Bft) O 90 ° 0 min 0,000 mm 0,0 UV-I 67 W/m² 6,7 °C 8,2 °C 0,0 km/h (0 Bft)
10.03.2018 16:29 8,2 °C 90 % 1005,9 hPa 0,0 mm 0,0 km/h (0 Bft) O 90 ° 0 min 0,000 mm 0,0 UV-I 67 W/m² 6,7 °C 8,2 °C 0,0 km/h (0 Bft)
10.03.2018 16:30 8,2 °C 90 % 1005,9 hPa 0,0 mm 0,0 km/h (0 Bft) O 90 ° 0 min 0,000 mm 0,0 UV-I 65 W/m² 6,7 °C 8,2 °C 0,0 km/h (0 Bft)
10.03.2018 16:31 8,3 °C 90 % 1005,9 hPa 0,0 mm 0,0 km/h (0 Bft) O 90 ° 0 min 0,000 mm 0,0 UV-I 65 W/m² 6,8 °C 8,3 °C 0,0 km/h (0 Bft)
10.03.2018 16:32 8,3 °C 90 % 1005,9 hPa 0,0 mm 0,0 km/h (0 Bft) O 90 ° 0 min 0,000 mm 0,0 UV-I 65 W/m² 6,8 °C 8,3 °C 0,0 km/h (0 Bft)
10.03.2018 16:33 8,3 °C 90 % 1005,9 hPa 0,0 mm 0,0 km/h (0 Bft) O 90 ° 0 min 0,000 mm 0,0 UV-I 65 W/m² 6,8 °C 8,3 °C 0,0 km/h (0 Bft)
10.03.2018 16:34 8,3 °C 90 % 1005,9 hPa 0,0 mm 0,0 km/h (0 Bft) O 90 ° 0 min 0,000 mm 0,0 UV-I 63 W/m² 6,8 °C 8,3 °C 0,0 km/h (0 Bft)
10.03.2018 16:35 8,3 °C 90 % 1005,9 hPa 0,0 mm 0,0 km/h (0 Bft) O 90 ° 0 min 0,000 mm 0,0 UV-I 58 W/m² 6,8 °C 8,3 °C 0,0 km/h (0 Bft)
10.03.2018 16:36 8,2 °C 90 % 1005,9 hPa 0,0 mm 0,0 km/h (0 Bft) O 90 ° 0 min 0,000 mm 0,0 UV-I 56 W/m² 6,7 °C 8,2 °C 0,0 km/h (0 Bft)
10.03.2018 16:37 8,2 °C 90 % 1005,9 hPa 0,0 mm 0,0 km/h (0 Bft) O 90 ° 0 min 0,000 mm 0,0 UV-I 54 W/m² 6,7 °C 8,2 °C 0,0 km/h (0 Bft)
10.03.2018 16:38 8,1 °C 90 % 1006,0 hPa 0,0 mm 0,0 km/h (0 Bft) O 90 ° 0 min 0,000 mm 0,0 UV-I 53 W/m² 6,6 °C 8,1 °C 0,0 km/h (0 Bft)
10.03.2018 16:39 8,2 °C 90 % 1006,0 hPa 0,0 mm 0,0 km/h (0 Bft) O 90 ° 0 min 0,000 mm 0,0 UV-I 51 W/m² 6,7 °C 8,2 °C 0,0 km/h (0 Bft)
10.03.2018 16:40 8,2 °C 90 % 1006,0 hPa 0,0 mm 0,0 km/h (0 Bft) O 90 ° 0 min 0,000 mm 0,0 UV-I 51 W/m² 6,7 °C 8,2 °C 0,0 km/h (0 Bft)
10.03.2018 16:41 8,2 °C 90 % 1006,0 hPa 0,0 mm 0,0 km/h (0 Bft) O 90 ° 0 min 0,000 mm 0,0 UV-I 49 W/m² 6,7 °C 8,2 °C 0,0 km/h (0 Bft)
10.03.2018 16:42 8,2 °C 90 % 1005,9 hPa 0,0 mm 0,0 km/h (0 Bft) O 90 ° 0 min 0,000 mm 0,0 UV-I 49 W/m² 6,7 °C 8,2 °C 0,0 km/h (0 Bft)
10.03.2018 16:43 8,2 °C 90 % 1005,9 hPa 0,0 mm 0,0 km/h (0 Bft) O 90 ° 0 min 0,000 mm 0,0 UV-I 49 W/m² 6,7 °C 8,2 °C 0,0 km/h (0 Bft)
10.03.2018 16:44 8,2 °C 90 % 1006,0 hPa 0,0 mm 0,0 km/h (0 Bft) O 90 ° 0 min 0,000 mm 0,0 UV-I 51 W/m² 6,7 °C 8,2 °C 0,0 km/h (0 Bft)
10.03.2018 16:45 8,2 °C 90 % 1006,0 hPa 0,0 mm 0,0 km/h (0 Bft) O 90 ° 0 min 0,000 mm 0,0 UV-I 53 W/m² 6,7 °C 8,2 °C 0,0 km/h (0 Bft)
10.03.2018 16:46 8,2 °C 90 % 1006,0 hPa 0,0 mm 0,0 km/h (0 Bft) O 90 ° 0 min 0,000 mm 0,0 UV-I 56 W/m² 6,7 °C 8,2 °C 0,0 km/h (0 Bft)
10.03.2018 16:47 8,2 °C 90 % 1006,0 hPa 0,0 mm 0,0 km/h (0 Bft) O 90 ° 0 min 0,000 mm 0,0 UV-I 65 W/m² 6,7 °C 8,2 °C 0,0 km/h (0 Bft)
10.03.2018 16:48 8,2 °C 90 % 1006,0 hPa 0,0 mm 0,0 km/h (0 Bft) O 90 ° 0 min 0,000 mm 0,0 UV-I 70 W/m² 6,7 °C 8,2 °C 0,0 km/h (0 Bft)
10.03.2018 16:49 8,2 °C 90 % 1006,0 hPa 0,0 mm 0,0 km/h (0 Bft) O 90 ° 0 min 0,000 mm 0,0 UV-I 77 W/m² 6,7 °C 8,2 °C 0,0 km/h (0 Bft)
10.03.2018 16:50 8,2 °C 90 % 1006,0 hPa 0,0 mm 0,0 km/h (0 Bft) O 90 ° 0 min 0,000 mm 0,0 UV-I 84 W/m² 6,7 °C 8,2 °C 0,0 km/h (0 Bft)
10.03.2018 16:51 8,2 °C 90 % 1006,0 hPa 0,0 mm 0,0 km/h (0 Bft) O 90 ° 0 min 0,000 mm 0,0 UV-I 91 W/m² 6,7 °C 8,2 °C 0,0 km/h (0 Bft)
10.03.2018 16:52 8,2 °C 90 % 1006,0 hPa 0,0 mm 0,0 km/h (0 Bft) O 90 ° 0 min 0,000 mm 0,0 UV-I 98 W/m² 6,7 °C 8,2 °C 0,0 km/h (0 Bft)
10.03.2018 16:53 8,2 °C 90 % 1006,1 hPa 0,0 mm 0,0 km/h (0 Bft) O 90 ° 0 min 0,000 mm 0,0 UV-I 114 W/m² 6,7 °C 8,2 °C 0,0 km/h (0 Bft)
10.03.2018 16:54 8,2 °C 90 % 1006,0 hPa 0,0 mm 0,0 km/h (0 Bft) O 90 ° 0 min 0,000 mm 0,0 UV-I 121 W/m² 6,7 °C 8,2 °C 0,0 km/h (0 Bft)
10.03.2018 16:55 8,2 °C 90 % 1006,1 hPa 0,0 mm 0,0 km/h (0 Bft) O 90 ° 0 min 0,000 mm 0,0 UV-I 128 W/m² 6,7 °C 8,2 °C 0,0 km/h (0 Bft)
10.03.2018 16:56 8,2 °C 90 % 1006,1 hPa 0,0 mm 0,0 km/h (0 Bft) O 90 ° 0 min 0,000 mm 0,0 UV-I 134 W/m² 6,7 °C 8,2 °C 0,0 km/h (0 Bft)
10.03.2018 16:57 8,3 °C 90 % 1006,0 hPa 0,0 mm 0,0 km/h (0 Bft) O 90 ° 0 min 0,000 mm 0,0 UV-I 137 W/m² 6,8 °C 8,3 °C 0,0 km/h (0 Bft)
10.03.2018 16:58 8,3 °C 90 % 1006,1 hPa 0,0 mm 0,1 km/h (0 Bft) O 90 ° 0 min 0,000 mm 0,0 UV-I 139 W/m² 6,8 °C 8,3 °C 1,6 km/h (1 Bft)
10.03.2018 16:59 8,3 °C 90 % 1006,1 hPa 0,0 mm 2,5 km/h (1 Bft) O 90 ° 0 min 0,000 mm 0,0 UV-I 135 W/m² 6,8 °C 8,3 °C 3,2 km/h (1 Bft)
10.03.2018 17:00 8,3 °C 90 % 1006,1 hPa 0,0 mm 2,5 km/h (1 Bft) O 90 ° 0 min 0,000 mm 0,0 UV-I 132 W/m² 6,8 °C 8,3 °C 3,2 km/h (1 Bft)
10.03.2018 17:01 8,3 °C 90 % 1006,1 hPa 0,0 mm 1,3 km/h (1 Bft) O 90 ° 0 min 0,026 mm 0,0 UV-I 130 W/m² 6,8 °C 8,3 °C 3,2 km/h (1 Bft)
10.03.2018 17:02 8,4 °C 91 % 1006,2 hPa 0,0 mm 1,9 km/h (1 Bft) O 90 ° 0 min 0,000 mm 0,0 UV-I 127 W/m² 7,0 °C 8,4 °C 3,2 km/h (1 Bft)
10.03.2018 17:03 8,4 °C 91 % 1006,1 hPa 0,0 mm 0,1 km/h (0 Bft) O 90 ° 0 min 0,000 mm 0,0 UV-I 125 W/m² 7,0 °C 8,4 °C 1,6 km/h (1 Bft)
10.03.2018 17:04 8,3 °C 90 % 1006,1 hPa 0,0 mm 0,0 km/h (0 Bft) O 90 ° 0 min 0,000 mm 0,0 UV-I 120 W/m² 6,8 °C 8,3 °C 0,0 km/h (0 Bft)
10.03.2018 17:05 8,4 °C 90 % 1006,2 hPa 0,0 mm 0,0 km/h (0 Bft) O 90 ° 0 min 0,000 mm 0,0 UV-I 114 W/m² 6,9 °C 8,4 °C 0,0 km/h (0 Bft)
10.03.2018 17:06 8,4 °C 90 % 1006,1 hPa 0,0 mm 0,0 km/h (0 Bft) O 90 ° 0 min 0,000 mm 0,0 UV-I 105 W/m² 6,9 °C 8,4 °C 0,0 km/h (0 Bft)
10.03.2018 17:07 8,4 °C 90 % 1006,2 hPa 0,0 mm 0,0 km/h (0 Bft) O 88 ° 0 min 0,000 mm 0,0 UV-I 97 W/m² 6,9 °C 8,4 °C 0,0 km/h (0 Bft)
10.03.2018 17:08 8,4 °C 90 % 1006,2 hPa 0,0 mm 0,0 km/h (0 Bft) O 90 ° 0 min 0,000 mm 0,0 UV-I 88 W/m² 6,9 °C 8,4 °C 0,0 km/h (0 Bft)
10.03.2018 17:09 8,4 °C 90 % 1006,1 hPa 0,0 mm 0,0 km/h (0 Bft) O 90 ° 0 min 0,000 mm 0,0 UV-I 79 W/m² 6,9 °C 8,4 °C 0,0 km/h (0 Bft)
10.03.2018 17:10 8,4 °C 90 % 1006,2 hPa 0,0 mm 0,0 km/h (0 Bft) O 90 ° 0 min 0,000 mm 0,0 UV-I 67 W/m² 6,9 °C 8,4 °C 0,0 km/h (0 Bft)
10.03.2018 17:11 8,4 °C 90 % 1006,2 hPa 0,0 mm 0,0 km/h (0 Bft) O 90 ° 0 min 0,000 mm 0,0 UV-I 63 W/m² 6,9 °C 8,4 °C 0,0 km/h (0 Bft)
10.03.2018 17:12 8,4 °C 90 % 1006,2 hPa 0,0 mm 0,0 km/h (0 Bft) O 90 ° 0 min 0,000 mm 0,0 UV-I 62 W/m² 6,9 °C 8,4 °C 0,0 km/h (0 Bft)
10.03.2018 17:13 8,4 °C 90 % 1006,1 hPa 0,0 mm 0,0 km/h (0 Bft) O 90 ° 0 min 0,000 mm 0,0 UV-I 60 W/m² 6,9 °C 8,4 °C 0,0 km/h (0 Bft)
10.03.2018 17:14 8,4 °C 90 % 1006,1 hPa 0,0 mm 0,0 km/h (0 Bft) O 90 ° 0 min 0,000 mm 0,0 UV-I 58 W/m² 6,9 °C 8,4 °C 0,0 km/h (0 Bft)
10.03.2018 17:15 8,4 °C 90 % 1006,2 hPa 0,0 mm 0,0 km/h (0 Bft) O 90 ° 0 min 0,000 mm 0,0 UV-I 56 W/m² 6,9 °C 8,4 °C 0,0 km/h (0 Bft)
10.03.2018 17:16 8,4 °C 91 % 1006,3 hPa 0,0 mm 0,0 km/h (0 Bft) O 90 ° 0 min 0,000 mm 0,0 UV-I 49 W/m² 7,0 °C 8,4 °C 0,0 km/h (0 Bft)
10.03.2018 17:17 8,3 °C 90 % 1006,3 hPa 0,0 mm 0,0 km/h (0 Bft) O 90 ° 0 min 0,000 mm 0,0 UV-I 44 W/m² 6,8 °C 8,3 °C 0,0 km/h (0 Bft)
10.03.2018 17:18 8,4 °C 90 % 1006,3 hPa 0,0 mm 0,0 km/h (0 Bft) O 90 ° 0 min 0,000 mm 0,0 UV-I 40 W/m² 6,9 °C 8,4 °C 0,0 km/h (0 Bft)
10.03.2018 17:19 8,3 °C 90 % 1006,3 hPa 0,0 mm 0,0 km/h (0 Bft) O 90 ° 0 min 0,000 mm 0,0 UV-I 37 W/m² 6,8 °C 8,3 °C 0,0 km/h (0 Bft)
10.03.2018 17:20 8,3 °C 91 % 1006,3 hPa 0,0 mm 0,0 km/h (0 Bft) O 90 ° 0 min 0,000 mm 0,0 UV-I 33 W/m² 6,9 °C 8,3 °C 0,0 km/h (0 Bft)
10.03.2018 17:21 8,3 °C 90 % 1006,3 hPa 0,0 mm 0,0 km/h (0 Bft) O 90 ° 0 min 0,000 mm 0,0 UV-I 32 W/m² 6,8 °C 8,3 °C 0,0 km/h (0 Bft)
10.03.2018 17:22 8,3 °C 90 % 1006,3 hPa 0,0 mm 0,0 km/h (0 Bft) O 90 ° 0 min 0,000 mm 0,0 UV-I 28 W/m² 6,8 °C 8,3 °C 0,0 km/h (0 Bft)
10.03.2018 17:23 8,3 °C 91 % 1006,4 hPa 0,0 mm 0,0 km/h (0 Bft) O 90 ° 0 min 0,000 mm 0,0 UV-I 26 W/m² 6,9 °C 8,3 °C 0,0 km/h (0 Bft)
10.03.2018 17:24 8,3 °C 91 % 1006,3 hPa 0,0 mm 0,0 km/h (0 Bft) O 90 ° 0 min 0,000 mm 0,0 UV-I 26 W/m² 6,9 °C 8,3 °C 0,0 km/h (0 Bft)
10.03.2018 17:25 8,3 °C 91 % 1006,4 hPa 0,0 mm 0,0 km/h (0 Bft) O 90 ° 0 min 0,000 mm 0,0 UV-I 25 W/m² 6,9 °C 8,3 °C 0,0 km/h (0 Bft)
10.03.2018 17:26 8,3 °C 91 % 1006,4 hPa 0,0 mm 0,0 km/h (0 Bft) O 90 ° 0 min 0,000 mm 0,0 UV-I 25 W/m² 6,9 °C 8,3 °C 0,0 km/h (0 Bft)
10.03.2018 17:27 8,3 °C 91 % 1006,4 hPa 0,0 mm 0,0 km/h (0 Bft) O 90 ° 0 min 0,000 mm 0,0 UV-I 25 W/m² 6,9 °C 8,3 °C 0,0 km/h (0 Bft)
10.03.2018 17:28 8,2 °C 91 % 1006,4 hPa 0,0 mm 0,0 km/h (0 Bft) O 90 ° 0 min 0,000 mm 0,0 UV-I 25 W/m² 6,8 °C 8,2 °C 0,0 km/h (0 Bft)
10.03.2018 17:29 8,1 °C 91 % 1006,4 hPa 0,0 mm 0,0 km/h (0 Bft) O 90 ° 0 min 0,000 mm 0,0 UV-I 25 W/m² 6,7 °C 8,1 °C 0,0 km/h (0 Bft)
10.03.2018 17:30 8,1 °C 91 % 1006,4 hPa 0,0 mm 0,0 km/h (0 Bft) O 90 ° 0 min 0,000 mm 0,0 UV-I 25 W/m² 6,7 °C 8,1 °C 0,0 km/h (0 Bft)
10.03.2018 17:31 8,1 °C 91 % 1006,4 hPa 0,0 mm 0,0 km/h (0 Bft) O 90 ° 0 min 0,000 mm 0,0 UV-I 23 W/m² 6,7 °C 8,1 °C 0,0 km/h (0 Bft)
10.03.2018 17:32 8,1 °C 91 % 1006,4 hPa 0,0 mm 0,0 km/h (0 Bft) O 90 ° 0 min 0,000 mm 0,0 UV-I 23 W/m² 6,7 °C 8,1 °C 0,0 km/h (0 Bft)
10.03.2018 17:33 8,1 °C 91 % 1006,4 hPa 0,0 mm 0,0 km/h (0 Bft) O 90 ° 0 min 0,000 mm 0,0 UV-I 23 W/m² 6,7 °C 8,1 °C 0,0 km/h (0 Bft)
10.03.2018 17:34 8,1 °C 91 % 1006,4 hPa 0,0 mm 0,0 km/h (0 Bft) O 90 ° 0 min 0,000 mm 0,0 UV-I 21 W/m² 6,7 °C 8,1 °C 0,0 km/h (0 Bft)
10.03.2018 17:35 8,1 °C 91 % 1006,4 hPa 0,0 mm 0,0 km/h (0 Bft) O 90 ° 0 min 0,000 mm 0,0 UV-I 21 W/m² 6,7 °C 8,1 °C 0,0 km/h (0 Bft)
10.03.2018 17:36 8,1 °C 91 % 1006,5 hPa 0,0 mm 0,0 km/h (0 Bft) O 90 ° 0 min 0,000 mm 0,0 UV-I 21 W/m² 6,7 °C 8,1 °C 0,0 km/h (0 Bft)
10.03.2018 17:37 8,1 °C 91 % 1006,5 hPa 0,0 mm 0,0 km/h (0 Bft) O 90 ° 0 min 0,000 mm 0,0 UV-I 21 W/m² 6,7 °C 8,1 °C 0,0 km/h (0 Bft)
10.03.2018 17:38 8,1 °C 91 % 1006,5 hPa 0,0 mm 0,0 km/h (0 Bft) O 90 ° 0 min 0,000 mm 0,0 UV-I 21 W/m² 6,7 °C 8,1 °C 0,0 km/h (0 Bft)
10.03.2018 17:39 8,1 °C 91 % 1006,5 hPa 0,0 mm 0,0 km/h (0 Bft) O 90 ° 0 min 0,000 mm 0,0 UV-I 21 W/m² 6,7 °C 8,1 °C 0,0 km/h (0 Bft)
10.03.2018 17:40 8,1 °C 91 % 1006,5 hPa 0,0 mm 0,0 km/h (0 Bft) O 90 ° 0 min 0,000 mm 0,0 UV-I 21 W/m² 6,7 °C 8,1 °C 0,0 km/h (0 Bft)
10.03.2018 17:41 8,1 °C 91 % 1006,5 hPa 0,0 mm 0,0 km/h (0 Bft) O 90 ° 0 min 0,000 mm 0,0 UV-I 21 W/m² 6,7 °C 8,1 °C 0,0 km/h (0 Bft)
10.03.2018 17:42 8,1 °C 91 % 1006,6 hPa 0,0 mm 0,0 km/h (0 Bft) O 90 ° 0 min 0,000 mm 0,0 UV-I 19 W/m² 6,7 °C 8,1 °C 0,0 km/h (0 Bft)
10.03.2018 17:43 8,1 °C 92 % 1006,5 hPa 0,0 mm 0,0 km/h (0 Bft) O 90 ° 0 min 0,000 mm 0,0 UV-I 19 W/m² 6,9 °C 8,1 °C 0,0 km/h (0 Bft)
10.03.2018 17:44 8,0 °C 92 % 1006,5 hPa 0,0 mm 0,0 km/h (0 Bft) O 90 ° 0 min 0,000 mm 0,0 UV-I 18 W/m² 6,8 °C 8,0 °C 0,0 km/h (0 Bft)
10.03.2018 17:45 8,0 °C 92 % 1006,5 hPa 0,0 mm 0,0 km/h (0 Bft) O 90 ° 0 min 0,000 mm 0,0 UV-I 16 W/m² 6,8 °C 8,0 °C 0,0 km/h (0 Bft)
10.03.2018 17:46 7,9 °C 92 % 1006,6 hPa 0,0 mm 0,0 km/h (0 Bft) O 90 ° 0 min 0,000 mm 0,0 UV-I 14 W/m² 6,7 °C 7,9 °C 0,0 km/h (0 Bft)
10.03.2018 17:47 7,9 °C 92 % 1006,5 hPa 0,0 mm 0,0 km/h (0 Bft) O 90 ° 0 min 0,000 mm 0,0 UV-I 12 W/m² 6,7 °C 7,9 °C 0,0 km/h (0 Bft)
10.03.2018 17:48 7,9 °C 92 % 1006,5 hPa 0,0 mm 0,0 km/h (0 Bft) O 90 ° 0 min 0,000 mm 0,0 UV-I 11 W/m² 6,7 °C 7,9 °C 0,0 km/h (0 Bft)
10.03.2018 17:49 8,0 °C 92 % 1006,5 hPa 0,0 mm 0,0 km/h (0 Bft) O 90 ° 0 min 0,000 mm 0,0 UV-I 11 W/m² 6,8 °C 8,0 °C 0,0 km/h (0 Bft)
10.03.2018 17:50 7,9 °C 92 % 1006,5 hPa 0,0 mm 0,0 km/h (0 Bft) O 90 ° 0 min 0,000 mm 0,0 UV-I 9 W/m² 6,7 °C 7,9 °C 0,0 km/h (0 Bft)
10.03.2018 17:51 7,9 °C 92 % 1006,5 hPa 0,0 mm 0,0 km/h (0 Bft) O 90 ° 0 min 0,000 mm 0,0 UV-I 7 W/m² 6,7 °C 7,9 °C 0,0 km/h (0 Bft)
10.03.2018 17:52 7,9 °C 92 % 1006,6 hPa 0,0 mm 0,0 km/h (0 Bft) O 90 ° 0 min 0,000 mm 0,0 UV-I 5 W/m² 6,7 °C 7,9 °C 0,0 km/h (0 Bft)
10.03.2018 17:53 7,9 °C 92 % 1006,6 hPa 0,0 mm 0,0 km/h (0 Bft) O 90 ° 0 min 0,000 mm 0,0 UV-I 5 W/m² 6,7 °C 7,9 °C 0,0 km/h (0 Bft)
10.03.2018 17:54 7,9 °C 92 % 1006,6 hPa 0,0 mm 0,0 km/h (0 Bft) O 90 ° 0 min 0,000 mm 0,0 UV-I 5 W/m² 6,7 °C 7,9 °C 0,0 km/h (0 Bft)
10.03.2018 17:55 7,9 °C 92 % 1006,6 hPa 0,0 mm 0,0 km/h (0 Bft) O 90 ° 0 min 0,000 mm 0,0 UV-I 5 W/m² 6,7 °C 7,9 °C 0,0 km/h (0 Bft)
10.03.2018 17:56 7,9 °C 92 % 1006,6 hPa 0,0 mm 1,0 km/h (0 Bft) O 90 ° 0 min 0,000 mm 0,0 UV-I 5 W/m² 6,7 °C 7,9 °C 3,2 km/h (1 Bft)
10.03.2018 17:57 7,8 °C 92 % 1006,7 hPa 0,0 mm 2,4 km/h (1 Bft) O 90 ° 0 min 0,000 mm 0,0 UV-I 0 W/m² 6,6 °C 7,8 °C 3,2 km/h (1 Bft)
10.03.2018 17:58 7,9 °C 92 % 1006,6 hPa 0,0 mm 2,5 km/h (1 Bft) O 90 ° 0 min 0,000 mm 0,0 UV-I 0 W/m² 6,7 °C 7,9 °C 3,2 km/h (1 Bft)
10.03.2018 17:59 7,8 °C 92 % 1006,7 hPa 0,0 mm 1,4 km/h (1 Bft) O 90 ° 0 min 0,000 mm 0,0 UV-I 0 W/m² 6,6 °C 7,8 °C 3,2 km/h (1 Bft)
10.03.2018 18:00 7,8 °C 92 % 1006,7 hPa 0,0 mm 0,9 km/h (0 Bft) O 90 ° 0 min 0,000 mm 0,0 UV-I 0 W/m² 6,6 °C 7,8 °C 3,2 km/h (1 Bft)
10.03.2018 18:01 7,7 °C 92 % 1006,6 hPa 0,0 mm 0,0 km/h (0 Bft) O 90 ° 0 min 0,025 mm 0,0 UV-I 0 W/m² 6,5 °C 7,7 °C 0,0 km/h (0 Bft)
10.03.2018 18:02 7,7 °C 92 % 1006,7 hPa 0,0 mm 0,0 km/h (0 Bft) O 90 ° 0 min 0,000 mm 0,0 UV-I 0 W/m² 6,5 °C 7,7 °C 0,0 km/h (0 Bft)
10.03.2018 18:03 7,6 °C 92 % 1006,6 hPa 0,0 mm 0,0 km/h (0 Bft) O 90 ° 0 min 0,000 mm 0,0 UV-I 0 W/m² 6,4 °C 7,6 °C 0,0 km/h (0 Bft)
10.03.2018 18:04 7,6 °C 92 % 1006,6 hPa 0,0 mm 0,0 km/h (0 Bft) O 90 ° 0 min 0,000 mm 0,0 UV-I 0 W/m² 6,4 °C 7,6 °C 0,0 km/h (0 Bft)
10.03.2018 18:05 7,6 °C 92 % 1006,6 hPa 0,0 mm 0,0 km/h (0 Bft) O 90 ° 0 min 0,000 mm 0,0 UV-I 0 W/m² 6,4 °C 7,6 °C 0,0 km/h (0 Bft)
10.03.2018 18:06 7,6 °C 92 % 1006,6 hPa 0,0 mm 0,0 km/h (0 Bft) O 90 ° 0 min 0,000 mm 0,0 UV-I 0 W/m² 6,4 °C 7,6 °C 0,0 km/h (0 Bft)
10.03.2018 18:07 7,6 °C 92 % 1006,7 hPa 0,0 mm 0,0 km/h (0 Bft) O 90 ° 0 min 0,000 mm 0,0 UV-I 0 W/m² 6,4 °C 7,6 °C 0,0 km/h (0 Bft)
10.03.2018 18:08 7,6 °C 92 % 1006,6 hPa 0,0 mm 0,0 km/h (0 Bft) O 90 ° 0 min 0,000 mm 0,0 UV-I 0 W/m² 6,4 °C 7,6 °C 0,0 km/h (0 Bft)
10.03.2018 18:09 7,5 °C 92 % 1006,7 hPa 0,0 mm 0,0 km/h (0 Bft) O 90 ° 0 min 0,000 mm 0,0 UV-I 0 W/m² 6,3 °C 7,5 °C 0,0 km/h (0 Bft)
10.03.2018 18:10 7,5 °C 92 % 1006,7 hPa 0,0 mm 0,0 km/h (0 Bft) O 90 ° 0 min 0,000 mm 0,0 UV-I 0 W/m² 6,3 °C 7,5 °C 0,0 km/h (0 Bft)
10.03.2018 18:11 7,5 °C 92 % 1006,6 hPa 0,0 mm 0,0 km/h (0 Bft) O 90 ° 0 min 0,000 mm 0,0 UV-I 0 W/m² 6,3 °C 7,5 °C 0,0 km/h (0 Bft)
10.03.2018 18:12 7,4 °C 92 % 1006,7 hPa 0,0 mm 0,0 km/h (0 Bft) O 90 ° 0 min 0,000 mm 0,0 UV-I 0 W/m² 6,2 °C 7,4 °C 0,0 km/h (0 Bft)
10.03.2018 18:13 7,4 °C 92 % 1006,7 hPa 0,0 mm 0,0 km/h (0 Bft) O 90 ° 0 min 0,000 mm 0,0 UV-I 0 W/m² 6,2 °C 7,4 °C 0,0 km/h (0 Bft)
10.03.2018 18:14 7,4 °C 92 % 1006,7 hPa 0,0 mm 0,0 km/h (0 Bft) O 90 ° 0 min 0,000 mm 0,0 UV-I 0 W/m² 6,2 °C 7,4 °C 0,0 km/h (0 Bft)
10.03.2018 18:15 7,4 °C 92 % 1006,7 hPa 0,0 mm 0,0 km/h (0 Bft) O 90 ° 0 min 0,000 mm 0,0 UV-I 0 W/m² 6,2 °C 7,4 °C 0,0 km/h (0 Bft)
10.03.2018 18:16 7,3 °C 92 % 1006,7 hPa 0,0 mm 0,0 km/h (0 Bft) O 90 ° 0 min 0,000 mm 0,0 UV-I 0 W/m² 6,1 °C 7,3 °C 0,0 km/h (0 Bft)
10.03.2018 18:17 7,3 °C 92 % 1006,7 hPa 0,0 mm 0,0 km/h (0 Bft) O 90 ° 0 min 0,000 mm 0,0 UV-I 0 W/m² 6,1 °C 7,3 °C 0,0 km/h (0 Bft)
10.03.2018 18:18 7,3 °C 92 % 1006,7 hPa 0,2 mm 0,0 km/h (0 Bft) O 90 ° 0 min 0,000 mm 0,0 UV-I 0 W/m² 6,1 °C 7,3 °C 0,0 km/h (0 Bft)
10.03.2018 18:19 7,3 °C 92 % 1006,7 hPa 0,0 mm 0,0 km/h (0 Bft) O 90 ° 0 min 0,000 mm 0,0 UV-I 0 W/m² 6,1 °C 7,3 °C 0,0 km/h (0 Bft)
10.03.2018 18:20 7,3 °C 92 % 1006,8 hPa 0,0 mm 0,0 km/h (0 Bft) O 90 ° 0 min 0,000 mm 0,0 UV-I 0 W/m² 6,1 °C 7,3 °C 0,0 km/h (0 Bft)
10.03.2018 18:21 7,2 °C 92 % 1006,7 hPa 0,0 mm 0,0 km/h (0 Bft) O 90 ° 0 min 0,000 mm 0,0 UV-I 0 W/m² 6,0 °C 7,2 °C 0,0 km/h (0 Bft)
10.03.2018 18:22 7,2 °C 92 % 1006,7 hPa 0,0 mm 0,0 km/h (0 Bft) O 90 ° 0 min 0,000 mm 0,0 UV-I 0 W/m² 6,0 °C 7,2 °C 0,0 km/h (0 Bft)
10.03.2018 18:23 7,2 °C 92 % 1006,7 hPa 0,0 mm 0,0 km/h (0 Bft) O 90 ° 0 min 0,000 mm 0,0 UV-I 0 W/m² 6,0 °C 7,2 °C 0,0 km/h (0 Bft)
10.03.2018 18:24 7,2 °C 92 % 1006,8 hPa 0,0 mm 0,0 km/h (0 Bft) O 90 ° 0 min 0,000 mm 0,0 UV-I 0 W/m² 6,0 °C 7,2 °C 0,0 km/h (0 Bft)
10.03.2018 18:25 7,2 °C 92 % 1006,8 hPa 0,0 mm 0,0 km/h (0 Bft) O 90 ° 0 min 0,000 mm 0,0 UV-I 0 W/m² 6,0 °C 7,2 °C 0,0 km/h (0 Bft)
10.03.2018 18:26 7,2 °C 92 % 1006,7 hPa 0,0 mm 0,0 km/h (0 Bft) O 90 ° 0 min 0,000 mm 0,0 UV-I 0 W/m² 6,0 °C 7,2 °C 0,0 km/h (0 Bft)
10.03.2018 18:27 7,2 °C 92 % 1006,8 hPa 0,0 mm 0,0 km/h (0 Bft) O 90 ° 0 min 0,000 mm 0,0 UV-I 0 W/m² 6,0 °C 7,2 °C 0,0 km/h (0 Bft)
10.03.2018 18:28 7,2 °C 92 % 1006,8 hPa 0,0 mm 0,0 km/h (0 Bft) O 90 ° 0 min 0,000 mm 0,0 UV-I 0 W/m² 6,0 °C 7,2 °C 0,0 km/h (0 Bft)
10.03.2018 18:29 7,2 °C 92 % 1006,7 hPa 0,0 mm 0,0 km/h (0 Bft) O 90 ° 0 min 0,000 mm 0,0 UV-I 0 W/m² 6,0 °C 7,2 °C 0,0 km/h (0 Bft)
10.03.2018 18:30 7,1 °C 92 % 1006,7 hPa 0,0 mm 0,0 km/h (0 Bft) O 90 ° 0 min 0,000 mm 0,0 UV-I 0 W/m² 5,9 °C 7,1 °C 0,0 km/h (0 Bft)
10.03.2018 18:31 7,1 °C 92 % 1006,8 hPa 0,0 mm 0,0 km/h (0 Bft) O 90 ° 0 min 0,000 mm 0,0 UV-I 0 W/m² 5,9 °C 7,1 °C 0,0 km/h (0 Bft)
10.03.2018 18:32 7,1 °C 92 % 1006,8 hPa 0,0 mm 0,0 km/h (0 Bft) O 90 ° 0 min 0,000 mm 0,0 UV-I 0 W/m² 5,9 °C 7,1 °C 0,0 km/h (0 Bft)
10.03.2018 18:33 7,1 °C 92 % 1006,7 hPa 0,0 mm 0,0 km/h (0 Bft) O 90 ° 0 min 0,000 mm 0,0 UV-I 0 W/m² 5,9 °C 7,1 °C 0,0 km/h (0 Bft)
10.03.2018 18:34 7,1 °C 92 % 1006,6 hPa 0,0 mm 0,0 km/h (0 Bft) O 90 ° 0 min 0,000 mm 0,0 UV-I 0 W/m² 5,9 °C 7,1 °C 0,0 km/h (0 Bft)
10.03.2018 18:35 7,1 °C 92 % 1006,6 hPa 0,0 mm 0,0 km/h (0 Bft) O 90 ° 0 min 0,000 mm 0,0 UV-I 0 W/m² 5,9 °C 7,1 °C 0,0 km/h (0 Bft)
10.03.2018 18:36 7,0 °C 92 % 1006,6 hPa 0,0 mm 0,0 km/h (0 Bft) O 90 ° 0 min 0,000 mm 0,0 UV-I 0 W/m² 5,8 °C 7,0 °C 0,0 km/h (0 Bft)
10.03.2018 18:37 6,9 °C 92 % 1006,6 hPa 0,0 mm 0,0 km/h (0 Bft) O 90 ° 0 min 0,000 mm 0,0 UV-I 0 W/m² 5,7 °C 6,9 °C 0,0 km/h (0 Bft)
10.03.2018 18:38 6,9 °C 92 % 1006,6 hPa 0,0 mm 0,0 km/h (0 Bft) O 90 ° 0 min 0,000 mm 0,0 UV-I 0 W/m² 5,7 °C 6,9 °C 0,0 km/h (0 Bft)
10.03.2018 18:39 7,0 °C 93 % 1006,6 hPa 0,0 mm 0,0 km/h (0 Bft) O 90 ° 0 min 0,000 mm 0,0 UV-I 0 W/m² 5,9 °C 7,0 °C 0,0 km/h (0 Bft)
10.03.2018 18:40 6,9 °C 93 % 1006,6 hPa 0,0 mm 0,0 km/h (0 Bft) O 90 ° 0 min 0,000 mm 0,0 UV-I 0 W/m² 5,8 °C 6,9 °C 0,0 km/h (0 Bft)
10.03.2018 18:41 6,9 °C 93 % 1006,6 hPa 0,0 mm 0,0 km/h (0 Bft) O 90 ° 0 min 0,000 mm 0,0 UV-I 0 W/m² 5,8 °C 6,9 °C 0,0 km/h (0 Bft)
10.03.2018 18:42 6,9 °C 93 % 1006,6 hPa 0,0 mm 0,0 km/h (0 Bft) O 90 ° 0 min 0,000 mm 0,0 UV-I 0 W/m² 5,8 °C 6,9 °C 0,0 km/h (0 Bft)
10.03.2018 18:43 6,9 °C 93 % 1006,6 hPa 0,0 mm 0,0 km/h (0 Bft) O 90 ° 0 min 0,000 mm 0,0 UV-I 0 W/m² 5,8 °C 6,9 °C 0,0 km/h (0 Bft)
10.03.2018 18:44 6,9 °C 93 % 1006,6 hPa 0,0 mm 0,0 km/h (0 Bft) O 90 ° 0 min 0,000 mm 0,0 UV-I 0 W/m² 5,8 °C 6,9 °C 0,0 km/h (0 Bft)
10.03.2018 18:45 6,9 °C 93 % 1006,6 hPa 0,0 mm 0,0 km/h (0 Bft) O 90 ° 0 min 0,000 mm 0,0 UV-I 0 W/m² 5,8 °C 6,9 °C 0,0 km/h (0 Bft)
10.03.2018 18:46 6,9 °C 93 % 1006,6 hPa 0,0 mm 0,0 km/h (0 Bft) O 90 ° 0 min 0,000 mm 0,0 UV-I 0 W/m² 5,8 °C 6,9 °C 0,0 km/h (0 Bft)
10.03.2018 18:47 6,9 °C 93 % 1006,6 hPa 0,0 mm 0,0 km/h (0 Bft) O 90 ° 0 min 0,000 mm 0,0 UV-I 0 W/m² 5,8 °C 6,9 °C 0,0 km/h (0 Bft)
10.03.2018 18:48 6,9 °C 93 % 1006,6 hPa 0,0 mm 0,0 km/h (0 Bft) O 90 ° 0 min 0,000 mm 0,0 UV-I 0 W/m² 5,8 °C 6,9 °C 0,0 km/h (0 Bft)
10.03.2018 18:49 6,9 °C 93 % 1006,7 hPa 0,0 mm 0,0 km/h (0 Bft) O 90 ° 0 min 0,000 mm 0,0 UV-I 0 W/m² 5,8 °C 6,9 °C 0,0 km/h (0 Bft)
10.03.2018 18:50 6,9 °C 93 % 1006,6 hPa 0,0 mm 0,0 km/h (0 Bft) O 90 ° 0 min 0,000 mm 0,0 UV-I 0 W/m² 5,8 °C 6,9 °C 0,0 km/h (0 Bft)
10.03.2018 18:51 6,9 °C 93 % 1006,6 hPa 0,0 mm 0,0 km/h (0 Bft) O 90 ° 0 min 0,000 mm 0,0 UV-I 0 W/m² 5,8 °C 6,9 °C 0,0 km/h (0 Bft)
10.03.2018 18:52 6,9 °C 93 % 1006,6 hPa 0,0 mm 0,0 km/h (0 Bft) O 90 ° 0 min 0,000 mm 0,0 UV-I 0 W/m² 5,8 °C 6,9 °C 0,0 km/h (0 Bft)
10.03.2018 18:53 6,9 °C 93 % 1006,6 hPa 0,0 mm 0,0 km/h (0 Bft) O 90 ° 0 min 0,000 mm 0,0 UV-I 0 W/m² 5,8 °C 6,9 °C 0,0 km/h (0 Bft)
10.03.2018 18:54 6,9 °C 93 % 1006,6 hPa 0,0 mm 0,0 km/h (0 Bft) O 90 ° 0 min 0,000 mm 0,0 UV-I 0 W/m² 5,8 °C 6,9 °C 0,0 km/h (0 Bft)
10.03.2018 18:55 6,9 °C 93 % 1006,6 hPa 0,0 mm 0,0 km/h (0 Bft) O 90 ° 0 min 0,000 mm 0,0 UV-I 0 W/m² 5,8 °C 6,9 °C 0,0 km/h (0 Bft)
10.03.2018 18:56 6,8 °C 93 % 1006,6 hPa 0,0 mm 0,0 km/h (0 Bft) O 90 ° 0 min 0,000 mm 0,0 UV-I 0 W/m² 5,7 °C 6,8 °C 0,0 km/h (0 Bft)
10.03.2018 18:57 6,9 °C 93 % 1006,6 hPa 0,0 mm 0,0 km/h (0 Bft) O 90 ° 0 min 0,000 mm 0,0 UV-I 0 W/m² 5,8 °C 6,9 °C 0,0 km/h (0 Bft)
10.03.2018 18:58 6,9 °C 93 % 1006,6 hPa 0,0 mm 0,0 km/h (0 Bft) O 90 ° 0 min 0,000 mm 0,0 UV-I 0 W/m² 5,8 °C 6,9 °C 0,0 km/h (0 Bft)
10.03.2018 18:59 6,9 °C 93 % 1006,6 hPa 0,0 mm 0,0 km/h (0 Bft) O 90 ° 0 min 0,000 mm 0,0 UV-I 0 W/m² 5,8 °C 6,9 °C 0,0 km/h (0 Bft)
10.03.2018 19:00 6,9 °C 93 % 1006,6 hPa 0,0 mm 0,0 km/h (0 Bft) O 90 ° 0 min 0,000 mm 0,0 UV-I 0 W/m² 5,8 °C 6,9 °C 0,0 km/h (0 Bft)
10.03.2018 19:01 6,9 °C 93 % 1006,6 hPa 0,0 mm 0,0 km/h (0 Bft) O 90 ° 0 min 0,000 mm 0,0 UV-I 0 W/m² 5,8 °C 6,9 °C 0,0 km/h (0 Bft)
10.03.2018 19:02 6,9 °C 93 % 1006,6 hPa 0,0 mm 0,0 km/h (0 Bft) O 90 ° 0 min 0,000 mm 0,0 UV-I 0 W/m² 5,8 °C 6,9 °C 0,0 km/h (0 Bft)
10.03.2018 19:03 6,9 °C 93 % 1006,6 hPa 0,0 mm 0,0 km/h (0 Bft) O 90 ° 0 min 0,000 mm 0,0 UV-I 0 W/m² 5,8 °C 6,9 °C 0,0 km/h (0 Bft)
10.03.2018 19:04 6,8 °C 93 % 1006,6 hPa 0,0 mm 0,0 km/h (0 Bft) O 90 ° 0 min 0,000 mm 0,0 UV-I 0 W/m² 5,7 °C 6,8 °C 0,0 km/h (0 Bft)
10.03.2018 19:05 6,8 °C 92 % 1006,6 hPa 0,0 mm 0,0 km/h (0 Bft) O 90 ° 0 min 0,000 mm 0,0 UV-I 0 W/m² 5,6 °C 6,8 °C 0,0 km/h (0 Bft)
10.03.2018 19:06 6,8 °C 92 % 1006,6 hPa 0,0 mm 0,0 km/h (0 Bft) O 90 ° 0 min 0,000 mm 0,0 UV-I 0 W/m² 5,6 °C 6,8 °C 0,0 km/h (0 Bft)
10.03.2018 19:07 6,8 °C 93 % 1006,6 hPa 0,0 mm 0,0 km/h (0 Bft) O 90 ° 0 min 0,000 mm 0,0 UV-I 0 W/m² 5,7 °C 6,8 °C 0,0 km/h (0 Bft)
10.03.2018 19:08 6,7 °C 93 % 1006,7 hPa 0,0 mm 0,0 km/h (0 Bft) O 90 ° 0 min 0,000 mm 0,0 UV-I 0 W/m² 5,6 °C 6,7 °C 0,0 km/h (0 Bft)
10.03.2018 19:09 6,8 °C 93 % 1006,7 hPa 0,0 mm 0,0 km/h (0 Bft) O 90 ° 0 min 0,000 mm 0,0 UV-I 0 W/m² 5,7 °C 6,8 °C 0,0 km/h (0 Bft)
10.03.2018 19:10 6,8 °C 93 % 1006,7 hPa 0,0 mm 0,0 km/h (0 Bft) O 90 ° 0 min 0,000 mm 0,0 UV-I 0 W/m² 5,7 °C 6,8 °C 0,0 km/h (0 Bft)
10.03.2018 19:11 6,8 °C 93 % 1006,6 hPa 0,0 mm 0,0 km/h (0 Bft) O 90 ° 0 min 0,000 mm 0,0 UV-I 0 W/m² 5,7 °C 6,8 °C 0,0 km/h (0 Bft)
10.03.2018 19:12 6,8 °C 93 % 1006,6 hPa 0,0 mm 0,0 km/h (0 Bft) O 90 ° 0 min 0,000 mm 0,0 UV-I 0 W/m² 5,7 °C 6,8 °C 0,0 km/h (0 Bft)
10.03.2018 19:13 6,9 °C 93 % 1006,6 hPa 0,0 mm 0,0 km/h (0 Bft) O 90 ° 0 min 0,000 mm 0,0 UV-I 0 W/m² 5,8 °C 6,9 °C 0,0 km/h (0 Bft)
10.03.2018 19:14 6,9 °C 93 % 1006,6 hPa 0,0 mm 0,0 km/h (0 Bft) O 90 ° 0 min 0,000 mm 0,0 UV-I 0 W/m² 5,8 °C 6,9 °C 0,0 km/h (0 Bft)
10.03.2018 19:15 6,9 °C 93 % 1006,6 hPa 0,0 mm 0,0 km/h (0 Bft) O 90 ° 0 min 0,000 mm 0,0 UV-I 0 W/m² 5,8 °C 6,9 °C 0,0 km/h (0 Bft)
10.03.2018 19:16 6,9 °C 93 % 1006,6 hPa 0,0 mm 0,0 km/h (0 Bft) O 90 ° 0 min 0,000 mm 0,0 UV-I 0 W/m² 5,8 °C 6,9 °C 0,0 km/h (0 Bft)
10.03.2018 19:17 6,9 °C 93 % 1006,6 hPa 0,0 mm 0,0 km/h (0 Bft) O 90 ° 0 min 0,000 mm 0,0 UV-I 0 W/m² 5,8 °C 6,9 °C 0,0 km/h (0 Bft)
10.03.2018 19:18 6,9 °C 93 % 1006,6 hPa 0,0 mm 0,0 km/h (0 Bft) O 90 ° 0 min 0,000 mm 0,0 UV-I 0 W/m² 5,8 °C 6,9 °C 0,0 km/h (0 Bft)
10.03.2018 19:19 6,9 °C 93 % 1006,6 hPa 0,0 mm 0,0 km/h (0 Bft) O 90 ° 0 min 0,000 mm 0,0 UV-I 0 W/m² 5,8 °C 6,9 °C 0,0 km/h (0 Bft)
10.03.2018 19:20 7,0 °C 93 % 1006,6 hPa 0,0 mm 0,0 km/h (0 Bft) O 90 ° 0 min 0,000 mm 0,0 UV-I 0 W/m² 5,9 °C 7,0 °C 0,0 km/h (0 Bft)
10.03.2018 19:21 7,0 °C 93 % 1006,6 hPa 0,0 mm 0,0 km/h (0 Bft) O 90 ° 0 min 0,000 mm 0,0 UV-I 0 W/m² 5,9 °C 7,0 °C 0,0 km/h (0 Bft)
10.03.2018 19:22 6,9 °C 93 % 1006,6 hPa 0,0 mm 0,0 km/h (0 Bft) O 90 ° 0 min 0,000 mm 0,0 UV-I 0 W/m² 5,8 °C 6,9 °C 0,0 km/h (0 Bft)
10.03.2018 19:23 6,9 °C 93 % 1006,6 hPa 0,0 mm 0,0 km/h (0 Bft) O 90 ° 0 min 0,000 mm 0,0 UV-I 0 W/m² 5,8 °C 6,9 °C 0,0 km/h (0 Bft)
10.03.2018 19:24 6,9 °C 93 % 1006,7 hPa 0,0 mm 0,0 km/h (0 Bft) O 90 ° 0 min 0,000 mm 0,0 UV-I 0 W/m² 5,8 °C 6,9 °C 0,0 km/h (0 Bft)
10.03.2018 19:25 6,9 °C 93 % 1006,6 hPa 0,0 mm 0,0 km/h (0 Bft) O 90 ° 0 min 0,000 mm 0,0 UV-I 0 W/m² 5,8 °C 6,9 °C 0,0 km/h (0 Bft)
10.03.2018 19:26 6,9 °C 93 % 1006,6 hPa 0,0 mm 0,0 km/h (0 Bft) O 90 ° 0 min 0,000 mm 0,0 UV-I 0 W/m² 5,8 °C 6,9 °C 0,0 km/h (0 Bft)
10.03.2018 19:27 6,9 °C 93 % 1006,6 hPa 0,0 mm 0,0 km/h (0 Bft) O 90 ° 0 min 0,000 mm 0,0 UV-I 0 W/m² 5,8 °C 6,9 °C 0,0 km/h (0 Bft)
10.03.2018 19:28 6,9 °C 93 % 1006,6 hPa 0,0 mm 0,0 km/h (0 Bft) O 90 ° 0 min 0,000 mm 0,0 UV-I 0 W/m² 5,8 °C 6,9 °C 0,0 km/h (0 Bft)
10.03.2018 19:29 6,9 °C 93 % 1006,6 hPa 0,0 mm 0,0 km/h (0 Bft) O 90 ° 0 min 0,000 mm 0,0 UV-I 0 W/m² 5,8 °C 6,9 °C 0,0 km/h (0 Bft)
10.03.2018 19:30 6,9 °C 93 % 1006,6 hPa 0,0 mm 0,0 km/h (0 Bft) O 90 ° 0 min 0,000 mm 0,0 UV-I 0 W/m² 5,8 °C 6,9 °C 0,0 km/h (0 Bft)
10.03.2018 19:31 6,8 °C 93 % 1006,6 hPa 0,0 mm 0,0 km/h (0 Bft) O 90 ° 0 min 0,000 mm 0,0 UV-I 0 W/m² 5,7 °C 6,8 °C 0,0 km/h (0 Bft)
10.03.2018 19:32 6,8 °C 92 % 1006,6 hPa 0,0 mm 0,0 km/h (0 Bft) O 90 ° 0 min 0,000 mm 0,0 UV-I 0 W/m² 5,6 °C 6,8 °C 0,0 km/h (0 Bft)
10.03.2018 19:33 6,8 °C 93 % 1006,6 hPa 0,0 mm 0,0 km/h (0 Bft) O 90 ° 0 min 0,000 mm 0,0 UV-I 0 W/m² 5,7 °C 6,8 °C 0,0 km/h (0 Bft)
10.03.2018 19:34 6,7 °C 93 % 1006,5 hPa 0,0 mm 0,0 km/h (0 Bft) O 90 ° 0 min 0,000 mm 0,0 UV-I 0 W/m² 5,6 °C 6,7 °C 0,0 km/h (0 Bft)
10.03.2018 19:35 6,8 °C 93 % 1006,6 hPa 0,0 mm 0,0 km/h (0 Bft) O 90 ° 0 min 0,000 mm 0,0 UV-I 0 W/m² 5,7 °C 6,8 °C 0,0 km/h (0 Bft)
10.03.2018 19:36 6,8 °C 93 % 1006,6 hPa 0,0 mm 0,0 km/h (0 Bft) O 90 ° 0 min 0,000 mm 0,0 UV-I 0 W/m² 5,7 °C 6,8 °C 0,0 km/h (0 Bft)
10.03.2018 19:37 6,8 °C 93 % 1006,5 hPa 0,0 mm 0,0 km/h (0 Bft) O 90 ° 0 min 0,000 mm 0,0 UV-I 0 W/m² 5,7 °C 6,8 °C 0,0 km/h (0 Bft)
10.03.2018 19:38 6,8 °C 93 % 1006,6 hPa 0,0 mm 0,0 km/h (0 Bft) O 90 ° 0 min 0,000 mm 0,0 UV-I 0 W/m² 5,7 °C 6,8 °C 0,0 km/h (0 Bft)
10.03.2018 19:39 6,8 °C 93 % 1006,5 hPa 0,0 mm 0,0 km/h (0 Bft) O 90 ° 0 min 0,000 mm 0,0 UV-I 0 W/m² 5,7 °C 6,8 °C 0,0 km/h (0 Bft)
10.03.2018 19:40 6,7 °C 92 % 1006,5 hPa 0,0 mm 0,0 km/h (0 Bft) O 90 ° 0 min 0,000 mm 0,0 UV-I 0 W/m² 5,5 °C 6,7 °C 0,0 km/h (0 Bft)
10.03.2018 19:41 6,7 °C 93 % 1006,5 hPa 0,0 mm 0,0 km/h (0 Bft) O 90 ° 0 min 0,000 mm 0,0 UV-I 0 W/m² 5,6 °C 6,7 °C 0,0 km/h (0 Bft)
10.03.2018 19:42 6,7 °C 93 % 1006,5 hPa 0,0 mm 0,0 km/h (0 Bft) O 90 ° 0 min 0,000 mm 0,0 UV-I 0 W/m² 5,6 °C 6,7 °C 0,0 km/h (0 Bft)
10.03.2018 19:43 6,7 °C 93 % 1006,5 hPa 0,0 mm 0,0 km/h (0 Bft) O 90 ° 0 min 0,000 mm 0,0 UV-I 0 W/m² 5,6 °C 6,7 °C 0,0 km/h (0 Bft)
10.03.2018 19:44 6,7 °C 93 % 1006,5 hPa 0,0 mm 0,0 km/h (0 Bft) O 90 ° 0 min 0,000 mm 0,0 UV-I 0 W/m² 5,6 °C 6,7 °C 0,0 km/h (0 Bft)
10.03.2018 19:45 6,8 °C 93 % 1006,5 hPa 0,0 mm 0,0 km/h (0 Bft) O 90 ° 0 min 0,000 mm 0,0 UV-I 0 W/m² 5,7 °C 6,8 °C 0,0 km/h (0 Bft)
10.03.2018 19:46 6,7 °C 93 % 1006,5 hPa 0,0 mm 0,0 km/h (0 Bft) O 90 ° 0 min 0,000 mm 0,0 UV-I 0 W/m² 5,6 °C 6,7 °C 0,0 km/h (0 Bft)
10.03.2018 19:47 6,7 °C 92 % 1006,5 hPa 0,0 mm 0,0 km/h (0 Bft) O 90 ° 0 min 0,000 mm 0,0 UV-I 0 W/m² 5,5 °C 6,7 °C 0,0 km/h (0 Bft)
10.03.2018 19:48 6,6 °C 92 % 1006,5 hPa 0,0 mm 0,0 km/h (0 Bft) O 90 ° 0 min 0,000 mm 0,0 UV-I 0 W/m² 5,4 °C 6,6 °C 0,0 km/h (0 Bft)
10.03.2018 19:49 6,6 °C 92 % 1006,5 hPa 0,0 mm 0,0 km/h (0 Bft) O 90 ° 0 min 0,000 mm 0,0 UV-I 0 W/m² 5,4 °C 6,6 °C 0,0 km/h (0 Bft)
10.03.2018 19:50 6,6 °C 92 % 1006,5 hPa 0,0 mm 0,0 km/h (0 Bft) O 90 ° 0 min 0,000 mm 0,0 UV-I 0 W/m² 5,4 °C 6,6 °C 0,0 km/h (0 Bft)
10.03.2018 19:51 6,6 °C 92 % 1006,5 hPa 0,0 mm 0,0 km/h (0 Bft) O 90 ° 0 min 0,000 mm 0,0 UV-I 0 W/m² 5,4 °C 6,6 °C 0,0 km/h (0 Bft)
10.03.2018 19:52 6,5 °C 92 % 1006,4 hPa 0,0 mm 0,0 km/h (0 Bft) O 90 ° 0 min 0,000 mm 0,0 UV-I 0 W/m² 5,3 °C 6,5 °C 0,0 km/h (0 Bft)
10.03.2018 19:53 6,5 °C 92 % 1006,4 hPa 0,0 mm 0,0 km/h (0 Bft) O 90 ° 0 min 0,000 mm 0,0 UV-I 0 W/m² 5,3 °C 6,5 °C 0,0 km/h (0 Bft)
10.03.2018 19:54 6,5 °C 92 % 1006,5 hPa 0,0 mm 0,0 km/h (0 Bft) O 90 ° 0 min 0,000 mm 0,0 UV-I 0 W/m² 5,3 °C 6,5 °C 0,0 km/h (0 Bft)
10.03.2018 19:55 6,6 °C 92 % 1006,4 hPa 0,0 mm 0,0 km/h (0 Bft) O 90 ° 0 min 0,000 mm 0,0 UV-I 0 W/m² 5,4 °C 6,6 °C 0,0 km/h (0 Bft)
10.03.2018 19:56 6,5 °C 92 % 1006,5 hPa 0,0 mm 0,0 km/h (0 Bft) O 90 ° 0 min 0,000 mm 0,0 UV-I 0 W/m² 5,3 °C 6,5 °C 0,0 km/h (0 Bft)
10.03.2018 19:57 6,6 °C 92 % 1006,5 hPa 0,0 mm 0,0 km/h (0 Bft) O 90 ° 0 min 0,000 mm 0,0 UV-I 0 W/m² 5,4 °C 6,6 °C 0,0 km/h (0 Bft)
10.03.2018 19:58 6,6 °C 92 % 1006,5 hPa 0,0 mm 0,0 km/h (0 Bft) O 90 ° 0 min 0,000 mm 0,0 UV-I 0 W/m² 5,4 °C 6,6 °C 0,0 km/h (0 Bft)
10.03.2018 19:59 6,6 °C 92 % 1006,5 hPa 0,0 mm 0,0 km/h (0 Bft) O 90 ° 0 min 0,000 mm 0,0 UV-I 0 W/m² 5,4 °C 6,6 °C 0,0 km/h (0 Bft)
10.03.2018 20:00 6,5 °C 92 % 1006,5 hPa 0,0 mm 0,0 km/h (0 Bft) O 90 ° 0 min 0,000 mm 0,0 UV-I 0 W/m² 5,3 °C 6,5 °C 0,0 km/h (0 Bft)
10.03.2018 20:01 6,4 °C 92 % 1006,5 hPa 0,0 mm 0,0 km/h (0 Bft) O 90 ° 0 min 0,000 mm 0,0 UV-I 0 W/m² 5,2 °C 6,4 °C 0,0 km/h (0 Bft)
10.03.2018 20:02 6,3 °C 91 % 1006,4 hPa 0,0 mm 0,0 km/h (0 Bft) O 90 ° 0 min 0,000 mm 0,0 UV-I 0 W/m² 4,9 °C 6,3 °C 0,0 km/h (0 Bft)
10.03.2018 20:03 6,2 °C 92 % 1006,4 hPa 0,0 mm 0,0 km/h (0 Bft) O 90 ° 0 min 0,000 mm 0,0 UV-I 0 W/m² 5,0 °C 6,2 °C 0,0 km/h (0 Bft)
10.03.2018 20:04 6,2 °C 92 % 1006,4 hPa 0,0 mm 0,0 km/h (0 Bft) O 90 ° 0 min 0,000 mm 0,0 UV-I 0 W/m² 5,0 °C 6,2 °C 0,0 km/h (0 Bft)
10.03.2018 20:05 6,1 °C 92 % 1006,4 hPa 0,0 mm 0,0 km/h (0 Bft) O 90 ° 0 min 0,000 mm 0,0 UV-I 0 W/m² 4,9 °C 6,1 °C 0,0 km/h (0 Bft)
10.03.2018 20:06 6,1 °C 92 % 1006,4 hPa 0,0 mm 0,0 km/h (0 Bft) O 90 ° 0 min 0,000 mm 0,0 UV-I 0 W/m² 4,9 °C 6,1 °C 0,0 km/h (0 Bft)
10.03.2018 20:07 6,1 °C 92 % 1006,4 hPa 0,0 mm 0,0 km/h (0 Bft) O 90 ° 0 min 0,000 mm 0,0 UV-I 0 W/m² 4,9 °C 6,1 °C 0,0 km/h (0 Bft)
10.03.2018 20:08 6,1 °C 93 % 1006,4 hPa 0,0 mm 0,0 km/h (0 Bft) O 90 ° 0 min 0,000 mm 0,0 UV-I 0 W/m² 5,1 °C 6,1 °C 0,0 km/h (0 Bft)
10.03.2018 20:09 6,1 °C 93 % 1006,5 hPa 0,0 mm 0,0 km/h (0 Bft) O 90 ° 0 min 0,000 mm 0,0 UV-I 0 W/m² 5,1 °C 6,1 °C 0,0 km/h (0 Bft)
10.03.2018 20:10 6,1 °C 93 % 1006,4 hPa 0,0 mm 0,0 km/h (0 Bft) O 90 ° 0 min 0,000 mm 0,0 UV-I 0 W/m² 5,1 °C 6,1 °C 0,0 km/h (0 Bft)
10.03.2018 20:11 6,1 °C 93 % 1006,5 hPa 0,0 mm 0,0 km/h (0 Bft) O 90 ° 0 min 0,000 mm 0,0 UV-I 0 W/m² 5,1 °C 6,1 °C 0,0 km/h (0 Bft)
10.03.2018 20:12 6,1 °C 93 % 1006,5 hPa 0,0 mm 0,0 km/h (0 Bft) O 90 ° 0 min 0,000 mm 0,0 UV-I 0 W/m² 5,1 °C 6,1 °C 0,0 km/h (0 Bft)
10.03.2018 20:13 6,1 °C 93 % 1006,4 hPa 0,0 mm 0,0 km/h (0 Bft) O 90 ° 0 min 0,000 mm 0,0 UV-I 0 W/m² 5,1 °C 6,1 °C 0,0 km/h (0 Bft)
10.03.2018 20:14 6,1 °C 93 % 1006,4 hPa 0,0 mm 0,0 km/h (0 Bft) O 90 ° 0 min 0,000 mm 0,0 UV-I 0 W/m² 5,1 °C 6,1 °C 0,0 km/h (0 Bft)
10.03.2018 20:15 6,1 °C 93 % 1006,5 hPa 0,0 mm 0,0 km/h (0 Bft) O 90 ° 0 min 0,000 mm 0,0 UV-I 0 W/m² 5,1 °C 6,1 °C 0,0 km/h (0 Bft)
10.03.2018 20:16 6,0 °C 93 % 1006,4 hPa 0,0 mm 0,0 km/h (0 Bft) O 90 ° 0 min 0,000 mm 0,0 UV-I 0 W/m² 5,0 °C 6,0 °C 0,0 km/h (0 Bft)
10.03.2018 20:17 5,9 °C 93 % 1006,4 hPa 0,0 mm 0,0 km/h (0 Bft) O 90 ° 0 min 0,000 mm 0,0 UV-I 0 W/m² 4,9 °C 5,9 °C 0,0 km/h (0 Bft)
10.03.2018 20:18 5,9 °C 93 % 1006,3 hPa 0,0 mm 0,0 km/h (0 Bft) O 90 ° 0 min 0,000 mm 0,0 UV-I 0 W/m² 4,9 °C 5,9 °C 0,0 km/h (0 Bft)
10.03.2018 20:19 5,9 °C 93 % 1006,3 hPa 0,0 mm 0,0 km/h (0 Bft) O 90 ° 0 min 0,000 mm 0,0 UV-I 0 W/m² 4,9 °C 5,9 °C 0,0 km/h (0 Bft)
10.03.2018 20:20 5,9 °C 93 % 1006,3 hPa 0,0 mm 0,0 km/h (0 Bft) O 90 ° 0 min 0,000 mm 0,0 UV-I 0 W/m² 4,9 °C 5,9 °C 0,0 km/h (0 Bft)
10.03.2018 20:21 5,9 °C 93 % 1006,3 hPa 0,0 mm 0,0 km/h (0 Bft) O 90 ° 0 min 0,000 mm 0,0 UV-I 0 W/m² 4,9 °C 5,9 °C 0,0 km/h (0 Bft)
10.03.2018 20:22 5,9 °C 93 % 1006,4 hPa 0,0 mm 0,0 km/h (0 Bft) O 90 ° 0 min 0,000 mm 0,0 UV-I 0 W/m² 4,9 °C 5,9 °C 0,0 km/h (0 Bft)
10.03.2018 20:23 5,9 °C 93 % 1006,3 hPa 0,0 mm 0,0 km/h (0 Bft) O 90 ° 0 min 0,000 mm 0,0 UV-I 0 W/m² 4,9 °C 5,9 °C 0,0 km/h (0 Bft)
10.03.2018 20:24 5,9 °C 93 % 1006,3 hPa 0,0 mm 0,0 km/h (0 Bft) O 90 ° 0 min 0,000 mm 0,0 UV-I 0 W/m² 4,9 °C 5,9 °C 0,0 km/h (0 Bft)
10.03.2018 20:25 5,9 °C 93 % 1006,3 hPa 0,0 mm 0,0 km/h (0 Bft) O 90 ° 0 min 0,000 mm 0,0 UV-I 0 W/m² 4,9 °C 5,9 °C 0,0 km/h (0 Bft)
10.03.2018 20:26 5,9 °C 93 % 1006,3 hPa 0,0 mm 0,0 km/h (0 Bft) O 90 ° 0 min 0,000 mm 0,0 UV-I 0 W/m² 4,9 °C 5,9 °C 0,0 km/h (0 Bft)
10.03.2018 20:27 5,9 °C 93 % 1006,3 hPa 0,0 mm 0,0 km/h (0 Bft) O 90 ° 0 min 0,000 mm 0,0 UV-I 0 W/m² 4,9 °C 5,9 °C 0,0 km/h (0 Bft)
10.03.2018 20:28 5,9 °C 93 % 1006,2 hPa 0,0 mm 0,0 km/h (0 Bft) O 90 ° 0 min 0,000 mm 0,0 UV-I 0 W/m² 4,9 °C 5,9 °C 0,0 km/h (0 Bft)
10.03.2018 20:29 6,0 °C 93 % 1006,1 hPa 0,0 mm 0,1 km/h (0 Bft) O 90 ° 0 min 0,000 mm 0,0 UV-I 0 W/m² 5,0 °C 6,0 °C 1,6 km/h (1 Bft)
10.03.2018 20:30 5,9 °C 93 % 1006,1 hPa 0,0 mm 0,3 km/h (0 Bft) O 90 ° 0 min 0,000 mm 0,0 UV-I 0 W/m² 4,9 °C 5,9 °C 1,6 km/h (1 Bft)
10.03.2018 20:31 5,8 °C 92 % 1006,1 hPa 0,0 mm 0,0 km/h (0 Bft) O 90 ° 0 min 0,000 mm 0,0 UV-I 0 W/m² 4,6 °C 5,8 °C 0,0 km/h (0 Bft)
10.03.2018 20:32 5,8 °C 92 % 1006,1 hPa 0,0 mm 0,0 km/h (0 Bft) O 90 ° 0 min 0,000 mm 0,0 UV-I 0 W/m² 4,6 °C 5,8 °C 0,0 km/h (0 Bft)
10.03.2018 20:33 5,8 °C 93 % 1006,2 hPa 0,0 mm 0,0 km/h (0 Bft) O 90 ° 0 min 0,000 mm 0,0 UV-I 0 W/m² 4,8 °C 5,8 °C 0,0 km/h (0 Bft)
10.03.2018 20:34 5,8 °C 93 % 1006,2 hPa 0,0 mm 0,9 km/h (0 Bft) O 89 ° 0 min 0,000 mm 0,0 UV-I 0 W/m² 4,8 °C 5,8 °C 3,2 km/h (1 Bft)
10.03.2018 20:35 5,8 °C 93 % 1006,2 hPa 0,0 mm 0,6 km/h (0 Bft) O 89 ° 0 min 0,000 mm 0,0 UV-I 0 W/m² 4,8 °C 5,8 °C 3,2 km/h (1 Bft)
10.03.2018 20:36 5,9 °C 93 % 1006,3 hPa 0,0 mm 0,3 km/h (0 Bft) O 89 ° 0 min 0,000 mm 0,0 UV-I 0 W/m² 4,9 °C 5,9 °C 1,6 km/h (1 Bft)
10.03.2018 20:37 5,9 °C 93 % 1006,2 hPa 0,0 mm 0,1 km/h (0 Bft) O 89 ° 0 min 0,000 mm 0,0 UV-I 0 W/m² 4,9 °C 5,9 °C 1,6 km/h (1 Bft)
10.03.2018 20:38 5,9 °C 92 % 1006,3 hPa 0,0 mm 0,0 km/h (0 Bft) O 89 ° 0 min 0,000 mm 0,0 UV-I 0 W/m² 4,7 °C 5,9 °C 0,0 km/h (0 Bft)
10.03.2018 20:39 5,9 °C 92 % 1006,2 hPa 0,0 mm 0,0 km/h (0 Bft) O 89 ° 0 min 0,000 mm 0,0 UV-I 0 W/m² 4,7 °C 5,9 °C 0,0 km/h (0 Bft)
10.03.2018 20:40 5,9 °C 92 % 1006,3 hPa 0,0 mm 0,0 km/h (0 Bft) O 89 ° 0 min 0,000 mm 0,0 UV-I 0 W/m² 4,7 °C 5,9 °C 0,0 km/h (0 Bft)
10.03.2018 20:41 5,9 °C 92 % 1006,2 hPa 0,0 mm 0,0 km/h (0 Bft) O 89 ° 0 min 0,000 mm 0,0 UV-I 0 W/m² 4,7 °C 5,9 °C 0,0 km/h (0 Bft)
10.03.2018 20:42 5,9 °C 92 % 1006,2 hPa 0,0 mm 0,0 km/h (0 Bft) O 89 ° 0 min 0,000 mm 0,0 UV-I 0 W/m² 4,7 °C 5,9 °C 0,0 km/h (0 Bft)
10.03.2018 20:43 5,9 °C 91 % 1006,2 hPa 0,0 mm 0,0 km/h (0 Bft) O 89 ° 0 min 0,000 mm 0,0 UV-I 0 W/m² 4,5 °C 5,9 °C 0,0 km/h (0 Bft)
10.03.2018 20:44 5,9 °C 92 % 1006,2 hPa 0,0 mm 0,0 km/h (0 Bft) O 89 ° 0 min 0,000 mm 0,0 UV-I 0 W/m² 4,7 °C 5,9 °C 0,0 km/h (0 Bft)
10.03.2018 20:45 5,9 °C 91 % 1006,2 hPa 0,0 mm 0,0 km/h (0 Bft) O 89 ° 0 min 0,000 mm 0,0 UV-I 0 W/m² 4,5 °C 5,9 °C 0,0 km/h (0 Bft)
10.03.2018 20:46 5,9 °C 91 % 1006,2 hPa 0,0 mm 0,0 km/h (0 Bft) O 89 ° 0 min 0,000 mm 0,0 UV-I 0 W/m² 4,5 °C 5,9 °C 0,0 km/h (0 Bft)
10.03.2018 20:47 5,9 °C 91 % 1006,2 hPa 0,0 mm 0,0 km/h (0 Bft) O 89 ° 0 min 0,000 mm 0,0 UV-I 0 W/m² 4,5 °C 5,9 °C 0,0 km/h (0 Bft)
10.03.2018 20:48 6,0 °C 91 % 1006,2 hPa 0,0 mm 0,0 km/h (0 Bft) O 89 ° 0 min 0,000 mm 0,0 UV-I 0 W/m² 4,6 °C 6,0 °C 0,0 km/h (0 Bft)
10.03.2018 20:49 6,1 °C 91 % 1006,2 hPa 0,0 mm 0,0 km/h (0 Bft) O 89 ° 0 min 0,000 mm 0,0 UV-I 0 W/m² 4,7 °C 6,1 °C 0,0 km/h (0 Bft)
10.03.2018 20:50 6,1 °C 91 % 1006,2 hPa 0,0 mm 0,0 km/h (0 Bft) O 89 ° 0 min 0,000 mm 0,0 UV-I 0 W/m² 4,7 °C 6,1 °C 0,0 km/h (0 Bft)
10.03.2018 20:51 6,1 °C 91 % 1006,2 hPa 0,0 mm 0,0 km/h (0 Bft) O 89 ° 0 min 0,000 mm 0,0 UV-I 0 W/m² 4,7 °C 6,1 °C 0,0 km/h (0 Bft)
10.03.2018 20:52 6,0 °C 91 % 1006,2 hPa 0,0 mm 0,0 km/h (0 Bft) O 89 ° 0 min 0,000 mm 0,0 UV-I 0 W/m² 4,6 °C 6,0 °C 0,0 km/h (0 Bft)
10.03.2018 20:53 5,9 °C 91 % 1006,2 hPa 0,0 mm 0,0 km/h (0 Bft) O 89 ° 0 min 0,000 mm 0,0 UV-I 0 W/m² 4,5 °C 5,9 °C 0,0 km/h (0 Bft)
10.03.2018 20:54 6,0 °C 91 % 1006,2 hPa 0,0 mm 0,0 km/h (0 Bft) O 89 ° 0 min 0,000 mm 0,0 UV-I 0 W/m² 4,6 °C 6,0 °C 0,0 km/h (0 Bft)
10.03.2018 20:55 5,9 °C 91 % 1006,2 hPa 0,0 mm 0,0 km/h (0 Bft) O 89 ° 0 min 0,000 mm 0,0 UV-I 0 W/m² 4,5 °C 5,9 °C 0,0 km/h (0 Bft)
10.03.2018 20:56 5,9 °C 91 % 1006,2 hPa 0,0 mm 0,0 km/h (0 Bft) O 89 ° 0 min 0,000 mm 0,0 UV-I 0 W/m² 4,5 °C 5,9 °C 0,0 km/h (0 Bft)
10.03.2018 20:57 5,9 °C 91 % 1006,1 hPa 0,0 mm 0,0 km/h (0 Bft) O 89 ° 0 min 0,000 mm 0,0 UV-I 0 W/m² 4,5 °C 5,9 °C 0,0 km/h (0 Bft)
10.03.2018 20:58 5,9 °C 91 % 1006,1 hPa 0,0 mm 0,0 km/h (0 Bft) O 89 ° 0 min 0,000 mm 0,0 UV-I 0 W/m² 4,5 °C 5,9 °C 0,0 km/h (0 Bft)
10.03.2018 20:59 5,9 °C 91 % 1006,2 hPa 0,0 mm 0,0 km/h (0 Bft) O 89 ° 0 min 0,000 mm 0,0 UV-I 0 W/m² 4,5 °C 5,9 °C 0,0 km/h (0 Bft)
10.03.2018 21:00 6,0 °C 91 % 1006,2 hPa 0,0 mm 0,0 km/h (0 Bft) O 89 ° 0 min 0,000 mm 0,0 UV-I 0 W/m² 4,6 °C 6,0 °C 0,0 km/h (0 Bft)
10.03.2018 21:01 5,9 °C 91 % 1006,2 hPa 0,0 mm 0,0 km/h (0 Bft) O 89 ° 0 min 0,000 mm 0,0 UV-I 0 W/m² 4,5 °C 5,9 °C 0,0 km/h (0 Bft)
10.03.2018 21:02 5,9 °C 91 % 1006,2 hPa 0,0 mm 0,0 km/h (0 Bft) O 89 ° 0 min 0,000 mm 0,0 UV-I 0 W/m² 4,5 °C 5,9 °C 0,0 km/h (0 Bft)
10.03.2018 21:03 5,9 °C 91 % 1006,3 hPa 0,0 mm 0,0 km/h (0 Bft) O 89 ° 0 min 0,000 mm 0,0 UV-I 0 W/m² 4,5 °C 5,9 °C 0,0 km/h (0 Bft)
10.03.2018 21:04 6,0 °C 90 % 1006,2 hPa 0,0 mm 0,0 km/h (0 Bft) O 89 ° 0 min 0,000 mm 0,0 UV-I 0 W/m² 4,5 °C 6,0 °C 0,0 km/h (0 Bft)
10.03.2018 21:05 6,0 °C 90 % 1006,2 hPa 0,0 mm 0,0 km/h (0 Bft) O 89 ° 0 min 0,000 mm 0,0 UV-I 0 W/m² 4,5 °C 6,0 °C 0,0 km/h (0 Bft)
10.03.2018 21:06 6,1 °C 90 % 1006,2 hPa 0,0 mm 0,0 km/h (0 Bft) O 89 ° 0 min 0,000 mm 0,0 UV-I 0 W/m² 4,6 °C 6,1 °C 0,0 km/h (0 Bft)
10.03.2018 21:07 6,1 °C 90 % 1006,2 hPa 0,0 mm 0,0 km/h (0 Bft) O 89 ° 0 min 0,000 mm 0,0 UV-I 0 W/m² 4,6 °C 6,1 °C 0,0 km/h (0 Bft)
10.03.2018 21:08 6,2 °C 90 % 1006,2 hPa 0,0 mm 0,0 km/h (0 Bft) O 89 ° 0 min 0,000 mm 0,0 UV-I 0 W/m² 4,7 °C 6,2 °C 0,0 km/h (0 Bft)
10.03.2018 21:09 6,2 °C 90 % 1006,2 hPa 0,0 mm 0,0 km/h (0 Bft) O 89 ° 0 min 0,000 mm 0,0 UV-I 0 W/m² 4,7 °C 6,2 °C 0,0 km/h (0 Bft)
10.03.2018 21:10 6,2 °C 90 % 1006,2 hPa 0,0 mm 0,0 km/h (0 Bft) O 89 ° 0 min 0,000 mm 0,0 UV-I 0 W/m² 4,7 °C 6,2 °C 0,0 km/h (0 Bft)
10.03.2018 21:11 6,2 °C 90 % 1006,2 hPa 0,0 mm 0,0 km/h (0 Bft) O 89 ° 0 min 0,000 mm 0,0 UV-I 0 W/m² 4,7 °C 6,2 °C 0,0 km/h (0 Bft)
10.03.2018 21:12 6,2 °C 90 % 1006,2 hPa 0,0 mm 0,0 km/h (0 Bft) O 89 ° 0 min 0,000 mm 0,0 UV-I 0 W/m² 4,7 °C 6,2 °C 0,0 km/h (0 Bft)
10.03.2018 21:13 6,2 °C 89 % 1006,2 hPa 0,0 mm 0,0 km/h (0 Bft) O 89 ° 0 min 0,000 mm 0,0 UV-I 0 W/m² 4,5 °C 6,2 °C 0,0 km/h (0 Bft)
10.03.2018 21:14 6,2 °C 90 % 1006,2 hPa 0,0 mm 0,0 km/h (0 Bft) O 89 ° 0 min 0,000 mm 0,0 UV-I 0 W/m² 4,7 °C 6,2 °C 0,0 km/h (0 Bft)
10.03.2018 21:15 6,2 °C 90 % 1006,2 hPa 0,0 mm 0,0 km/h (0 Bft) O 89 ° 0 min 0,000 mm 0,0 UV-I 0 W/m² 4,7 °C 6,2 °C 0,0 km/h (0 Bft)
10.03.2018 21:16 6,2 °C 90 % 1006,2 hPa 0,0 mm 0,0 km/h (0 Bft) O 89 ° 0 min 0,000 mm 0,0 UV-I 0 W/m² 4,7 °C 6,2 °C 0,0 km/h (0 Bft)
10.03.2018 21:17 6,2 °C 90 % 1006,2 hPa 0,0 mm 0,0 km/h (0 Bft) O 89 ° 0 min 0,000 mm 0,0 UV-I 0 W/m² 4,7 °C 6,2 °C 0,0 km/h (0 Bft)
10.03.2018 21:18 6,1 °C 90 % 1006,2 hPa 0,0 mm 0,0 km/h (0 Bft) O 89 ° 0 min 0,000 mm 0,0 UV-I 0 W/m² 4,6 °C 6,1 °C 0,0 km/h (0 Bft)
10.03.2018 21:19 6,2 °C 90 % 1006,1 hPa 0,0 mm 0,0 km/h (0 Bft) O 89 ° 0 min 0,000 mm 0,0 UV-I 0 W/m² 4,7 °C 6,2 °C 0,0 km/h (0 Bft)
10.03.2018 21:20 6,2 °C 90 % 1006,1 hPa 0,0 mm 0,0 km/h (0 Bft) O 89 ° 0 min 0,000 mm 0,0 UV-I 0 W/m² 4,7 °C 6,2 °C 0,0 km/h (0 Bft)
10.03.2018 21:21 6,2 °C 90 % 1006,2 hPa 0,0 mm 0,0 km/h (0 Bft) O 89 ° 0 min 0,000 mm 0,0 UV-I 0 W/m² 4,7 °C 6,2 °C 0,0 km/h (0 Bft)
10.03.2018 21:22 6,2 °C 90 % 1006,2 hPa 0,0 mm 0,0 km/h (0 Bft) O 89 ° 0 min 0,000 mm 0,0 UV-I 0 W/m² 4,7 °C 6,2 °C 0,0 km/h (0 Bft)
10.03.2018 21:23 6,1 °C 90 % 1006,2 hPa 0,0 mm 0,0 km/h (0 Bft) O 89 ° 0 min 0,000 mm 0,0 UV-I 0 W/m² 4,6 °C 6,1 °C 0,0 km/h (0 Bft)
10.03.2018 21:24 6,1 °C 90 % 1006,2 hPa 0,0 mm 0,0 km/h (0 Bft) O 89 ° 0 min 0,000 mm 0,0 UV-I 0 W/m² 4,6 °C 6,1 °C 0,0 km/h (0 Bft)
10.03.2018 21:25 6,0 °C 90 % 1006,2 hPa 0,0 mm 1,1 km/h (1 Bft) O-NO 76 ° 0 min 0,000 mm 0,0 UV-I 0 W/m² 4,5 °C 6,0 °C 4,8 km/h (1 Bft)
10.03.2018 21:26 5,9 °C 90 % 1006,2 hPa 0,0 mm 0,0 km/h (0 Bft) O-NO 76 ° 0 min 0,000 mm 0,0 UV-I 0 W/m² 4,4 °C 5,9 °C 0,0 km/h (0 Bft)
10.03.2018 21:27 5,8 °C 90 % 1006,2 hPa 0,0 mm 1,2 km/h (1 Bft) O-NO 76 ° 0 min 0,000 mm 0,0 UV-I 0 W/m² 4,3 °C 5,8 °C 3,2 km/h (1 Bft)
10.03.2018 21:28 5,8 °C 90 % 1006,1 hPa 0,0 mm 1,1 km/h (1 Bft) O 99 ° 0 min 0,000 mm 0,0 UV-I 0 W/m² 4,3 °C 5,8 °C 4,8 km/h (1 Bft)
10.03.2018 21:29 5,8 °C 90 % 1006,1 hPa 0,0 mm 2,8 km/h (1 Bft) O-SO 113 ° 0 min 0,000 mm 0,0 UV-I 0 W/m² 4,3 °C 5,8 °C 4,8 km/h (1 Bft)
10.03.2018 21:30 5,8 °C 90 % 1006,1 hPa 0,0 mm 0,2 km/h (0 Bft) O-SO 113 ° 0 min 0,000 mm 0,0 UV-I 0 W/m² 4,3 °C 5,8 °C 1,6 km/h (1 Bft)
10.03.2018 21:31 5,8 °C 90 % 1006,0 hPa 0,0 mm 0,0 km/h (0 Bft) O-SO 113 ° 0 min 0,000 mm 0,0 UV-I 0 W/m² 4,3 °C 5,8 °C 0,0 km/h (0 Bft)
10.03.2018 21:32 5,8 °C 90 % 1006,0 hPa 0,0 mm 0,0 km/h (0 Bft) O-SO 113 ° 0 min 0,000 mm 0,0 UV-I 0 W/m² 4,3 °C 5,8 °C 0,0 km/h (0 Bft)
10.03.2018 21:33 5,8 °C 90 % 1006,0 hPa 0,0 mm 0,0 km/h (0 Bft) O-SO 113 ° 0 min 0,000 mm 0,0 UV-I 0 W/m² 4,3 °C 5,8 °C 0,0 km/h (0 Bft)
10.03.2018 21:34 5,8 °C 90 % 1006,0 hPa 0,0 mm 0,0 km/h (0 Bft) O-SO 113 ° 0 min 0,000 mm 0,0 UV-I 0 W/m² 4,3 °C 5,8 °C 0,0 km/h (0 Bft)
10.03.2018 21:35 5,7 °C 90 % 1006,0 hPa 0,0 mm 0,0 km/h (0 Bft) O-SO 113 ° 0 min 0,000 mm 0,0 UV-I 0 W/m² 4,2 °C 5,7 °C 0,0 km/h (0 Bft)
10.03.2018 21:36 5,8 °C 90 % 1006,0 hPa 0,0 mm 0,0 km/h (0 Bft) O-SO 113 ° 0 min 0,000 mm 0,0 UV-I 0 W/m² 4,3 °C 5,8 °C 0,0 km/h (0 Bft)
10.03.2018 21:37 5,7 °C 89 % 1006,0 hPa 0,0 mm 0,0 km/h (0 Bft) O-SO 113 ° 0 min 0,000 mm 0,0 UV-I 0 W/m² 4,0 °C 5,7 °C 0,0 km/h (0 Bft)
10.03.2018 21:38 5,6 °C 89 % 1006,0 hPa 0,0 mm 0,0 km/h (0 Bft) O-SO 113 ° 0 min 0,000 mm 0,0 UV-I 0 W/m² 3,9 °C 5,6 °C 0,0 km/h (0 Bft)
10.03.2018 21:39 5,6 °C 89 % 1006,0 hPa 0,0 mm 0,0 km/h (0 Bft) O-SO 113 ° 0 min 0,000 mm 0,0 UV-I 0 W/m² 3,9 °C 5,6 °C 0,0 km/h (0 Bft)
10.03.2018 21:40 5,4 °C 89 % 1006,0 hPa 0,0 mm 0,0 km/h (0 Bft) O-SO 113 ° 0 min 0,000 mm 0,0 UV-I 0 W/m² 3,7 °C 5,4 °C 0,0 km/h (0 Bft)
10.03.2018 21:41 5,3 °C 90 % 1006,1 hPa 0,0 mm 0,0 km/h (0 Bft) O-SO 113 ° 0 min 0,000 mm 0,0 UV-I 0 W/m² 3,8 °C 5,3 °C 0,0 km/h (0 Bft)
10.03.2018 21:42 5,3 °C 90 % 1006,0 hPa 0,0 mm 0,0 km/h (0 Bft) O-SO 113 ° 0 min 0,000 mm 0,0 UV-I 0 W/m² 3,8 °C 5,3 °C 0,0 km/h (0 Bft)
10.03.2018 21:43 5,2 °C 90 % 1006,0 hPa 0,0 mm 0,0 km/h (0 Bft) O-SO 113 ° 0 min 0,000 mm 0,0 UV-I 0 W/m² 3,7 °C 5,2 °C 0,0 km/h (0 Bft)
10.03.2018 21:44 5,2 °C 90 % 1006,0 hPa 0,0 mm 0,0 km/h (0 Bft) O-SO 113 ° 0 min 0,000 mm 0,0 UV-I 0 W/m² 3,7 °C 5,2 °C 0,0 km/h (0 Bft)
10.03.2018 21:45 5,1 °C 90 % 1006,0 hPa 0,0 mm 0,0 km/h (0 Bft) O-SO 113 ° 0 min 0,000 mm 0,0 UV-I 0 W/m² 3,6 °C 5,1 °C 0,0 km/h (0 Bft)
10.03.2018 21:46 5,1 °C 91 % 1006,0 hPa 0,0 mm 0,0 km/h (0 Bft) O-SO 113 ° 0 min 0,000 mm 0,0 UV-I 0 W/m² 3,8 °C 5,1 °C 0,0 km/h (0 Bft)
10.03.2018 21:47 5,1 °C 91 % 1006,0 hPa 0,0 mm 0,0 km/h (0 Bft) O-SO 113 ° 0 min 0,000 mm 0,0 UV-I 0 W/m² 3,8 °C 5,1 °C 0,0 km/h (0 Bft)
10.03.2018 21:48 5,1 °C 91 % 1006,0 hPa 0,0 mm 0,0 km/h (0 Bft) O-SO 113 ° 0 min 0,000 mm 0,0 UV-I 0 W/m² 3,8 °C 5,1 °C 0,0 km/h (0 Bft)
10.03.2018 21:49 5,1 °C 91 % 1006,0 hPa 0,0 mm 0,0 km/h (0 Bft) O-SO 113 ° 0 min 0,000 mm 0,0 UV-I 0 W/m² 3,8 °C 5,1 °C 0,0 km/h (0 Bft)
10.03.2018 21:50 5,1 °C 91 % 1006,0 hPa 0,0 mm 0,0 km/h (0 Bft) O-SO 113 ° 0 min 0,000 mm 0,0 UV-I 0 W/m² 3,8 °C 5,1 °C 0,0 km/h (0 Bft)
10.03.2018 21:51 5,1 °C 91 % 1006,0 hPa 0,0 mm 0,0 km/h (0 Bft) O-SO 113 ° 0 min 0,000 mm 0,0 UV-I 0 W/m² 3,8 °C 5,1 °C 0,0 km/h (0 Bft)
10.03.2018 21:52 5,2 °C 91 % 1006,0 hPa 0,0 mm 0,0 km/h (0 Bft) O-SO 113 ° 0 min 0,000 mm 0,0 UV-I 0 W/m² 3,9 °C 5,2 °C 0,0 km/h (0 Bft)
10.03.2018 21:53 5,2 °C 91 % 1006,0 hPa 0,0 mm 0,0 km/h (0 Bft) O-SO 113 ° 0 min 0,000 mm 0,0 UV-I 0 W/m² 3,9 °C 5,2 °C 0,0 km/h (0 Bft)
10.03.2018 21:54 5,2 °C 91 % 1006,0 hPa 0,0 mm 0,0 km/h (0 Bft) O-SO 113 ° 0 min 0,000 mm 0,0 UV-I 0 W/m² 3,9 °C 5,2 °C 0,0 km/h (0 Bft)
10.03.2018 21:55 5,2 °C 91 % 1006,0 hPa 0,0 mm 0,0 km/h (0 Bft) O-SO 113 ° 0 min 0,000 mm 0,0 UV-I 0 W/m² 3,9 °C 5,2 °C 0,0 km/h (0 Bft)
10.03.2018 21:56 5,2 °C 91 % 1006,0 hPa 0,0 mm 0,0 km/h (0 Bft) O-SO 113 ° 0 min 0,000 mm 0,0 UV-I 0 W/m² 3,9 °C 5,2 °C 0,0 km/h (0 Bft)
10.03.2018 21:57 5,2 °C 91 % 1006,0 hPa 0,0 mm 0,0 km/h (0 Bft) O-SO 113 ° 0 min 0,000 mm 0,0 UV-I 0 W/m² 3,9 °C 5,2 °C 0,0 km/h (0 Bft)
10.03.2018 21:58 5,2 °C 91 % 1006,0 hPa 0,0 mm 0,9 km/h (0 Bft) W-SW 245 ° 0 min 0,000 mm 0,0 UV-I 0 W/m² 3,9 °C 5,2 °C 3,2 km/h (1 Bft)
10.03.2018 21:59 5,2 °C 91 % 1006,0 hPa 0,0 mm 1,0 km/h (0 Bft) SW 219 ° 0 min 0,000 mm 0,0 UV-I 0 W/m² 3,9 °C 5,2 °C 3,2 km/h (1 Bft)
10.03.2018 22:00 5,3 °C 91 % 1006,0 hPa 0,0 mm 0,0 km/h (0 Bft) SW 219 ° 0 min 0,000 mm 0,0 UV-I 0 W/m² 4,0 °C 5,3 °C 0,0 km/h (0 Bft)
10.03.2018 22:01 5,3 °C 91 % 1006,0 hPa 0,0 mm 0,0 km/h (0 Bft) SW 219 ° 0 min 0,000 mm 0,0 UV-I 0 W/m² 4,0 °C 5,3 °C 0,0 km/h (0 Bft)
10.03.2018 22:02 5,4 °C 91 % 1006,0 hPa 0,0 mm 0,0 km/h (0 Bft) SW 219 ° 0 min 0,000 mm 0,0 UV-I 0 W/m² 4,1 °C 5,4 °C 0,0 km/h (0 Bft)
10.03.2018 22:03 5,4 °C 91 % 1006,0 hPa 0,0 mm 0,0 km/h (0 Bft) SW 219 ° 0 min 0,000 mm 0,0 UV-I 0 W/m² 4,1 °C 5,4 °C 0,0 km/h (0 Bft)
10.03.2018 22:04 5,4 °C 91 % 1006,0 hPa 0,0 mm 0,0 km/h (0 Bft) SW 219 ° 0 min 0,000 mm 0,0 UV-I 0 W/m² 4,1 °C 5,4 °C 0,0 km/h (0 Bft)
10.03.2018 22:05 5,5 °C 91 % 1006,0 hPa 0,0 mm 0,0 km/h (0 Bft) SW 219 ° 0 min 0,000 mm 0,0 UV-I 0 W/m² 4,2 °C 5,5 °C 0,0 km/h (0 Bft)
10.03.2018 22:06 5,6 °C 91 % 1006,0 hPa 0,0 mm 0,0 km/h (0 Bft) SW 219 ° 0 min 0,000 mm 0,0 UV-I 0 W/m² 4,2 °C 5,6 °C 0,0 km/h (0 Bft)
10.03.2018 22:07 5,7 °C 90 % 1006,0 hPa 0,0 mm 0,0 km/h (0 Bft) SW 219 ° 0 min 0,000 mm 0,0 UV-I 0 W/m² 4,2 °C 5,7 °C 0,0 km/h (0 Bft)
10.03.2018 22:08 5,7 °C 90 % 1006,0 hPa 0,0 mm 0,0 km/h (0 Bft) SW 219 ° 0 min 0,000 mm 0,0 UV-I 0 W/m² 4,2 °C 5,7 °C 0,0 km/h (0 Bft)
10.03.2018 22:09 5,8 °C 90 % 1006,0 hPa 0,0 mm 0,0 km/h (0 Bft) SW 219 ° 0 min 0,000 mm 0,0 UV-I 0 W/m² 4,3 °C 5,8 °C 0,0 km/h (0 Bft)
10.03.2018 22:10 5,8 °C 90 % 1006,0 hPa 0,0 mm 0,0 km/h (0 Bft) SW 219 ° 0 min 0,000 mm 0,0 UV-I 0 W/m² 4,3 °C 5,8 °C 0,0 km/h (0 Bft)
10.03.2018 22:11 5,9 °C 89 % 1006,0 hPa 0,0 mm 0,0 km/h (0 Bft) SW 219 ° 0 min 0,000 mm 0,0 UV-I 0 W/m² 4,2 °C 5,9 °C 0,0 km/h (0 Bft)
10.03.2018 22:12 5,9 °C 89 % 1006,0 hPa 0,0 mm 0,0 km/h (0 Bft) SW 219 ° 0 min 0,000 mm 0,0 UV-I 0 W/m² 4,2 °C 5,9 °C 0,0 km/h (0 Bft)
10.03.2018 22:13 6,2 °C 88 % 1006,0 hPa 0,0 mm 0,0 km/h (0 Bft) SW 219 ° 0 min 0,000 mm 0,0 UV-I 0 W/m² 4,4 °C 6,2 °C 0,0 km/h (0 Bft)
10.03.2018 22:14 6,3 °C 88 % 1005,9 hPa 0,0 mm 0,0 km/h (0 Bft) SW 219 ° 0 min 0,000 mm 0,0 UV-I 0 W/m² 4,5 °C 6,3 °C 0,0 km/h (0 Bft)
10.03.2018 22:15 6,4 °C 87 % 1005,9 hPa 0,0 mm 0,0 km/h (0 Bft) SW 219 ° 0 min 0,000 mm 0,0 UV-I 0 W/m² 4,4 °C 6,4 °C 0,0 km/h (0 Bft)
10.03.2018 22:16 6,4 °C 87 % 1005,9 hPa 0,0 mm 0,0 km/h (0 Bft) SW 219 ° 0 min 0,000 mm 0,0 UV-I 0 W/m² 4,4 °C 6,4 °C 0,0 km/h (0 Bft)
10.03.2018 22:17 6,5 °C 87 % 1005,9 hPa 0,0 mm 0,0 km/h (0 Bft) SW 219 ° 0 min 0,000 mm 0,0 UV-I 0 W/m² 4,5 °C 6,5 °C 0,0 km/h (0 Bft)
10.03.2018 22:18 6,4 °C 86 % 1005,9 hPa 0,0 mm 0,0 km/h (0 Bft) SW 219 ° 0 min 0,000 mm 0,0 UV-I 0 W/m² 4,2 °C 6,4 °C 0,0 km/h (0 Bft)
10.03.2018 22:19 6,4 °C 87 % 1005,9 hPa 0,0 mm 0,0 km/h (0 Bft) SW 219 ° 0 min 0,000 mm 0,0 UV-I 0 W/m² 4,4 °C 6,4 °C 0,0 km/h (0 Bft)
10.03.2018 22:20 6,5 °C 87 % 1005,8 hPa 0,0 mm 0,0 km/h (0 Bft) SW 219 ° 0 min 0,000 mm 0,0 UV-I 0 W/m² 4,5 °C 6,5 °C 0,0 km/h (0 Bft)
10.03.2018 22:21 6,5 °C 86 % 1005,7 hPa 0,0 mm 0,0 km/h (0 Bft) SW 219 ° 0 min 0,000 mm 0,0 UV-I 0 W/m² 4,3 °C 6,5 °C 0,0 km/h (0 Bft)
10.03.2018 22:22 6,6 °C 86 % 1005,8 hPa 0,0 mm 0,0 km/h (0 Bft) SW 219 ° 0 min 0,000 mm 0,0 UV-I 0 W/m² 4,4 °C 6,6 °C 0,0 km/h (0 Bft)
10.03.2018 22:23 6,6 °C 86 % 1005,8 hPa 0,0 mm 0,0 km/h (0 Bft) SW 219 ° 0 min 0,000 mm 0,0 UV-I 0 W/m² 4,4 °C 6,6 °C 0,0 km/h (0 Bft)
10.03.2018 22:24 6,6 °C 86 % 1005,8 hPa 0,0 mm 0,0 km/h (0 Bft) SW 219 ° 0 min 0,000 mm 0,0 UV-I 0 W/m² 4,4 °C 6,6 °C 0,0 km/h (0 Bft)
10.03.2018 22:25 6,6 °C 86 % 1005,7 hPa 0,0 mm 0,0 km/h (0 Bft) SW 219 ° 0 min 0,000 mm 0,0 UV-I 0 W/m² 4,4 °C 6,6 °C 0,0 km/h (0 Bft)
10.03.2018 22:26 6,6 °C 85 % 1005,7 hPa 0,0 mm 0,0 km/h (0 Bft) SW 219 ° 0 min 0,000 mm 0,0 UV-I 0 W/m² 4,3 °C 6,6 °C 0,0 km/h (0 Bft)
10.03.2018 22:27 6,6 °C 85 % 1005,7 hPa 0,0 mm 0,1 km/h (0 Bft) SW 220 ° 0 min 0,000 mm 0,0 UV-I 0 W/m² 4,3 °C 6,6 °C 1,6 km/h (1 Bft)
10.03.2018 22:28 6,6 °C 85 % 1005,8 hPa 0,0 mm 0,1 km/h (0 Bft) SW 220 ° 0 min 0,000 mm 0,0 UV-I 0 W/m² 4,3 °C 6,6 °C 1,6 km/h (1 Bft)
10.03.2018 22:29 6,6 °C 85 % 1005,7 hPa 0,0 mm 0,1 km/h (0 Bft) SW 220 ° 0 min 0,000 mm 0,0 UV-I 0 W/m² 4,3 °C 6,6 °C 1,6 km/h (1 Bft)
10.03.2018 22:30 6,5 °C 86 % 1005,8 hPa 0,0 mm 0,1 km/h (0 Bft) SW 220 ° 0 min 0,000 mm 0,0 UV-I 0 W/m² 4,3 °C 6,5 °C 1,6 km/h (1 Bft)
10.03.2018 22:31 6,4 °C 85 % 1005,8 hPa 0,0 mm 0,1 km/h (0 Bft) SW 220 ° 0 min 0,000 mm 0,0 UV-I 0 W/m² 4,1 °C 6,4 °C 1,6 km/h (1 Bft)
10.03.2018 22:32 6,3 °C 86 % 1005,8 hPa 0,0 mm 0,3 km/h (0 Bft) SW 220 ° 0 min 0,000 mm 0,0 UV-I 0 W/m² 4,1 °C 6,3 °C 1,6 km/h (1 Bft)
10.03.2018 22:33 6,3 °C 86 % 1005,7 hPa 0,0 mm 0,0 km/h (0 Bft) SW 220 ° 0 min 0,000 mm 0,0 UV-I 0 W/m² 4,1 °C 6,3 °C 0,0 km/h (0 Bft)
10.03.2018 22:34 6,2 °C 86 % 1005,7 hPa 0,0 mm 0,0 km/h (0 Bft) SW 220 ° 0 min 0,000 mm 0,0 UV-I 0 W/m² 4,0 °C 6,2 °C 0,0 km/h (0 Bft)
10.03.2018 22:35 6,2 °C 86 % 1005,7 hPa 0,0 mm 0,0 km/h (0 Bft) SW 220 ° 0 min 0,000 mm 0,0 UV-I 0 W/m² 4,0 °C 6,2 °C 0,0 km/h (0 Bft)
10.03.2018 22:36 6,1 °C 87 % 1005,7 hPa 0,0 mm 0,0 km/h (0 Bft) SW 220 ° 0 min 0,000 mm 0,0 UV-I 0 W/m² 4,1 °C 6,1 °C 0,0 km/h (0 Bft)
10.03.2018 22:37 6,1 °C 87 % 1005,7 hPa 0,0 mm 0,0 km/h (0 Bft) SW 220 ° 0 min 0,000 mm 0,0 UV-I 0 W/m² 4,1 °C 6,1 °C 0,0 km/h (0 Bft)
10.03.2018 22:38 6,1 °C 87 % 1005,7 hPa 0,0 mm 1,7 km/h (1 Bft) SW 224 ° 0 min 0,000 mm 0,0 UV-I 0 W/m² 4,1 °C 6,1 °C 3,2 km/h (1 Bft)
10.03.2018 22:39 6,1 °C 87 % 1005,7 hPa 0,0 mm 0,9 km/h (0 Bft) SW 224 ° 0 min 0,000 mm 0,0 UV-I 0 W/m² 4,1 °C 6,1 °C 1,6 km/h (1 Bft)
10.03.2018 22:40 5,9 °C 87 % 1005,8 hPa 0,0 mm 0,0 km/h (0 Bft) SW 224 ° 0 min 0,000 mm 0,0 UV-I 0 W/m² 3,9 °C 5,9 °C 0,0 km/h (0 Bft)
10.03.2018 22:41 5,9 °C 87 % 1005,7 hPa 0,0 mm 0,1 km/h (0 Bft) SW 224 ° 0 min 0,000 mm 0,0 UV-I 0 W/m² 3,9 °C 5,9 °C 1,6 km/h (1 Bft)
10.03.2018 22:42 5,8 °C 88 % 1005,6 hPa 0,0 mm 0,0 km/h (0 Bft) SW 224 ° 0 min 0,000 mm 0,0 UV-I 0 W/m² 4,0 °C 5,8 °C 0,0 km/h (0 Bft)
10.03.2018 22:43 5,7 °C 88 % 1005,6 hPa 0,0 mm 0,0 km/h (0 Bft) SW 224 ° 0 min 0,000 mm 0,0 UV-I 0 W/m² 3,9 °C 5,7 °C 0,0 km/h (0 Bft)
10.03.2018 22:44 5,7 °C 88 % 1005,6 hPa 0,0 mm 0,0 km/h (0 Bft) SW 224 ° 0 min 0,000 mm 0,0 UV-I 0 W/m² 3,9 °C 5,7 °C 0,0 km/h (0 Bft)
10.03.2018 22:45 5,7 °C 88 % 1005,6 hPa 0,0 mm 0,0 km/h (0 Bft) SW 224 ° 0 min 0,000 mm 0,0 UV-I 0 W/m² 3,9 °C 5,7 °C 0,0 km/h (0 Bft)
10.03.2018 22:46 5,8 °C 88 % 1005,6 hPa 0,0 mm 0,3 km/h (0 Bft) SW 224 ° 0 min 0,000 mm 0,0 UV-I 0 W/m² 4,0 °C 5,8 °C 1,6 km/h (1 Bft)
10.03.2018 22:47 5,8 °C 88 % 1005,6 hPa 0,0 mm 0,7 km/h (0 Bft) SW 224 ° 0 min 0,000 mm 0,0 UV-I 0 W/m² 4,0 °C 5,8 °C 1,6 km/h (1 Bft)
10.03.2018 22:48 5,9 °C 88 % 1005,5 hPa 0,0 mm 0,3 km/h (0 Bft) SW 224 ° 0 min 0,000 mm 0,0 UV-I 0 W/m² 4,1 °C 5,9 °C 1,6 km/h (1 Bft)
10.03.2018 22:49 5,8 °C 88 % 1005,6 hPa 0,0 mm 0,0 km/h (0 Bft) SW 224 ° 0 min 0,000 mm 0,0 UV-I 0 W/m² 4,0 °C 5,8 °C 0,0 km/h (0 Bft)
10.03.2018 22:50 5,8 °C 88 % 1005,5 hPa 0,0 mm 0,2 km/h (0 Bft) SW 224 ° 0 min 0,000 mm 0,0 UV-I 0 W/m² 4,0 °C 5,8 °C 1,6 km/h (1 Bft)
10.03.2018 22:51 5,8 °C 88 % 1005,5 hPa 0,0 mm 0,0 km/h (0 Bft) SW 224 ° 0 min 0,000 mm 0,0 UV-I 0 W/m² 4,0 °C 5,8 °C 0,0 km/h (0 Bft)
10.03.2018 22:52 5,8 °C 88 % 1005,6 hPa 0,0 mm 0,0 km/h (0 Bft) SW 224 ° 0 min 0,000 mm 0,0 UV-I 0 W/m² 4,0 °C 5,8 °C 0,0 km/h (0 Bft)
10.03.2018 22:53 5,8 °C 88 % 1005,5 hPa 0,0 mm 0,0 km/h (0 Bft) SW 224 ° 0 min 0,000 mm 0,0 UV-I 0 W/m² 4,0 °C 5,8 °C 0,0 km/h (0 Bft)
10.03.2018 22:54 5,8 °C 88 % 1005,6 hPa 0,0 mm 0,0 km/h (0 Bft) SW 224 ° 0 min 0,000 mm 0,0 UV-I 0 W/m² 4,0 °C 5,8 °C 0,0 km/h (0 Bft)
10.03.2018 22:55 5,8 °C 88 % 1005,6 hPa 0,0 mm 0,0 km/h (0 Bft) SW 224 ° 0 min 0,000 mm 0,0 UV-I 0 W/m² 4,0 °C 5,8 °C 0,0 km/h (0 Bft)
10.03.2018 22:56 5,8 °C 88 % 1005,5 hPa 0,0 mm 0,0 km/h (0 Bft) SW 224 ° 0 min 0,000 mm 0,0 UV-I 0 W/m² 4,0 °C 5,8 °C 0,0 km/h (0 Bft)
10.03.2018 22:57 5,8 °C 88 % 1005,6 hPa 0,0 mm 0,0 km/h (0 Bft) SW 224 ° 0 min 0,000 mm 0,0 UV-I 0 W/m² 4,0 °C 5,8 °C 0,0 km/h (0 Bft)
10.03.2018 22:58 5,8 °C 89 % 1005,5 hPa 0,0 mm 0,0 km/h (0 Bft) SW 224 ° 0 min 0,000 mm 0,0 UV-I 0 W/m² 4,1 °C 5,8 °C 0,0 km/h (0 Bft)
10.03.2018 22:59 5,8 °C 89 % 1005,6 hPa 0,0 mm 0,0 km/h (0 Bft) SW 224 ° 0 min 0,000 mm 0,0 UV-I 0 W/m² 4,1 °C 5,8 °C 0,0 km/h (0 Bft)
10.03.2018 23:00 5,7 °C 89 % 1005,5 hPa 0,0 mm 0,0 km/h (0 Bft) SW 224 ° 0 min 0,000 mm 0,0 UV-I 0 W/m² 4,0 °C 5,7 °C 0,0 km/h (0 Bft)
10.03.2018 23:01 5,7 °C 89 % 1005,5 hPa 0,0 mm 0,0 km/h (0 Bft) SW 224 ° 0 min 0,000 mm 0,0 UV-I 0 W/m² 4,0 °C 5,7 °C 0,0 km/h (0 Bft)
10.03.2018 23:02 5,8 °C 89 % 1005,5 hPa 0,0 mm 0,0 km/h (0 Bft) SW 224 ° 0 min 0,000 mm 0,0 UV-I 0 W/m² 4,1 °C 5,8 °C 0,0 km/h (0 Bft)
10.03.2018 23:03 5,8 °C 88 % 1005,5 hPa 0,0 mm 0,0 km/h (0 Bft) SW 224 ° 0 min 0,000 mm 0,0 UV-I 0 W/m² 4,0 °C 5,8 °C 0,0 km/h (0 Bft)
10.03.2018 23:04 5,8 °C 88 % 1005,5 hPa 0,0 mm 0,0 km/h (0 Bft) SW 224 ° 0 min 0,000 mm 0,0 UV-I 0 W/m² 4,0 °C 5,8 °C 0,0 km/h (0 Bft)
10.03.2018 23:05 5,8 °C 88 % 1005,5 hPa 0,0 mm 0,0 km/h (0 Bft) SW 224 ° 0 min 0,000 mm 0,0 UV-I 0 W/m² 4,0 °C 5,8 °C 0,0 km/h (0 Bft)
10.03.2018 23:06 5,8 °C 88 % 1005,4 hPa 0,0 mm 0,0 km/h (0 Bft) SW 224 ° 0 min 0,000 mm 0,0 UV-I 0 W/m² 4,0 °C 5,8 °C 0,0 km/h (0 Bft)
10.03.2018 23:07 5,8 °C 88 % 1005,4 hPa 0,0 mm 0,0 km/h (0 Bft) SW 224 ° 0 min 0,000 mm 0,0 UV-I 0 W/m² 4,0 °C 5,8 °C 0,0 km/h (0 Bft)
10.03.2018 23:08 5,7 °C 89 % 1005,4 hPa 0,0 mm 0,0 km/h (0 Bft) SW 224 ° 0 min 0,000 mm 0,0 UV-I 0 W/m² 4,0 °C 5,7 °C 0,0 km/h (0 Bft)
10.03.2018 23:09 5,7 °C 89 % 1005,4 hPa 0,0 mm 0,0 km/h (0 Bft) SW 224 ° 0 min 0,000 mm 0,0 UV-I 0 W/m² 4,0 °C 5,7 °C 0,0 km/h (0 Bft)
10.03.2018 23:10 5,7 °C 89 % 1005,4 hPa 0,0 mm 0,0 km/h (0 Bft) SW 224 ° 0 min 0,000 mm 0,0 UV-I 0 W/m² 4,0 °C 5,7 °C 0,0 km/h (0 Bft)
10.03.2018 23:11 5,8 °C 89 % 1005,4 hPa 0,0 mm 0,0 km/h (0 Bft) SW 224 ° 0 min 0,000 mm 0,0 UV-I 0 W/m² 4,1 °C 5,8 °C 0,0 km/h (0 Bft)
10.03.2018 23:12 5,7 °C 88 % 1005,3 hPa 0,0 mm 0,0 km/h (0 Bft) SW 224 ° 0 min 0,000 mm 0,0 UV-I 0 W/m² 3,9 °C 5,7 °C 0,0 km/h (0 Bft)
10.03.2018 23:13 5,7 °C 88 % 1005,4 hPa 0,0 mm 0,0 km/h (0 Bft) SW 224 ° 0 min 0,000 mm 0,0 UV-I 0 W/m² 3,9 °C 5,7 °C 0,0 km/h (0 Bft)
10.03.2018 23:14 5,7 °C 89 % 1005,4 hPa 0,0 mm 0,0 km/h (0 Bft) SW 224 ° 0 min 0,000 mm 0,0 UV-I 0 W/m² 4,0 °C 5,7 °C 0,0 km/h (0 Bft)
10.03.2018 23:15 5,7 °C 89 % 1005,4 hPa 0,0 mm 0,0 km/h (0 Bft) SW 224 ° 0 min 0,000 mm 0,0 UV-I 0 W/m² 4,0 °C 5,7 °C 0,0 km/h (0 Bft)
10.03.2018 23:16 5,7 °C 88 % 1005,4 hPa 0,0 mm 0,0 km/h (0 Bft) SW 224 ° 0 min 0,000 mm 0,0 UV-I 0 W/m² 3,9 °C 5,7 °C 0,0 km/h (0 Bft)
10.03.2018 23:17 5,7 °C 89 % 1005,3 hPa 0,0 mm 0,0 km/h (0 Bft) SW 224 ° 0 min 0,000 mm 0,0 UV-I 0 W/m² 4,0 °C 5,7 °C 0,0 km/h (0 Bft)
10.03.2018 23:18 5,7 °C 88 % 1005,3 hPa 0,0 mm 0,0 km/h (0 Bft) SW 224 ° 0 min 0,000 mm 0,0 UV-I 0 W/m² 3,9 °C 5,7 °C 0,0 km/h (0 Bft)
10.03.2018 23:19 5,6 °C 88 % 1005,2 hPa 0,0 mm 0,0 km/h (0 Bft) SW 224 ° 0 min 0,000 mm 0,0 UV-I 0 W/m² 3,8 °C 5,6 °C 0,0 km/h (0 Bft)
10.03.2018 23:20 5,7 °C 88 % 1005,2 hPa 0,0 mm 0,0 km/h (0 Bft) SW 224 ° 0 min 0,000 mm 0,0 UV-I 0 W/m² 3,9 °C 5,7 °C 0,0 km/h (0 Bft)
10.03.2018 23:21 5,7 °C 89 % 1005,2 hPa 0,0 mm 0,0 km/h (0 Bft) SW 224 ° 0 min 0,000 mm 0,0 UV-I 0 W/m² 4,0 °C 5,7 °C 0,0 km/h (0 Bft)
10.03.2018 23:22 5,7 °C 88 % 1005,2 hPa 0,0 mm 0,0 km/h (0 Bft) SW 224 ° 0 min 0,000 mm 0,0 UV-I 0 W/m² 3,9 °C 5,7 °C 0,0 km/h (0 Bft)
10.03.2018 23:23 5,7 °C 88 % 1005,2 hPa 0,0 mm 0,0 km/h (0 Bft) SW 224 ° 0 min 0,000 mm 0,0 UV-I 0 W/m² 3,9 °C 5,7 °C 0,0 km/h (0 Bft)
10.03.2018 23:24 5,7 °C 88 % 1005,2 hPa 0,0 mm 0,0 km/h (0 Bft) SW 224 ° 0 min 0,000 mm 0,0 UV-I 0 W/m² 3,9 °C 5,7 °C 0,0 km/h (0 Bft)
10.03.2018 23:25 5,6 °C 88 % 1005,2 hPa 0,0 mm 0,0 km/h (0 Bft) SW 224 ° 0 min 0,000 mm 0,0 UV-I 0 W/m² 3,8 °C 5,6 °C 0,0 km/h (0 Bft)
10.03.2018 23:26 5,6 °C 88 % 1005,2 hPa 0,0 mm 0,0 km/h (0 Bft) SW 224 ° 0 min 0,000 mm 0,0 UV-I 0 W/m² 3,8 °C 5,6 °C 0,0 km/h (0 Bft)
10.03.2018 23:27 5,6 °C 88 % 1005,2 hPa 0,0 mm 0,0 km/h (0 Bft) SW 224 ° 0 min 0,000 mm 0,0 UV-I 0 W/m² 3,8 °C 5,6 °C 0,0 km/h (0 Bft)
10.03.2018 23:28 5,7 °C 88 % 1005,2 hPa 0,0 mm 0,0 km/h (0 Bft) SW 224 ° 0 min 0,000 mm 0,0 UV-I 0 W/m² 3,9 °C 5,7 °C 0,0 km/h (0 Bft)
10.03.2018 23:29 5,7 °C 88 % 1005,2 hPa 0,0 mm 0,0 km/h (0 Bft) SW 224 ° 0 min 0,000 mm 0,0 UV-I 0 W/m² 3,9 °C 5,7 °C 0,0 km/h (0 Bft)
10.03.2018 23:30 5,7 °C 88 % 1005,1 hPa 0,0 mm 0,0 km/h (0 Bft) SW 224 ° 0 min 0,000 mm 0,0 UV-I 0 W/m² 3,9 °C 5,7 °C 0,0 km/h (0 Bft)
10.03.2018 23:31 5,7 °C 87 % 1005,1 hPa 0,0 mm 0,0 km/h (0 Bft) SW 224 ° 0 min 0,000 mm 0,0 UV-I 0 W/m² 3,7 °C 5,7 °C 0,0 km/h (0 Bft)
10.03.2018 23:32 5,6 °C 88 % 1005,1 hPa 0,0 mm 0,0 km/h (0 Bft) SW 224 ° 0 min 0,000 mm 0,0 UV-I 0 W/m² 3,8 °C 5,6 °C 0,0 km/h (0 Bft)
10.03.2018 23:33 5,6 °C 88 % 1005,1 hPa 0,0 mm 0,0 km/h (0 Bft) SW 224 ° 0 min 0,000 mm 0,0 UV-I 0 W/m² 3,8 °C 5,6 °C 0,0 km/h (0 Bft)
10.03.2018 23:34 5,6 °C 88 % 1005,0 hPa 0,0 mm 0,0 km/h (0 Bft) SW 224 ° 0 min 0,000 mm 0,0 UV-I 0 W/m² 3,8 °C 5,6 °C 0,0 km/h (0 Bft)
10.03.2018 23:35 5,6 °C 88 % 1005,0 hPa 0,0 mm 0,0 km/h (0 Bft) SW 224 ° 0 min 0,000 mm 0,0 UV-I 0 W/m² 3,8 °C 5,6 °C 0,0 km/h (0 Bft)
10.03.2018 23:36 5,6 °C 88 % 1005,0 hPa 0,0 mm 0,2 km/h (0 Bft) SW 224 ° 0 min 0,000 mm 0,0 UV-I 0 W/m² 3,8 °C 5,6 °C 1,6 km/h (1 Bft)
10.03.2018 23:37 5,6 °C 88 % 1005,0 hPa 0,0 mm 0,0 km/h (0 Bft) SW 224 ° 0 min 0,000 mm 0,0 UV-I 0 W/m² 3,8 °C 5,6 °C 0,0 km/h (0 Bft)
10.03.2018 23:38 5,6 °C 88 % 1005,0 hPa 0,0 mm 0,0 km/h (0 Bft) SW 224 ° 0 min 0,000 mm 0,0 UV-I 0 W/m² 3,8 °C 5,6 °C 0,0 km/h (0 Bft)
10.03.2018 23:39 5,7 °C 88 % 1004,9 hPa 0,0 mm 0,0 km/h (0 Bft) SW 224 ° 0 min 0,000 mm 0,0 UV-I 0 W/m² 3,9 °C 5,7 °C 0,0 km/h (0 Bft)
10.03.2018 23:40 5,7 °C 87 % 1004,9 hPa 0,0 mm 0,0 km/h (0 Bft) SW 224 ° 0 min 0,000 mm 0,0 UV-I 0 W/m² 3,7 °C 5,7 °C 0,0 km/h (0 Bft)
10.03.2018 23:41 5,8 °C 87 % 1005,0 hPa 0,0 mm 0,0 km/h (0 Bft) SW 224 ° 0 min 0,000 mm 0,0 UV-I 0 W/m² 3,8 °C 5,8 °C 0,0 km/h (0 Bft)
10.03.2018 23:42 5,8 °C 86 % 1005,0 hPa 0,0 mm 0,5 km/h (0 Bft) SW 224 ° 0 min 0,000 mm 0,0 UV-I 0 W/m² 3,6 °C 5,8 °C 3,2 km/h (1 Bft)
10.03.2018 23:43 5,8 °C 86 % 1005,0 hPa 0,0 mm 0,2 km/h (0 Bft) SW 224 ° 0 min 0,000 mm 0,0 UV-I 0 W/m² 3,6 °C 5,8 °C 1,6 km/h (1 Bft)
10.03.2018 23:44 5,8 °C 85 % 1005,0 hPa 0,0 mm 0,0 km/h (0 Bft) SW 224 ° 0 min 0,000 mm 0,0 UV-I 0 W/m² 3,5 °C 5,8 °C 0,0 km/h (0 Bft)
10.03.2018 23:45 5,8 °C 86 % 1005,1 hPa 0,0 mm 0,0 km/h (0 Bft) SW 224 ° 0 min 0,000 mm 0,0 UV-I 0 W/m² 3,6 °C 5,8 °C 0,0 km/h (0 Bft)
10.03.2018 23:46 5,7 °C 85 % 1005,0 hPa 0,0 mm 0,0 km/h (0 Bft) SW 224 ° 0 min 0,000 mm 0,0 UV-I 0 W/m² 3,4 °C 5,7 °C 0,0 km/h (0 Bft)
10.03.2018 23:47 5,7 °C 85 % 1005,0 hPa 0,0 mm 0,0 km/h (0 Bft) SW 224 ° 0 min 0,000 mm 0,0 UV-I 0 W/m² 3,4 °C 5,7 °C 0,0 km/h (0 Bft)
10.03.2018 23:48 5,6 °C 85 % 1005,0 hPa 0,0 mm 0,3 km/h (0 Bft) SW 224 ° 0 min 0,000 mm 0,0 UV-I 0 W/m² 3,3 °C 5,6 °C 1,6 km/h (1 Bft)
10.03.2018 23:49 5,7 °C 85 % 1005,0 hPa 0,0 mm 0,1 km/h (0 Bft) SW 224 ° 0 min 0,000 mm 0,0 UV-I 0 W/m² 3,4 °C 5,7 °C 1,6 km/h (1 Bft)
10.03.2018 23:50 5,7 °C 85 % 1004,9 hPa 0,0 mm 0,0 km/h (0 Bft) SW 224 ° 0 min 0,000 mm 0,0 UV-I 0 W/m² 3,4 °C 5,7 °C 0,0 km/h (0 Bft)
10.03.2018 23:51 5,7 °C 85 % 1004,9 hPa 0,0 mm 0,0 km/h (0 Bft) SW 224 ° 0 min 0,000 mm 0,0 UV-I 0 W/m² 3,4 °C 5,7 °C 0,0 km/h (0 Bft)
10.03.2018 23:52 5,6 °C 85 % 1004,9 hPa 0,0 mm 0,0 km/h (0 Bft) SW 224 ° 0 min 0,000 mm 0,0 UV-I 0 W/m² 3,3 °C 5,6 °C 0,0 km/h (0 Bft)
10.03.2018 23:53 5,6 °C 85 % 1004,9 hPa 0,0 mm 0,1 km/h (0 Bft) SW 224 ° 0 min 0,000 mm 0,0 UV-I 0 W/m² 3,3 °C 5,6 °C 1,6 km/h (1 Bft)
10.03.2018 23:54 5,6 °C 85 % 1004,9 hPa 0,0 mm 0,1 km/h (0 Bft) SW 224 ° 0 min 0,000 mm 0,0 UV-I 0 W/m² 3,3 °C 5,6 °C 1,6 km/h (1 Bft)
10.03.2018 23:55 5,6 °C 85 % 1004,9 hPa 0,0 mm 0,0 km/h (0 Bft) SW 224 ° 0 min 0,000 mm 0,0 UV-I 0 W/m² 3,3 °C 5,6 °C 0,0 km/h (0 Bft)
10.03.2018 23:56 5,6 °C 85 % 1004,8 hPa 0,0 mm 0,0 km/h (0 Bft) SW 224 ° 0 min 0,000 mm 0,0 UV-I 0 W/m² 3,3 °C 5,6 °C 0,0 km/h (0 Bft)
10.03.2018 23:57 5,7 °C 84 % 1004,8 hPa 0,0 mm 0,0 km/h (0 Bft) SW 224 ° 0 min 0,000 mm 0,0 UV-I 0 W/m² 3,2 °C 5,7 °C 0,0 km/h (0 Bft)
10.03.2018 23:58 5,8 °C 84 % 1004,8 hPa 0,0 mm 0,0 km/h (0 Bft) SW 224 ° 0 min 0,000 mm 0,0 UV-I 0 W/m² 3,3 °C 5,8 °C 0,0 km/h (0 Bft)
10.03.2018 23:59 5,8 °C 83 % 1004,8 hPa 0,0 mm 0,0 km/h (0 Bft) SW 224 ° 0 min 0,000 mm 0,0 UV-I 0 W/m² 3,1 °C 5,8 °C 0,0 km/h (0 Bft)
_ Min-Zeit 02:24 12:03 23:59 - 23:59 - - - - - - 02:06 04:20 23:59
Minimum _ 3,0 °C 55 % 1004,8 hPa - 0,0 km/h (0 Bft) - - - - - - 0,4 °C 2,4 °C 0,0 km/h (0 Bft)
_ Max-Zeit 11:58 20:37 01:23 18:18 07:56 - - 23:59 12:01 11:56 11:45 14:26 11:58 14:58
Maximum _ 11,7 °C 93 % 1007,8 hPa 0,2 mm 6,3 km/h
S (2 Bft)
- - 0 min 0,127 mm 2,0 UV-I 274 W/m² 7,1 °C 11,7 °C 9,7 km/h
O (2 Bft)
Durchschnitt _ 6,9 °C 79 % 1006,5 hPa #1,0 mm 0,6 km/h (0 Bft) O - #0 min. #0,711 mm 1,1 UV-I 54 W/m² 3,5 °C 6,9 °C 1,2 km/h (1 Bft)